<?xml version="1.0" encoding="UTF-8" standalone="no" ?>
<gpx xmlns="http://www.topografix.com/GPX/1/1" xmlns:xsi="http://www.w3.org/2001/XMLSchema-instance" xsi:schemaLocation="http://www.topografix.com/GPX/1/1 http://www.topografix.com/GPX/1/1/gpx.xsd" version="1.1" creator="VisuGPX - https://www.visugpx.com">
  <metadata>
    <name>Col de Foureyssasse</name>
    <desc><![CDATA[Col de Foureyssasse]]></desc>
  </metadata>
  <trk>
    <name><![CDATA[000011-R-R]]></name>
    <trkseg>
      <trkpt lat="44.4828" lon="6.02924">
        <ele>635</ele>
        <time>2007-07-17T17:27:47Z</time>
      </trkpt>
      <trkpt lat="44.48274" lon="6.02911">
        <ele>634</ele>
        <time>2007-07-17T17:27:47Z</time>
      </trkpt>
      <trkpt lat="44.48268" lon="6.02898">
        <ele>634</ele>
        <time>2007-07-17T17:27:47Z</time>
      </trkpt>
      <trkpt lat="44.48264" lon="6.02885">
        <ele>634</ele>
        <time>2007-07-17T17:27:47Z</time>
      </trkpt>
      <trkpt lat="44.4826" lon="6.02872">
        <ele>634</ele>
        <time>2007-07-17T17:27:47Z</time>
      </trkpt>
      <trkpt lat="44.48258" lon="6.02857">
        <ele>634</ele>
        <time>2007-07-17T17:27:47Z</time>
      </trkpt>
      <trkpt lat="44.48256" lon="6.02841">
        <ele>633</ele>
        <time>2007-07-17T17:27:47Z</time>
      </trkpt>
      <trkpt lat="44.48255" lon="6.02825">
        <ele>634</ele>
        <time>2007-07-17T17:27:47Z</time>
      </trkpt>
      <trkpt lat="44.48253" lon="6.02809">
        <ele>634</ele>
        <time>2007-07-17T17:27:47Z</time>
      </trkpt>
      <trkpt lat="44.48251" lon="6.0279">
        <ele>634</ele>
        <time>2007-07-17T17:27:47Z</time>
      </trkpt>
      <trkpt lat="44.4825" lon="6.02771">
        <ele>634</ele>
        <time>2007-07-17T17:27:47Z</time>
      </trkpt>
      <trkpt lat="44.48246" lon="6.02755">
        <ele>633</ele>
        <time>2007-07-17T17:27:47Z</time>
      </trkpt>
      <trkpt lat="44.48244" lon="6.02739">
        <ele>634</ele>
        <time>2007-07-17T17:27:47Z</time>
      </trkpt>
      <trkpt lat="44.48242" lon="6.02723">
        <ele>634</ele>
        <time>2007-07-17T17:27:47Z</time>
      </trkpt>
      <trkpt lat="44.4824" lon="6.02708">
        <ele>634</ele>
        <time>2007-07-17T17:27:47Z</time>
      </trkpt>
      <trkpt lat="44.48239" lon="6.02692">
        <ele>634</ele>
        <time>2007-07-17T17:27:47Z</time>
      </trkpt>
      <trkpt lat="44.48237" lon="6.02676">
        <ele>635</ele>
        <time>2007-07-17T17:27:47Z</time>
      </trkpt>
      <trkpt lat="44.48235" lon="6.0266">
        <ele>637</ele>
        <time>2007-07-17T17:27:47Z</time>
      </trkpt>
      <trkpt lat="44.48231" lon="6.02644">
        <ele>638</ele>
        <time>2007-07-17T17:27:47Z</time>
      </trkpt>
      <trkpt lat="44.48223" lon="6.02631">
        <ele>639</ele>
        <time>2007-07-17T17:27:47Z</time>
      </trkpt>
      <trkpt lat="44.48217" lon="6.02618">
        <ele>639</ele>
        <time>2007-07-17T17:27:47Z</time>
      </trkpt>
      <trkpt lat="44.4821" lon="6.02608">
        <ele>640</ele>
        <time>2007-07-17T17:27:47Z</time>
      </trkpt>
      <trkpt lat="44.48204" lon="6.02598">
        <ele>640</ele>
        <time>2007-07-17T17:27:47Z</time>
      </trkpt>
      <trkpt lat="44.48193" lon="6.02588">
        <ele>640</ele>
        <time>2007-07-17T17:27:47Z</time>
      </trkpt>
      <trkpt lat="44.48182" lon="6.02578">
        <ele>645</ele>
        <time>2007-07-17T17:27:47Z</time>
      </trkpt>
      <trkpt lat="44.48171" lon="6.02574">
        <ele>644</ele>
        <time>2007-07-17T17:27:47Z</time>
      </trkpt>
      <trkpt lat="44.4816" lon="6.02567">
        <ele>641</ele>
        <time>2007-07-17T17:27:47Z</time>
      </trkpt>
      <trkpt lat="44.48149" lon="6.0256">
        <ele>642</ele>
        <time>2007-07-17T17:27:47Z</time>
      </trkpt>
      <trkpt lat="44.4814" lon="6.02553">
        <ele>642</ele>
        <time>2007-07-17T17:27:47Z</time>
      </trkpt>
      <trkpt lat="44.48129" lon="6.02549">
        <ele>642</ele>
        <time>2007-07-17T17:27:47Z</time>
      </trkpt>
      <trkpt lat="44.48118" lon="6.02546">
        <ele>641</ele>
        <time>2007-07-17T17:27:47Z</time>
      </trkpt>
      <trkpt lat="44.48106" lon="6.02548">
        <ele>640</ele>
        <time>2007-07-17T17:27:47Z</time>
      </trkpt>
      <trkpt lat="44.48097" lon="6.02554">
        <ele>639</ele>
        <time>2007-07-17T17:27:47Z</time>
      </trkpt>
      <trkpt lat="44.48091" lon="6.02537">
        <ele>640</ele>
        <time>2007-07-17T17:27:47Z</time>
      </trkpt>
      <trkpt lat="44.48092" lon="6.02516">
        <ele>641</ele>
        <time>2007-07-17T17:27:47Z</time>
      </trkpt>
      <trkpt lat="44.48092" lon="6.02497">
        <ele>643</ele>
        <time>2007-07-17T17:27:47Z</time>
      </trkpt>
      <trkpt lat="44.48093" lon="6.02478">
        <ele>645</ele>
        <time>2007-07-17T17:27:47Z</time>
      </trkpt>
      <trkpt lat="44.48094" lon="6.02459">
        <ele>646</ele>
        <time>2007-07-17T17:27:47Z</time>
      </trkpt>
      <trkpt lat="44.48096" lon="6.02444">
        <ele>647</ele>
        <time>2007-07-17T17:27:47Z</time>
      </trkpt>
      <trkpt lat="44.48101" lon="6.02431">
        <ele>647</ele>
        <time>2007-07-17T17:27:47Z</time>
      </trkpt>
      <trkpt lat="44.48111" lon="6.02422">
        <ele>647</ele>
        <time>2007-07-17T17:27:47Z</time>
      </trkpt>
      <trkpt lat="44.4812" lon="6.02417">
        <ele>648</ele>
        <time>2007-07-17T17:27:47Z</time>
      </trkpt>
      <trkpt lat="44.48129" lon="6.02411">
        <ele>649</ele>
        <time>2007-07-17T17:27:47Z</time>
      </trkpt>
      <trkpt lat="44.48138" lon="6.02405">
        <ele>650</ele>
        <time>2007-07-17T17:27:47Z</time>
      </trkpt>
      <trkpt lat="44.48147" lon="6.02397">
        <ele>650</ele>
        <time>2007-07-17T17:27:47Z</time>
      </trkpt>
      <trkpt lat="44.48157" lon="6.02388">
        <ele>650</ele>
        <time>2007-07-17T17:27:47Z</time>
      </trkpt>
      <trkpt lat="44.48164" lon="6.02376">
        <ele>650</ele>
        <time>2007-07-17T17:27:47Z</time>
      </trkpt>
      <trkpt lat="44.48171" lon="6.02367">
        <ele>655</ele>
        <time>2007-07-17T17:27:47Z</time>
      </trkpt>
      <trkpt lat="44.48178" lon="6.02355">
        <ele>654</ele>
        <time>2007-07-17T17:27:47Z</time>
      </trkpt>
      <trkpt lat="44.48181" lon="6.02339">
        <ele>652</ele>
        <time>2007-07-17T17:27:47Z</time>
      </trkpt>
      <trkpt lat="44.48179" lon="6.02323">
        <ele>650</ele>
        <time>2007-07-17T17:27:47Z</time>
      </trkpt>
      <trkpt lat="44.48168" lon="6.02319">
        <ele>650</ele>
        <time>2007-07-17T17:27:47Z</time>
      </trkpt>
      <trkpt lat="44.48155" lon="6.02318">
        <ele>649</ele>
        <time>2007-07-17T17:27:47Z</time>
      </trkpt>
      <trkpt lat="44.48145" lon="6.02324">
        <ele>649</ele>
        <time>2007-07-17T17:27:47Z</time>
      </trkpt>
      <trkpt lat="44.48136" lon="6.0233">
        <ele>649</ele>
        <time>2007-07-17T17:27:47Z</time>
      </trkpt>
      <trkpt lat="44.4812" lon="6.02329">
        <ele>649</ele>
        <time>2007-07-17T17:27:47Z</time>
      </trkpt>
      <trkpt lat="44.48107" lon="6.02328">
        <ele>649</ele>
        <time>2007-07-17T17:27:47Z</time>
      </trkpt>
      <trkpt lat="44.48098" lon="6.02321">
        <ele>649</ele>
        <time>2007-07-17T17:27:47Z</time>
      </trkpt>
      <trkpt lat="44.48092" lon="6.02311">
        <ele>649</ele>
        <time>2007-07-17T17:27:47Z</time>
      </trkpt>
      <trkpt lat="44.48085" lon="6.02301">
        <ele>650</ele>
        <time>2007-07-17T17:27:47Z</time>
      </trkpt>
      <trkpt lat="44.48079" lon="6.02291">
        <ele>654</ele>
        <time>2007-07-17T17:27:47Z</time>
      </trkpt>
      <trkpt lat="44.48075" lon="6.02275">
        <ele>655</ele>
        <time>2007-07-17T17:27:47Z</time>
      </trkpt>
      <trkpt lat="44.48066" lon="6.02265">
        <ele>655</ele>
        <time>2007-07-17T17:27:47Z</time>
      </trkpt>
      <trkpt lat="44.4806" lon="6.02256">
        <ele>655</ele>
        <time>2007-07-17T17:27:47Z</time>
      </trkpt>
      <trkpt lat="44.48054" lon="6.02243">
        <ele>660</ele>
        <time>2007-07-17T17:27:47Z</time>
      </trkpt>
      <trkpt lat="44.48045" lon="6.02236">
        <ele>661</ele>
        <time>2007-07-17T17:27:47Z</time>
      </trkpt>
      <trkpt lat="44.48036" lon="6.02229">
        <ele>662</ele>
        <time>2007-07-17T17:27:47Z</time>
      </trkpt>
      <trkpt lat="44.4803" lon="6.02219">
        <ele>662</ele>
        <time>2007-07-17T17:27:47Z</time>
      </trkpt>
      <trkpt lat="44.48021" lon="6.02206">
        <ele>663</ele>
        <time>2007-07-17T17:27:47Z</time>
      </trkpt>
      <trkpt lat="44.48015" lon="6.02196">
        <ele>664</ele>
        <time>2007-07-17T17:27:47Z</time>
      </trkpt>
      <trkpt lat="44.48008" lon="6.02186">
        <ele>664</ele>
        <time>2007-07-17T17:27:47Z</time>
      </trkpt>
      <trkpt lat="44.48002" lon="6.02173">
        <ele>665</ele>
        <time>2007-07-17T17:27:47Z</time>
      </trkpt>
      <trkpt lat="44.47995" lon="6.02163">
        <ele>668</ele>
        <time>2007-07-17T17:27:47Z</time>
      </trkpt>
      <trkpt lat="44.47991" lon="6.02151">
        <ele>671</ele>
        <time>2007-07-17T17:27:47Z</time>
      </trkpt>
      <trkpt lat="44.47987" lon="6.02138">
        <ele>674</ele>
        <time>2007-07-17T17:27:47Z</time>
      </trkpt>
      <trkpt lat="44.47986" lon="6.02122">
        <ele>675</ele>
        <time>2007-07-17T17:27:47Z</time>
      </trkpt>
      <trkpt lat="44.47972" lon="6.02118">
        <ele>676</ele>
        <time>2007-07-17T17:27:47Z</time>
      </trkpt>
      <trkpt lat="44.47965" lon="6.0213">
        <ele>676</ele>
        <time>2007-07-17T17:27:47Z</time>
      </trkpt>
      <trkpt lat="44.47964" lon="6.02149">
        <ele>675</ele>
        <time>2007-07-17T17:27:47Z</time>
      </trkpt>
      <trkpt lat="44.47959" lon="6.02164">
        <ele>675</ele>
        <time>2007-07-17T17:27:47Z</time>
      </trkpt>
      <trkpt lat="44.47952" lon="6.02179">
        <ele>671</ele>
        <time>2007-07-17T17:27:47Z</time>
      </trkpt>
      <trkpt lat="44.47952" lon="6.02198">
        <ele>671</ele>
        <time>2007-07-17T17:27:47Z</time>
      </trkpt>
      <trkpt lat="44.47958" lon="6.02211">
        <ele>670</ele>
        <time>2007-07-17T17:27:47Z</time>
      </trkpt>
      <trkpt lat="44.47964" lon="6.02221">
        <ele>669</ele>
        <time>2007-07-17T17:27:47Z</time>
      </trkpt>
      <trkpt lat="44.47968" lon="6.02234">
        <ele>668</ele>
        <time>2007-07-17T17:27:47Z</time>
      </trkpt>
      <trkpt lat="44.47961" lon="6.02243">
        <ele>669</ele>
        <time>2007-07-17T17:27:47Z</time>
      </trkpt>
      <trkpt lat="44.4795" lon="6.02239">
        <ele>670</ele>
        <time>2007-07-17T17:27:47Z</time>
      </trkpt>
      <trkpt lat="44.47944" lon="6.02229">
        <ele>671</ele>
        <time>2007-07-17T17:27:47Z</time>
      </trkpt>
      <trkpt lat="44.4794" lon="6.02216">
        <ele>671</ele>
        <time>2007-07-17T17:27:47Z</time>
      </trkpt>
      <trkpt lat="44.47933" lon="6.022">
        <ele>672</ele>
        <time>2007-07-17T17:27:47Z</time>
      </trkpt>
      <trkpt lat="44.47927" lon="6.0219">
        <ele>673</ele>
        <time>2007-07-17T17:27:47Z</time>
      </trkpt>
      <trkpt lat="44.47921" lon="6.0218">
        <ele>675</ele>
        <time>2007-07-17T17:27:47Z</time>
      </trkpt>
      <trkpt lat="44.47914" lon="6.02171">
        <ele>679</ele>
        <time>2007-07-17T17:27:47Z</time>
      </trkpt>
      <trkpt lat="44.47908" lon="6.02158">
        <ele>680</ele>
        <time>2007-07-17T17:27:47Z</time>
      </trkpt>
      <trkpt lat="44.47901" lon="6.02148">
        <ele>681</ele>
        <time>2007-07-17T17:27:47Z</time>
      </trkpt>
      <trkpt lat="44.47895" lon="6.02138">
        <ele>682</ele>
        <time>2007-07-17T17:27:47Z</time>
      </trkpt>
      <trkpt lat="44.47886" lon="6.02131">
        <ele>682</ele>
        <time>2007-07-17T17:27:47Z</time>
      </trkpt>
      <trkpt lat="44.47877" lon="6.02124">
        <ele>683</ele>
        <time>2007-07-17T17:27:47Z</time>
      </trkpt>
      <trkpt lat="44.47866" lon="6.0212">
        <ele>683</ele>
        <time>2007-07-17T17:27:47Z</time>
      </trkpt>
      <trkpt lat="44.47858" lon="6.02113">
        <ele>684</ele>
        <time>2007-07-17T17:27:47Z</time>
      </trkpt>
      <trkpt lat="44.47851" lon="6.02101">
        <ele>685</ele>
        <time>2007-07-17T17:27:47Z</time>
      </trkpt>
      <trkpt lat="44.4784" lon="6.02097">
        <ele>686</ele>
        <time>2007-07-17T17:27:47Z</time>
      </trkpt>
      <trkpt lat="44.47831" lon="6.0209">
        <ele>688</ele>
        <time>2007-07-17T17:27:47Z</time>
      </trkpt>
      <trkpt lat="44.4782" lon="6.02086">
        <ele>688</ele>
        <time>2007-07-17T17:27:47Z</time>
      </trkpt>
      <trkpt lat="44.47807" lon="6.02085">
        <ele>688</ele>
        <time>2007-07-17T17:27:47Z</time>
      </trkpt>
      <trkpt lat="44.47793" lon="6.02081">
        <ele>691</ele>
        <time>2007-07-17T17:27:47Z</time>
      </trkpt>
      <trkpt lat="44.47782" lon="6.02077">
        <ele>691</ele>
        <time>2007-07-17T17:27:47Z</time>
      </trkpt>
      <trkpt lat="44.47774" lon="6.0207">
        <ele>691</ele>
        <time>2007-07-17T17:27:47Z</time>
      </trkpt>
      <trkpt lat="44.47765" lon="6.0206">
        <ele>692</ele>
        <time>2007-07-17T17:27:47Z</time>
      </trkpt>
      <trkpt lat="44.47756" lon="6.02053">
        <ele>692</ele>
        <time>2007-07-17T17:27:47Z</time>
      </trkpt>
      <trkpt lat="44.47745" lon="6.0205">
        <ele>694</ele>
        <time>2007-07-17T17:27:47Z</time>
      </trkpt>
      <trkpt lat="44.47732" lon="6.02046">
        <ele>694</ele>
        <time>2007-07-17T17:27:47Z</time>
      </trkpt>
      <trkpt lat="44.47718" lon="6.02045">
        <ele>694</ele>
        <time>2007-07-17T17:27:47Z</time>
      </trkpt>
      <trkpt lat="44.47705" lon="6.02044">
        <ele>694</ele>
        <time>2007-07-17T17:27:47Z</time>
      </trkpt>
      <trkpt lat="44.47691" lon="6.02043">
        <ele>694</ele>
        <time>2007-07-17T17:27:47Z</time>
      </trkpt>
      <trkpt lat="44.47678" lon="6.02042">
        <ele>695</ele>
        <time>2007-07-17T17:27:47Z</time>
      </trkpt>
      <trkpt lat="44.47664" lon="6.02041">
        <ele>696</ele>
        <time>2007-07-17T17:27:47Z</time>
      </trkpt>
      <trkpt lat="44.47651" lon="6.02043">
        <ele>697</ele>
        <time>2007-07-17T17:27:47Z</time>
      </trkpt>
      <trkpt lat="44.47639" lon="6.02046">
        <ele>697</ele>
        <time>2007-07-17T17:27:47Z</time>
      </trkpt>
      <trkpt lat="44.47626" lon="6.02045">
        <ele>697</ele>
        <time>2007-07-17T17:27:47Z</time>
      </trkpt>
      <trkpt lat="44.47612" lon="6.02044">
        <ele>697</ele>
        <time>2007-07-17T17:27:47Z</time>
      </trkpt>
      <trkpt lat="44.47601" lon="6.0204">
        <ele>697</ele>
        <time>2007-07-17T17:27:47Z</time>
      </trkpt>
      <trkpt lat="44.47588" lon="6.02039">
        <ele>698</ele>
        <time>2007-07-17T17:27:47Z</time>
      </trkpt>
      <trkpt lat="44.47574" lon="6.02038">
        <ele>699</ele>
        <time>2007-07-17T17:27:47Z</time>
      </trkpt>
      <trkpt lat="44.47561" lon="6.02037">
        <ele>699</ele>
        <time>2007-07-17T17:27:47Z</time>
      </trkpt>
      <trkpt lat="44.47547" lon="6.02037">
        <ele>699</ele>
        <time>2007-07-17T17:27:47Z</time>
      </trkpt>
      <trkpt lat="44.47541" lon="6.02027">
        <ele>699</ele>
        <time>2007-07-17T17:27:47Z</time>
      </trkpt>
      <trkpt lat="44.47537" lon="6.02014">
        <ele>699</ele>
        <time>2007-07-17T17:27:47Z</time>
      </trkpt>
      <trkpt lat="44.47535" lon="6.01998">
        <ele>698</ele>
        <time>2007-07-17T17:27:47Z</time>
      </trkpt>
      <trkpt lat="44.47533" lon="6.01982">
        <ele>698</ele>
        <time>2007-07-17T17:27:47Z</time>
      </trkpt>
      <trkpt lat="44.47532" lon="6.0197">
        <ele>698</ele>
        <time>2007-07-17T17:27:47Z</time>
      </trkpt>
      <trkpt lat="44.4753" lon="6.01954">
        <ele>697</ele>
        <time>2007-07-17T17:27:47Z</time>
      </trkpt>
      <trkpt lat="44.47523" lon="6.01944">
        <ele>697</ele>
        <time>2007-07-17T17:27:47Z</time>
      </trkpt>
      <trkpt lat="44.47517" lon="6.01934">
        <ele>697</ele>
        <time>2007-07-17T17:27:47Z</time>
      </trkpt>
      <trkpt lat="44.47506" lon="6.01927">
        <ele>697</ele>
        <time>2007-07-17T17:27:47Z</time>
      </trkpt>
      <trkpt lat="44.47493" lon="6.01923">
        <ele>696</ele>
        <time>2007-07-17T17:27:47Z</time>
      </trkpt>
      <trkpt lat="44.47479" lon="6.01922">
        <ele>696</ele>
        <time>2007-07-17T17:27:47Z</time>
      </trkpt>
      <trkpt lat="44.47468" lon="6.01918">
        <ele>696</ele>
        <time>2007-07-17T17:27:47Z</time>
      </trkpt>
      <trkpt lat="44.47459" lon="6.01911">
        <ele>695</ele>
        <time>2007-07-17T17:27:47Z</time>
      </trkpt>
      <trkpt lat="44.47448" lon="6.01907">
        <ele>695</ele>
        <time>2007-07-17T17:27:47Z</time>
      </trkpt>
      <trkpt lat="44.47437" lon="6.019">
        <ele>694</ele>
        <time>2007-07-17T17:27:47Z</time>
      </trkpt>
      <trkpt lat="44.47426" lon="6.01897">
        <ele>694</ele>
        <time>2007-07-17T17:27:47Z</time>
      </trkpt>
      <trkpt lat="44.47415" lon="6.0189">
        <ele>692</ele>
        <time>2007-07-17T17:27:47Z</time>
      </trkpt>
      <trkpt lat="44.47404" lon="6.01883">
        <ele>692</ele>
        <time>2007-07-17T17:27:47Z</time>
      </trkpt>
      <trkpt lat="44.47393" lon="6.01879">
        <ele>692</ele>
        <time>2007-07-17T17:27:47Z</time>
      </trkpt>
      <trkpt lat="44.47379" lon="6.01878">
        <ele>692</ele>
        <time>2007-07-17T17:27:47Z</time>
      </trkpt>
      <trkpt lat="44.47368" lon="6.01874">
        <ele>691</ele>
        <time>2007-07-17T17:27:47Z</time>
      </trkpt>
      <trkpt lat="44.47355" lon="6.01873">
        <ele>691</ele>
        <time>2007-07-17T17:27:47Z</time>
      </trkpt>
      <trkpt lat="44.47344" lon="6.01869">
        <ele>691</ele>
        <time>2007-07-17T17:27:47Z</time>
      </trkpt>
      <trkpt lat="44.47337" lon="6.01859">
        <ele>691</ele>
        <time>2007-07-17T17:27:47Z</time>
      </trkpt>
      <trkpt lat="44.47333" lon="6.01847">
        <ele>690</ele>
        <time>2007-07-17T17:27:47Z</time>
      </trkpt>
      <trkpt lat="44.47329" lon="6.01834">
        <ele>689</ele>
        <time>2007-07-17T17:27:47Z</time>
      </trkpt>
      <trkpt lat="44.47325" lon="6.01821">
        <ele>689</ele>
        <time>2007-07-17T17:27:47Z</time>
      </trkpt>
      <trkpt lat="44.47323" lon="6.01805">
        <ele>689</ele>
        <time>2007-07-17T17:27:47Z</time>
      </trkpt>
      <trkpt lat="44.47319" lon="6.01792">
        <ele>690</ele>
        <time>2007-07-17T17:27:47Z</time>
      </trkpt>
      <trkpt lat="44.47317" lon="6.01776">
        <ele>690</ele>
        <time>2007-07-17T17:27:47Z</time>
      </trkpt>
      <trkpt lat="44.47313" lon="6.01764">
        <ele>690</ele>
        <time>2007-07-17T17:27:47Z</time>
      </trkpt>
      <trkpt lat="44.47307" lon="6.01751">
        <ele>690</ele>
        <time>2007-07-17T17:27:47Z</time>
      </trkpt>
      <trkpt lat="44.47301" lon="6.01741">
        <ele>691</ele>
        <time>2007-07-17T17:27:47Z</time>
      </trkpt>
      <trkpt lat="44.47294" lon="6.01731">
        <ele>691</ele>
        <time>2007-07-17T17:27:47Z</time>
      </trkpt>
      <trkpt lat="44.47288" lon="6.01721">
        <ele>691</ele>
        <time>2007-07-17T17:27:47Z</time>
      </trkpt>
      <trkpt lat="44.47284" lon="6.01708">
        <ele>691</ele>
        <time>2007-07-17T17:27:47Z</time>
      </trkpt>
      <trkpt lat="44.4728" lon="6.01695">
        <ele>691</ele>
        <time>2007-07-17T17:27:47Z</time>
      </trkpt>
      <trkpt lat="44.47276" lon="6.01682">
        <ele>690</ele>
        <time>2007-07-17T17:27:47Z</time>
      </trkpt>
      <trkpt lat="44.47267" lon="6.01672">
        <ele>689</ele>
        <time>2007-07-17T17:27:47Z</time>
      </trkpt>
      <trkpt lat="44.47258" lon="6.01666">
        <ele>689</ele>
        <time>2007-07-17T17:27:47Z</time>
      </trkpt>
      <trkpt lat="44.47254" lon="6.01653">
        <ele>691</ele>
        <time>2007-07-17T17:27:47Z</time>
      </trkpt>
      <trkpt lat="44.4725" lon="6.0164">
        <ele>685</ele>
        <time>2007-07-17T17:27:47Z</time>
      </trkpt>
      <trkpt lat="44.47244" lon="6.01627">
        <ele>685</ele>
        <time>2007-07-17T17:27:47Z</time>
      </trkpt>
      <trkpt lat="44.4724" lon="6.01614">
        <ele>686</ele>
        <time>2007-07-17T17:27:47Z</time>
      </trkpt>
      <trkpt lat="44.47236" lon="6.01601">
        <ele>686</ele>
        <time>2007-07-17T17:27:47Z</time>
      </trkpt>
      <trkpt lat="44.47232" lon="6.01585">
        <ele>687</ele>
        <time>2007-07-17T17:27:47Z</time>
      </trkpt>
      <trkpt lat="44.47225" lon="6.01575">
        <ele>691</ele>
        <time>2007-07-17T17:27:47Z</time>
      </trkpt>
      <trkpt lat="44.47219" lon="6.01566">
        <ele>691</ele>
        <time>2007-07-17T17:27:47Z</time>
      </trkpt>
      <trkpt lat="44.4721" lon="6.01559">
        <ele>690</ele>
        <time>2007-07-17T17:27:47Z</time>
      </trkpt>
      <trkpt lat="44.47201" lon="6.01552">
        <ele>690</ele>
        <time>2007-07-17T17:27:47Z</time>
      </trkpt>
      <trkpt lat="44.4719" lon="6.01545">
        <ele>689</ele>
        <time>2007-07-17T17:27:47Z</time>
      </trkpt>
      <trkpt lat="44.47179" lon="6.01538">
        <ele>689</ele>
        <time>2007-07-17T17:27:47Z</time>
      </trkpt>
      <trkpt lat="44.47168" lon="6.01531">
        <ele>689</ele>
        <time>2007-07-17T17:27:47Z</time>
      </trkpt>
      <trkpt lat="44.47157" lon="6.01527">
        <ele>681</ele>
        <time>2007-07-17T17:27:47Z</time>
      </trkpt>
      <trkpt lat="44.47146" lon="6.01523">
        <ele>681</ele>
        <time>2007-07-17T17:27:47Z</time>
      </trkpt>
      <trkpt lat="44.47135" lon="6.01516">
        <ele>680</ele>
        <time>2007-07-17T17:27:47Z</time>
      </trkpt>
      <trkpt lat="44.47126" lon="6.01509">
        <ele>679</ele>
        <time>2007-07-17T17:27:47Z</time>
      </trkpt>
      <trkpt lat="44.47117" lon="6.01502">
        <ele>679</ele>
        <time>2007-07-17T17:27:47Z</time>
      </trkpt>
      <trkpt lat="44.47109" lon="6.01496">
        <ele>683</ele>
        <time>2007-07-17T17:27:47Z</time>
      </trkpt>
      <trkpt lat="44.47098" lon="6.01489">
        <ele>682</ele>
        <time>2007-07-17T17:27:47Z</time>
      </trkpt>
      <trkpt lat="44.47089" lon="6.01482">
        <ele>682</ele>
        <time>2007-07-17T17:27:47Z</time>
      </trkpt>
      <trkpt lat="44.4708" lon="6.01472">
        <ele>676</ele>
        <time>2007-07-17T17:27:47Z</time>
      </trkpt>
      <trkpt lat="44.47071" lon="6.01465">
        <ele>676</ele>
        <time>2007-07-17T17:27:47Z</time>
      </trkpt>
      <trkpt lat="44.47063" lon="6.01458">
        <ele>677</ele>
        <time>2007-07-17T17:27:47Z</time>
      </trkpt>
      <trkpt lat="44.47049" lon="6.01454">
        <ele>676</ele>
        <time>2007-07-17T17:27:47Z</time>
      </trkpt>
      <trkpt lat="44.47038" lon="6.01447">
        <ele>675</ele>
        <time>2007-07-17T17:27:47Z</time>
      </trkpt>
      <trkpt lat="44.47029" lon="6.0144">
        <ele>675</ele>
        <time>2007-07-17T17:27:47Z</time>
      </trkpt>
      <trkpt lat="44.47021" lon="6.0143">
        <ele>675</ele>
        <time>2007-07-17T17:27:47Z</time>
      </trkpt>
      <trkpt lat="44.47014" lon="6.0142">
        <ele>674</ele>
        <time>2007-07-17T17:27:47Z</time>
      </trkpt>
      <trkpt lat="44.47003" lon="6.0141">
        <ele>675</ele>
        <time>2007-07-17T17:27:47Z</time>
      </trkpt>
      <trkpt lat="44.46997" lon="6.014">
        <ele>671</ele>
        <time>2007-07-17T17:27:47Z</time>
      </trkpt>
      <trkpt lat="44.46991" lon="6.0139">
        <ele>670</ele>
        <time>2007-07-17T17:27:47Z</time>
      </trkpt>
      <trkpt lat="44.46982" lon="6.0138">
        <ele>669</ele>
        <time>2007-07-17T17:27:47Z</time>
      </trkpt>
      <trkpt lat="44.46973" lon="6.01374">
        <ele>669</ele>
        <time>2007-07-17T17:27:47Z</time>
      </trkpt>
      <trkpt lat="44.46967" lon="6.01364">
        <ele>668</ele>
        <time>2007-07-17T17:27:47Z</time>
      </trkpt>
      <trkpt lat="44.46963" lon="6.01351">
        <ele>668</ele>
        <time>2007-07-17T17:27:47Z</time>
      </trkpt>
      <trkpt lat="44.46959" lon="6.01338">
        <ele>668</ele>
        <time>2007-07-17T17:27:47Z</time>
      </trkpt>
      <trkpt lat="44.46961" lon="6.01319">
        <ele>669</ele>
        <time>2007-07-17T17:27:47Z</time>
      </trkpt>
      <trkpt lat="44.46966" lon="6.01304">
        <ele>669</ele>
        <time>2007-07-17T17:27:47Z</time>
      </trkpt>
      <trkpt lat="44.46969" lon="6.01288">
        <ele>669</ele>
        <time>2007-07-17T17:27:47Z</time>
      </trkpt>
      <trkpt lat="44.46972" lon="6.01273">
        <ele>670</ele>
        <time>2007-07-17T17:27:47Z</time>
      </trkpt>
      <trkpt lat="44.46973" lon="6.01254">
        <ele>670</ele>
        <time>2007-07-17T17:27:47Z</time>
      </trkpt>
      <trkpt lat="44.46966" lon="6.01244">
        <ele>669</ele>
        <time>2007-07-17T17:27:47Z</time>
      </trkpt>
      <trkpt lat="44.46955" lon="6.0124">
        <ele>668</ele>
        <time>2007-07-17T17:27:47Z</time>
      </trkpt>
      <trkpt lat="44.46942" lon="6.01239">
        <ele>666</ele>
        <time>2007-07-17T17:27:47Z</time>
      </trkpt>
      <trkpt lat="44.46928" lon="6.01239">
        <ele>664</ele>
        <time>2007-07-17T17:27:47Z</time>
      </trkpt>
      <trkpt lat="44.46915" lon="6.01238">
        <ele>660</ele>
        <time>2007-07-17T17:27:47Z</time>
      </trkpt>
      <trkpt lat="44.46901" lon="6.01237">
        <ele>660</ele>
        <time>2007-07-17T17:27:47Z</time>
      </trkpt>
      <trkpt lat="44.46888" lon="6.01236">
        <ele>659</ele>
        <time>2007-07-17T17:27:47Z</time>
      </trkpt>
      <trkpt lat="44.46874" lon="6.01235">
        <ele>659</ele>
        <time>2007-07-17T17:27:47Z</time>
      </trkpt>
      <trkpt lat="44.46863" lon="6.01222">
        <ele>658</ele>
        <time>2007-07-17T17:27:47Z</time>
      </trkpt>
      <trkpt lat="44.46859" lon="6.01209">
        <ele>659</ele>
        <time>2007-07-17T17:27:47Z</time>
      </trkpt>
      <trkpt lat="44.46853" lon="6.01199">
        <ele>659</ele>
        <time>2007-07-17T17:27:47Z</time>
      </trkpt>
      <trkpt lat="44.46844" lon="6.01189">
        <ele>658</ele>
        <time>2007-07-17T17:27:47Z</time>
      </trkpt>
      <trkpt lat="44.46838" lon="6.01179">
        <ele>658</ele>
        <time>2007-07-17T17:27:47Z</time>
      </trkpt>
      <trkpt lat="44.46834" lon="6.01166">
        <ele>658</ele>
        <time>2007-07-17T17:27:47Z</time>
      </trkpt>
      <trkpt lat="44.46825" lon="6.01156">
        <ele>658</ele>
        <time>2007-07-17T17:27:47Z</time>
      </trkpt>
      <trkpt lat="44.46816" lon="6.01146">
        <ele>658</ele>
        <time>2007-07-17T17:27:47Z</time>
      </trkpt>
      <trkpt lat="44.4681" lon="6.01137">
        <ele>658</ele>
        <time>2007-07-17T17:27:47Z</time>
      </trkpt>
      <trkpt lat="44.46804" lon="6.01127">
        <ele>658</ele>
        <time>2007-07-17T17:27:47Z</time>
      </trkpt>
      <trkpt lat="44.46797" lon="6.01117">
        <ele>658</ele>
        <time>2007-07-17T17:27:47Z</time>
      </trkpt>
      <trkpt lat="44.46786" lon="6.01113">
        <ele>658</ele>
        <time>2007-07-17T17:27:47Z</time>
      </trkpt>
      <trkpt lat="44.46773" lon="6.01112">
        <ele>658</ele>
        <time>2007-07-17T17:27:47Z</time>
      </trkpt>
      <trkpt lat="44.46768" lon="6.01124">
        <ele>657</ele>
        <time>2007-07-17T17:27:47Z</time>
      </trkpt>
      <trkpt lat="44.46761" lon="6.01136">
        <ele>657</ele>
        <time>2007-07-17T17:27:47Z</time>
      </trkpt>
      <trkpt lat="44.46756" lon="6.01149">
        <ele>656</ele>
        <time>2007-07-17T17:27:47Z</time>
      </trkpt>
      <trkpt lat="44.46751" lon="6.01161">
        <ele>656</ele>
        <time>2007-07-17T17:27:47Z</time>
      </trkpt>
      <trkpt lat="44.46746" lon="6.01173">
        <ele>655</ele>
        <time>2007-07-17T17:27:47Z</time>
      </trkpt>
      <trkpt lat="44.46739" lon="6.01182">
        <ele>654</ele>
        <time>2007-07-17T17:27:47Z</time>
      </trkpt>
      <trkpt lat="44.46725" lon="6.01181">
        <ele>654</ele>
        <time>2007-07-17T17:27:47Z</time>
      </trkpt>
      <trkpt lat="44.46712" lon="6.0118">
        <ele>654</ele>
        <time>2007-07-17T17:27:47Z</time>
      </trkpt>
      <trkpt lat="44.46703" lon="6.01174">
        <ele>654</ele>
        <time>2007-07-17T17:27:47Z</time>
      </trkpt>
      <trkpt lat="44.46697" lon="6.01164">
        <ele>656</ele>
        <time>2007-07-17T17:27:47Z</time>
      </trkpt>
      <trkpt lat="44.46688" lon="6.01154">
        <ele>656</ele>
        <time>2007-07-17T17:27:47Z</time>
      </trkpt>
      <trkpt lat="44.46677" lon="6.0115">
        <ele>656</ele>
        <time>2007-07-17T17:27:47Z</time>
      </trkpt>
      <trkpt lat="44.46663" lon="6.01149">
        <ele>657</ele>
        <time>2007-07-17T17:27:47Z</time>
      </trkpt>
      <trkpt lat="44.4665" lon="6.01151">
        <ele>657</ele>
        <time>2007-07-17T17:27:47Z</time>
      </trkpt>
      <trkpt lat="44.46641" lon="6.01157">
        <ele>657</ele>
        <time>2007-07-17T17:27:47Z</time>
      </trkpt>
      <trkpt lat="44.46633" lon="6.01166">
        <ele>657</ele>
        <time>2007-07-17T17:27:47Z</time>
      </trkpt>
      <trkpt lat="44.46626" lon="6.01175">
        <ele>653</ele>
        <time>2007-07-17T17:27:47Z</time>
      </trkpt>
      <trkpt lat="44.46619" lon="6.01184">
        <ele>653</ele>
        <time>2007-07-17T17:27:47Z</time>
      </trkpt>
      <trkpt lat="44.46614" lon="6.01196">
        <ele>653</ele>
        <time>2007-07-17T17:27:47Z</time>
      </trkpt>
      <trkpt lat="44.4661" lon="6.01208">
        <ele>653</ele>
        <time>2007-07-17T17:27:47Z</time>
      </trkpt>
      <trkpt lat="44.46603" lon="6.01217">
        <ele>653</ele>
        <time>2007-07-17T17:27:47Z</time>
      </trkpt>
      <trkpt lat="44.46593" lon="6.01226">
        <ele>652</ele>
        <time>2007-07-17T17:27:47Z</time>
      </trkpt>
      <trkpt lat="44.46582" lon="6.01228">
        <ele>652</ele>
        <time>2007-07-17T17:27:47Z</time>
      </trkpt>
      <trkpt lat="44.46571" lon="6.01231">
        <ele>651</ele>
        <time>2007-07-17T17:27:47Z</time>
      </trkpt>
      <trkpt lat="44.46561" lon="6.01237">
        <ele>651</ele>
        <time>2007-07-17T17:27:47Z</time>
      </trkpt>
      <trkpt lat="44.46552" lon="6.01245">
        <ele>651</ele>
        <time>2007-07-17T17:27:47Z</time>
      </trkpt>
      <trkpt lat="44.46543" lon="6.01251">
        <ele>650</ele>
        <time>2007-07-17T17:27:47Z</time>
      </trkpt>
      <trkpt lat="44.46534" lon="6.01257">
        <ele>650</ele>
        <time>2007-07-17T17:27:47Z</time>
      </trkpt>
      <trkpt lat="44.46524" lon="6.01262">
        <ele>650</ele>
        <time>2007-07-17T17:27:47Z</time>
      </trkpt>
      <trkpt lat="44.46517" lon="6.01271">
        <ele>650</ele>
        <time>2007-07-17T17:27:47Z</time>
      </trkpt>
      <trkpt lat="44.46513" lon="6.01284">
        <ele>650</ele>
        <time>2007-07-17T17:27:47Z</time>
      </trkpt>
      <trkpt lat="44.46505" lon="6.01293">
        <ele>650</ele>
        <time>2007-07-17T17:27:47Z</time>
      </trkpt>
      <trkpt lat="44.46496" lon="6.01301">
        <ele>649</ele>
        <time>2007-07-17T17:27:47Z</time>
      </trkpt>
      <trkpt lat="44.46489" lon="6.01314">
        <ele>649</ele>
        <time>2007-07-17T17:27:47Z</time>
      </trkpt>
      <trkpt lat="44.46484" lon="6.01326">
        <ele>649</ele>
        <time>2007-07-17T17:27:47Z</time>
      </trkpt>
      <trkpt lat="44.46479" lon="6.01338">
        <ele>649</ele>
        <time>2007-07-17T17:27:47Z</time>
      </trkpt>
      <trkpt lat="44.46474" lon="6.0135">
        <ele>648</ele>
        <time>2007-07-17T17:27:47Z</time>
      </trkpt>
      <trkpt lat="44.46469" lon="6.01363">
        <ele>648</ele>
        <time>2007-07-17T17:27:47Z</time>
      </trkpt>
      <trkpt lat="44.46456" lon="6.01362">
        <ele>648</ele>
        <time>2007-07-17T17:27:47Z</time>
      </trkpt>
      <trkpt lat="44.46442" lon="6.01361">
        <ele>648</ele>
        <time>2007-07-17T17:27:47Z</time>
      </trkpt>
      <trkpt lat="44.46429" lon="6.0136">
        <ele>647</ele>
        <time>2007-07-17T17:27:47Z</time>
      </trkpt>
      <trkpt lat="44.46418" lon="6.01362">
        <ele>647</ele>
        <time>2007-07-17T17:27:47Z</time>
      </trkpt>
      <trkpt lat="44.46411" lon="6.01371">
        <ele>645</ele>
        <time>2007-07-17T17:27:47Z</time>
      </trkpt>
      <trkpt lat="44.46406" lon="6.01384">
        <ele>645</ele>
        <time>2007-07-17T17:27:47Z</time>
      </trkpt>
      <trkpt lat="44.46403" lon="6.01399">
        <ele>645</ele>
        <time>2007-07-17T17:27:47Z</time>
      </trkpt>
      <trkpt lat="44.46396" lon="6.01408">
        <ele>645</ele>
        <time>2007-07-17T17:27:47Z</time>
      </trkpt>
      <trkpt lat="44.46389" lon="6.0142">
        <ele>644</ele>
        <time>2007-07-17T17:27:47Z</time>
      </trkpt>
      <trkpt lat="44.46384" lon="6.01436">
        <ele>644</ele>
        <time>2007-07-17T17:27:47Z</time>
      </trkpt>
      <trkpt lat="44.46379" lon="6.01451">
        <ele>643</ele>
        <time>2007-07-17T17:27:47Z</time>
      </trkpt>
      <trkpt lat="44.46374" lon="6.01463">
        <ele>643</ele>
        <time>2007-07-17T17:27:47Z</time>
      </trkpt>
      <trkpt lat="44.46365" lon="6.01469">
        <ele>643</ele>
        <time>2007-07-17T17:27:47Z</time>
      </trkpt>
      <trkpt lat="44.46355" lon="6.01475">
        <ele>642</ele>
        <time>2007-07-17T17:27:47Z</time>
      </trkpt>
      <trkpt lat="44.46344" lon="6.01477">
        <ele>642</ele>
        <time>2007-07-17T17:27:47Z</time>
      </trkpt>
      <trkpt lat="44.46335" lon="6.01483">
        <ele>642</ele>
        <time>2007-07-17T17:27:47Z</time>
      </trkpt>
      <trkpt lat="44.46326" lon="6.01488">
        <ele>640</ele>
        <time>2007-07-17T17:27:47Z</time>
      </trkpt>
      <trkpt lat="44.46316" lon="6.01494">
        <ele>639</ele>
        <time>2007-07-17T17:27:47Z</time>
      </trkpt>
      <trkpt lat="44.46307" lon="6.01503">
        <ele>639</ele>
        <time>2007-07-17T17:27:47Z</time>
      </trkpt>
      <trkpt lat="44.46296" lon="6.01511">
        <ele>639</ele>
        <time>2007-07-17T17:27:47Z</time>
      </trkpt>
      <trkpt lat="44.46288" lon="6.0152">
        <ele>638</ele>
        <time>2007-07-17T17:27:47Z</time>
      </trkpt>
      <trkpt lat="44.46279" lon="6.01526">
        <ele>638</ele>
        <time>2007-07-17T17:27:47Z</time>
      </trkpt>
      <trkpt lat="44.46272" lon="6.01535">
        <ele>638</ele>
        <time>2007-07-17T17:27:47Z</time>
      </trkpt>
      <trkpt lat="44.46263" lon="6.01541">
        <ele>638</ele>
        <time>2007-07-17T17:27:47Z</time>
      </trkpt>
      <trkpt lat="44.46254" lon="6.01546">
        <ele>638</ele>
        <time>2007-07-17T17:27:47Z</time>
      </trkpt>
      <trkpt lat="44.46245" lon="6.01552">
        <ele>636</ele>
        <time>2007-07-17T17:27:47Z</time>
      </trkpt>
      <trkpt lat="44.46235" lon="6.01561">
        <ele>636</ele>
        <time>2007-07-17T17:27:47Z</time>
      </trkpt>
      <trkpt lat="44.46226" lon="6.01567">
        <ele>636</ele>
        <time>2007-07-17T17:27:47Z</time>
      </trkpt>
      <trkpt lat="44.46217" lon="6.01572">
        <ele>635</ele>
        <time>2007-07-17T17:27:47Z</time>
      </trkpt>
      <trkpt lat="44.46208" lon="6.01584">
        <ele>636</ele>
        <time>2007-07-17T17:27:47Z</time>
      </trkpt>
      <trkpt lat="44.46198" lon="6.0159">
        <ele>636</ele>
        <time>2007-07-17T17:27:47Z</time>
      </trkpt>
      <trkpt lat="44.46189" lon="6.01596">
        <ele>635</ele>
        <time>2007-07-17T17:27:47Z</time>
      </trkpt>
      <trkpt lat="44.46176" lon="6.01595">
        <ele>635</ele>
        <time>2007-07-17T17:27:47Z</time>
      </trkpt>
      <trkpt lat="44.46162" lon="6.01594">
        <ele>634</ele>
        <time>2007-07-17T17:27:47Z</time>
      </trkpt>
      <trkpt lat="44.46151" lon="6.0159">
        <ele>634</ele>
        <time>2007-07-17T17:27:47Z</time>
      </trkpt>
      <trkpt lat="44.4614" lon="6.01592">
        <ele>633</ele>
        <time>2007-07-17T17:27:47Z</time>
      </trkpt>
      <trkpt lat="44.4613" lon="6.01601">
        <ele>633</ele>
        <time>2007-07-17T17:27:47Z</time>
      </trkpt>
      <trkpt lat="44.46123" lon="6.0161">
        <ele>633</ele>
        <time>2007-07-17T17:27:47Z</time>
      </trkpt>
      <trkpt lat="44.46114" lon="6.01619">
        <ele>633</ele>
        <time>2007-07-17T17:27:47Z</time>
      </trkpt>
      <trkpt lat="44.46103" lon="6.01621">
        <ele>633</ele>
        <time>2007-07-17T17:27:47Z</time>
      </trkpt>
      <trkpt lat="44.46091" lon="6.01627">
        <ele>633</ele>
        <time>2007-07-17T17:27:47Z</time>
      </trkpt>
      <trkpt lat="44.46082" lon="6.01633">
        <ele>630</ele>
        <time>2007-07-17T17:27:47Z</time>
      </trkpt>
      <trkpt lat="44.46073" lon="6.01638">
        <ele>630</ele>
        <time>2007-07-17T17:27:47Z</time>
      </trkpt>
      <trkpt lat="44.46064" lon="6.0165">
        <ele>630</ele>
        <time>2007-07-17T17:27:47Z</time>
      </trkpt>
      <trkpt lat="44.46054" lon="6.01659">
        <ele>630</ele>
        <time>2007-07-17T17:27:47Z</time>
      </trkpt>
      <trkpt lat="44.46047" lon="6.01668">
        <ele>629</ele>
        <time>2007-07-17T17:27:47Z</time>
      </trkpt>
      <trkpt lat="44.46042" lon="6.0168">
        <ele>629</ele>
        <time>2007-07-17T17:27:47Z</time>
      </trkpt>
      <trkpt lat="44.46037" lon="6.01693">
        <ele>629</ele>
        <time>2007-07-17T17:27:47Z</time>
      </trkpt>
      <trkpt lat="44.46035" lon="6.01708">
        <ele>629</ele>
        <time>2007-07-17T17:27:47Z</time>
      </trkpt>
      <trkpt lat="44.46028" lon="6.01717">
        <ele>629</ele>
        <time>2007-07-17T17:27:47Z</time>
      </trkpt>
      <trkpt lat="44.46021" lon="6.01726">
        <ele>629</ele>
        <time>2007-07-17T17:27:47Z</time>
      </trkpt>
      <trkpt lat="44.46013" lon="6.01735">
        <ele>629</ele>
        <time>2007-07-17T17:27:47Z</time>
      </trkpt>
      <trkpt lat="44.46006" lon="6.01744">
        <ele>628</ele>
        <time>2007-07-17T17:27:47Z</time>
      </trkpt>
      <trkpt lat="44.45999" lon="6.01756">
        <ele>628</ele>
        <time>2007-07-17T17:27:47Z</time>
      </trkpt>
      <trkpt lat="44.4599" lon="6.01768">
        <ele>627</ele>
        <time>2007-07-17T17:27:47Z</time>
      </trkpt>
      <trkpt lat="44.45983" lon="6.0178">
        <ele>627</ele>
        <time>2007-07-17T17:27:47Z</time>
      </trkpt>
      <trkpt lat="44.45976" lon="6.01789">
        <ele>626</ele>
        <time>2007-07-17T17:27:47Z</time>
      </trkpt>
      <trkpt lat="44.45971" lon="6.01801">
        <ele>626</ele>
        <time>2007-07-17T17:27:47Z</time>
      </trkpt>
      <trkpt lat="44.45961" lon="6.0181">
        <ele>626</ele>
        <time>2007-07-17T17:27:47Z</time>
      </trkpt>
      <trkpt lat="44.45957" lon="6.01822">
        <ele>626</ele>
        <time>2007-07-17T17:27:47Z</time>
      </trkpt>
      <trkpt lat="44.45947" lon="6.01834">
        <ele>625</ele>
        <time>2007-07-17T17:27:47Z</time>
      </trkpt>
      <trkpt lat="44.4594" lon="6.01846">
        <ele>625</ele>
        <time>2007-07-17T17:27:47Z</time>
      </trkpt>
      <trkpt lat="44.45933" lon="6.01855">
        <ele>625</ele>
        <time>2007-07-17T17:27:47Z</time>
      </trkpt>
      <trkpt lat="44.45926" lon="6.01864">
        <ele>625</ele>
        <time>2007-07-17T17:27:47Z</time>
      </trkpt>
      <trkpt lat="44.45917" lon="6.0187">
        <ele>624</ele>
        <time>2007-07-17T17:27:47Z</time>
      </trkpt>
      <trkpt lat="44.45907" lon="6.01879">
        <ele>622</ele>
        <time>2007-07-17T17:27:47Z</time>
      </trkpt>
      <trkpt lat="44.45898" lon="6.01885">
        <ele>622</ele>
        <time>2007-07-17T17:27:47Z</time>
      </trkpt>
      <trkpt lat="44.45889" lon="6.0189">
        <ele>622</ele>
        <time>2007-07-17T17:27:47Z</time>
      </trkpt>
      <trkpt lat="44.4588" lon="6.01896">
        <ele>622</ele>
        <time>2007-07-17T17:27:47Z</time>
      </trkpt>
      <trkpt lat="44.45871" lon="6.01902">
        <ele>621</ele>
        <time>2007-07-17T17:27:47Z</time>
      </trkpt>
      <trkpt lat="44.45861" lon="6.0191">
        <ele>621</ele>
        <time>2007-07-17T17:27:47Z</time>
      </trkpt>
      <trkpt lat="44.4585" lon="6.01913">
        <ele>620</ele>
        <time>2007-07-17T17:27:47Z</time>
      </trkpt>
      <trkpt lat="44.45836" lon="6.01912">
        <ele>620</ele>
        <time>2007-07-17T17:27:47Z</time>
      </trkpt>
      <trkpt lat="44.45823" lon="6.01911">
        <ele>620</ele>
        <time>2007-07-17T17:27:47Z</time>
      </trkpt>
      <trkpt lat="44.4581" lon="6.0191">
        <ele>620</ele>
        <time>2007-07-17T17:27:47Z</time>
      </trkpt>
      <trkpt lat="44.45796" lon="6.01909">
        <ele>620</ele>
        <time>2007-07-17T17:27:47Z</time>
      </trkpt>
      <trkpt lat="44.45787" lon="6.01915">
        <ele>620</ele>
        <time>2007-07-17T17:27:47Z</time>
      </trkpt>
      <trkpt lat="44.45776" lon="6.01917">
        <ele>620</ele>
        <time>2007-07-17T17:27:47Z</time>
      </trkpt>
      <trkpt lat="44.45764" lon="6.0192">
        <ele>620</ele>
        <time>2007-07-17T17:27:47Z</time>
      </trkpt>
      <trkpt lat="44.45755" lon="6.01926">
        <ele>620</ele>
        <time>2007-07-17T17:27:47Z</time>
      </trkpt>
      <trkpt lat="44.45746" lon="6.01931">
        <ele>620</ele>
        <time>2007-07-17T17:27:47Z</time>
      </trkpt>
      <trkpt lat="44.45737" lon="6.01937">
        <ele>620</ele>
        <time>2007-07-17T17:27:47Z</time>
      </trkpt>
      <trkpt lat="44.45725" lon="6.01939">
        <ele>619</ele>
        <time>2007-07-17T17:27:47Z</time>
      </trkpt>
      <trkpt lat="44.45712" lon="6.01938">
        <ele>619</ele>
        <time>2007-07-17T17:27:47Z</time>
      </trkpt>
      <trkpt lat="44.45698" lon="6.01938">
        <ele>619</ele>
        <time>2007-07-17T17:27:47Z</time>
      </trkpt>
      <trkpt lat="44.45687" lon="6.01927">
        <ele>619</ele>
        <time>2007-07-17T17:27:47Z</time>
      </trkpt>
      <trkpt lat="44.45681" lon="6.01918">
        <ele>619</ele>
        <time>2007-07-17T17:27:47Z</time>
      </trkpt>
      <trkpt lat="44.45672" lon="6.01908">
        <ele>618</ele>
        <time>2007-07-17T17:27:47Z</time>
      </trkpt>
      <trkpt lat="44.45668" lon="6.01895">
        <ele>618</ele>
        <time>2007-07-17T17:27:47Z</time>
      </trkpt>
      <trkpt lat="44.45662" lon="6.01885">
        <ele>617</ele>
        <time>2007-07-17T17:27:47Z</time>
      </trkpt>
      <trkpt lat="44.45658" lon="6.01872">
        <ele>617</ele>
        <time>2007-07-17T17:27:47Z</time>
      </trkpt>
      <trkpt lat="44.45654" lon="6.01859">
        <ele>616</ele>
        <time>2007-07-17T17:27:47Z</time>
      </trkpt>
      <trkpt lat="44.45647" lon="6.01849">
        <ele>616</ele>
        <time>2007-07-17T17:27:47Z</time>
      </trkpt>
      <trkpt lat="44.45639" lon="6.01842">
        <ele>616</ele>
        <time>2007-07-17T17:27:47Z</time>
      </trkpt>
      <trkpt lat="44.4563" lon="6.01836">
        <ele>616</ele>
        <time>2007-07-17T17:27:47Z</time>
      </trkpt>
      <trkpt lat="44.45616" lon="6.01835">
        <ele>616</ele>
        <time>2007-07-17T17:27:47Z</time>
      </trkpt>
      <trkpt lat="44.45607" lon="6.0184">
        <ele>616</ele>
        <time>2007-07-17T17:27:47Z</time>
      </trkpt>
      <trkpt lat="44.45598" lon="6.01849">
        <ele>616</ele>
        <time>2007-07-17T17:27:47Z</time>
      </trkpt>
      <trkpt lat="44.45591" lon="6.01858">
        <ele>617</ele>
        <time>2007-07-17T17:27:47Z</time>
      </trkpt>
      <trkpt lat="44.45582" lon="6.01864">
        <ele>615</ele>
        <time>2007-07-17T17:27:47Z</time>
      </trkpt>
      <trkpt lat="44.45574" lon="6.01873">
        <ele>615</ele>
        <time>2007-07-17T17:27:47Z</time>
      </trkpt>
      <trkpt lat="44.45565" lon="6.01879">
        <ele>615</ele>
        <time>2007-07-17T17:27:47Z</time>
      </trkpt>
      <trkpt lat="44.45554" lon="6.01884">
        <ele>615</ele>
        <time>2007-07-17T17:27:47Z</time>
      </trkpt>
      <trkpt lat="44.45545" lon="6.0189">
        <ele>615</ele>
        <time>2007-07-17T17:27:47Z</time>
      </trkpt>
      <trkpt lat="44.45535" lon="6.01895">
        <ele>615</ele>
        <time>2007-07-17T17:27:47Z</time>
      </trkpt>
      <trkpt lat="44.45526" lon="6.01901">
        <ele>614</ele>
        <time>2007-07-17T17:27:47Z</time>
      </trkpt>
      <trkpt lat="44.45517" lon="6.01907">
        <ele>614</ele>
        <time>2007-07-17T17:27:47Z</time>
      </trkpt>
      <trkpt lat="44.45508" lon="6.01912">
        <ele>613</ele>
        <time>2007-07-17T17:27:47Z</time>
      </trkpt>
      <trkpt lat="44.45499" lon="6.01918">
        <ele>612</ele>
        <time>2007-07-17T17:27:47Z</time>
      </trkpt>
      <trkpt lat="44.45492" lon="6.01927">
        <ele>613</ele>
        <time>2007-07-17T17:27:47Z</time>
      </trkpt>
      <trkpt lat="44.45482" lon="6.01933">
        <ele>614</ele>
        <time>2007-07-17T17:27:47Z</time>
      </trkpt>
      <trkpt lat="44.45473" lon="6.01938">
        <ele>614</ele>
        <time>2007-07-17T17:27:47Z</time>
      </trkpt>
      <trkpt lat="44.45464" lon="6.01947">
        <ele>614</ele>
        <time>2007-07-17T17:27:47Z</time>
      </trkpt>
      <trkpt lat="44.45457" lon="6.01959">
        <ele>615</ele>
        <time>2007-07-17T17:27:47Z</time>
      </trkpt>
      <trkpt lat="44.4545" lon="6.01968">
        <ele>615</ele>
        <time>2007-07-17T17:27:47Z</time>
      </trkpt>
      <trkpt lat="44.45441" lon="6.01974">
        <ele>615</ele>
        <time>2007-07-17T17:27:47Z</time>
      </trkpt>
      <trkpt lat="44.45431" lon="6.01983">
        <ele>615</ele>
        <time>2007-07-17T17:27:47Z</time>
      </trkpt>
      <trkpt lat="44.45422" lon="6.01989">
        <ele>615</ele>
        <time>2007-07-17T17:27:47Z</time>
      </trkpt>
      <trkpt lat="44.45413" lon="6.01985">
        <ele>617</ele>
        <time>2007-07-17T17:27:47Z</time>
      </trkpt>
      <trkpt lat="44.45409" lon="6.01972">
        <ele>617</ele>
        <time>2007-07-17T17:27:47Z</time>
      </trkpt>
      <trkpt lat="44.45405" lon="6.01959">
        <ele>617</ele>
        <time>2007-07-17T17:27:47Z</time>
      </trkpt>
      <trkpt lat="44.45401" lon="6.0194">
        <ele>617</ele>
        <time>2007-07-17T17:27:47Z</time>
      </trkpt>
      <trkpt lat="44.45399" lon="6.01924">
        <ele>617</ele>
        <time>2007-07-17T17:27:47Z</time>
      </trkpt>
      <trkpt lat="44.45398" lon="6.01905">
        <ele>619</ele>
        <time>2007-07-17T17:27:47Z</time>
      </trkpt>
      <trkpt lat="44.45396" lon="6.01889">
        <ele>620</ele>
        <time>2007-07-17T17:27:47Z</time>
      </trkpt>
      <trkpt lat="44.45394" lon="6.01874">
        <ele>620</ele>
        <time>2007-07-17T17:27:47Z</time>
      </trkpt>
      <trkpt lat="44.45393" lon="6.01855">
        <ele>620</ele>
        <time>2007-07-17T17:27:47Z</time>
      </trkpt>
      <trkpt lat="44.45391" lon="6.01842">
        <ele>621</ele>
        <time>2007-07-17T17:27:47Z</time>
      </trkpt>
      <trkpt lat="44.45391" lon="6.01829">
        <ele>623</ele>
        <time>2007-07-17T17:27:47Z</time>
      </trkpt>
      <trkpt lat="44.4539" lon="6.01817">
        <ele>623</ele>
        <time>2007-07-17T17:27:47Z</time>
      </trkpt>
      <trkpt lat="44.45386" lon="6.01801">
        <ele>624</ele>
        <time>2007-07-17T17:27:47Z</time>
      </trkpt>
      <trkpt lat="44.45384" lon="6.01788">
        <ele>625</ele>
        <time>2007-07-17T17:27:47Z</time>
      </trkpt>
      <trkpt lat="44.4538" lon="6.01772">
        <ele>625</ele>
        <time>2007-07-17T17:27:47Z</time>
      </trkpt>
      <trkpt lat="44.45371" lon="6.01765">
        <ele>626</ele>
        <time>2007-07-17T17:27:47Z</time>
      </trkpt>
      <trkpt lat="44.45362" lon="6.01765">
        <ele>626</ele>
        <time>2007-07-17T17:27:47Z</time>
      </trkpt>
      <trkpt lat="44.45353" lon="6.0177">
        <ele>626</ele>
        <time>2007-07-17T17:27:47Z</time>
      </trkpt>
      <trkpt lat="44.45344" lon="6.01776">
        <ele>626</ele>
        <time>2007-07-17T17:27:47Z</time>
      </trkpt>
      <trkpt lat="44.45337" lon="6.01785">
        <ele>626</ele>
        <time>2007-07-17T17:27:47Z</time>
      </trkpt>
      <trkpt lat="44.45325" lon="6.01791">
        <ele>627</ele>
        <time>2007-07-17T17:27:47Z</time>
      </trkpt>
      <trkpt lat="44.45314" lon="6.01796">
        <ele>627</ele>
        <time>2007-07-17T17:27:47Z</time>
      </trkpt>
      <trkpt lat="44.45305" lon="6.01795">
        <ele>627</ele>
        <time>2007-07-17T17:27:47Z</time>
      </trkpt>
      <trkpt lat="44.45296" lon="6.01795">
        <ele>627</ele>
        <time>2007-07-17T17:27:47Z</time>
      </trkpt>
      <trkpt lat="44.45287" lon="6.01791">
        <ele>627</ele>
        <time>2007-07-17T17:27:47Z</time>
      </trkpt>
      <trkpt lat="44.45278" lon="6.01784">
        <ele>627</ele>
        <time>2007-07-17T17:27:47Z</time>
      </trkpt>
      <trkpt lat="44.45274" lon="6.01771">
        <ele>627</ele>
        <time>2007-07-17T17:27:47Z</time>
      </trkpt>
      <trkpt lat="44.4527" lon="6.01759">
        <ele>627</ele>
        <time>2007-07-17T17:27:47Z</time>
      </trkpt>
      <trkpt lat="44.45266" lon="6.01746">
        <ele>629</ele>
        <time>2007-07-17T17:27:47Z</time>
      </trkpt>
      <trkpt lat="44.45262" lon="6.01733">
        <ele>629</ele>
        <time>2007-07-17T17:27:47Z</time>
      </trkpt>
      <trkpt lat="44.45251" lon="6.01726">
        <ele>629</ele>
        <time>2007-07-17T17:27:47Z</time>
      </trkpt>
      <trkpt lat="44.45244" lon="6.01719">
        <ele>628</ele>
        <time>2007-07-17T17:27:47Z</time>
      </trkpt>
      <trkpt lat="44.45236" lon="6.01709">
        <ele>628</ele>
        <time>2007-07-17T17:27:47Z</time>
      </trkpt>
      <trkpt lat="44.45227" lon="6.01699">
        <ele>628</ele>
        <time>2007-07-17T17:27:47Z</time>
      </trkpt>
      <trkpt lat="44.45218" lon="6.01683">
        <ele>628</ele>
        <time>2007-07-17T17:27:47Z</time>
      </trkpt>
      <trkpt lat="44.4521" lon="6.01673">
        <ele>628</ele>
        <time>2007-07-17T17:27:47Z</time>
      </trkpt>
      <trkpt lat="44.45201" lon="6.01663">
        <ele>630</ele>
        <time>2007-07-17T17:27:47Z</time>
      </trkpt>
      <trkpt lat="44.45195" lon="6.01653">
        <ele>630</ele>
        <time>2007-07-17T17:27:47Z</time>
      </trkpt>
      <trkpt lat="44.45188" lon="6.01643">
        <ele>630</ele>
        <time>2007-07-17T17:27:47Z</time>
      </trkpt>
      <trkpt lat="44.45184" lon="6.01631">
        <ele>630</ele>
        <time>2007-07-17T17:27:47Z</time>
      </trkpt>
      <trkpt lat="44.45183" lon="6.01615">
        <ele>631</ele>
        <time>2007-07-17T17:27:47Z</time>
      </trkpt>
      <trkpt lat="44.45178" lon="6.01602">
        <ele>631</ele>
        <time>2007-07-17T17:27:47Z</time>
      </trkpt>
      <trkpt lat="44.45179" lon="6.01589">
        <ele>631</ele>
        <time>2007-07-17T17:27:47Z</time>
      </trkpt>
      <trkpt lat="44.45175" lon="6.0158">
        <ele>633</ele>
        <time>2007-07-17T17:27:47Z</time>
      </trkpt>
      <trkpt lat="44.45173" lon="6.01567">
        <ele>634</ele>
        <time>2007-07-17T17:27:47Z</time>
      </trkpt>
      <trkpt lat="44.45169" lon="6.01554">
        <ele>635</ele>
        <time>2007-07-17T17:27:47Z</time>
      </trkpt>
      <trkpt lat="44.45165" lon="6.01541">
        <ele>634</ele>
        <time>2007-07-17T17:27:47Z</time>
      </trkpt>
      <trkpt lat="44.45156" lon="6.01531">
        <ele>634</ele>
        <time>2007-07-17T17:27:47Z</time>
      </trkpt>
      <trkpt lat="44.4515" lon="6.01525">
        <ele>635</ele>
        <time>2007-07-17T17:27:47Z</time>
      </trkpt>
      <trkpt lat="44.45141" lon="6.01524">
        <ele>635</ele>
        <time>2007-07-17T17:27:47Z</time>
      </trkpt>
      <trkpt lat="44.45132" lon="6.01523">
        <ele>634</ele>
        <time>2007-07-17T17:27:47Z</time>
      </trkpt>
      <trkpt lat="44.45123" lon="6.01523">
        <ele>634</ele>
        <time>2007-07-17T17:27:47Z</time>
      </trkpt>
      <trkpt lat="44.45116" lon="6.01516">
        <ele>635</ele>
        <time>2007-07-17T17:27:47Z</time>
      </trkpt>
      <trkpt lat="44.4511" lon="6.01503">
        <ele>635</ele>
        <time>2007-07-17T17:27:47Z</time>
      </trkpt>
      <trkpt lat="44.45106" lon="6.0149">
        <ele>640</ele>
        <time>2007-07-17T17:27:47Z</time>
      </trkpt>
      <trkpt lat="44.45099" lon="6.01477">
        <ele>641</ele>
        <time>2007-07-17T17:27:47Z</time>
      </trkpt>
      <trkpt lat="44.45098" lon="6.01461">
        <ele>642</ele>
        <time>2007-07-17T17:27:47Z</time>
      </trkpt>
      <trkpt lat="44.45098" lon="6.01449">
        <ele>643</ele>
        <time>2007-07-17T17:27:47Z</time>
      </trkpt>
      <trkpt lat="44.45098" lon="6.01436">
        <ele>645</ele>
        <time>2007-07-17T17:27:47Z</time>
      </trkpt>
      <trkpt lat="44.45099" lon="6.01424">
        <ele>646</ele>
        <time>2007-07-17T17:27:47Z</time>
      </trkpt>
      <trkpt lat="44.45099" lon="6.01411">
        <ele>650</ele>
        <time>2007-07-17T17:27:47Z</time>
      </trkpt>
      <trkpt lat="44.451" lon="6.01399">
        <ele>651</ele>
        <time>2007-07-17T17:27:47Z</time>
      </trkpt>
      <trkpt lat="44.451" lon="6.01386">
        <ele>652</ele>
        <time>2007-07-17T17:27:47Z</time>
      </trkpt>
      <trkpt lat="44.45098" lon="6.01374">
        <ele>653</ele>
        <time>2007-07-17T17:27:47Z</time>
      </trkpt>
      <trkpt lat="44.45096" lon="6.01361">
        <ele>654</ele>
        <time>2007-07-17T17:27:47Z</time>
      </trkpt>
      <trkpt lat="44.45085" lon="6.01354">
        <ele>655</ele>
        <time>2007-07-17T17:27:47Z</time>
      </trkpt>
      <trkpt lat="44.45081" lon="6.01347">
        <ele>659</ele>
        <time>2007-07-17T17:27:47Z</time>
      </trkpt>
      <trkpt lat="44.45074" lon="6.01353">
        <ele>658</ele>
        <time>2007-07-17T17:27:47Z</time>
      </trkpt>
      <trkpt lat="44.45069" lon="6.01365">
        <ele>658</ele>
        <time>2007-07-17T17:27:47Z</time>
      </trkpt>
      <trkpt lat="44.45067" lon="6.01378">
        <ele>657</ele>
        <time>2007-07-17T17:27:47Z</time>
      </trkpt>
      <trkpt lat="44.45064" lon="6.0139">
        <ele>656</ele>
        <time>2007-07-17T17:27:47Z</time>
      </trkpt>
      <trkpt lat="44.45061" lon="6.01403">
        <ele>655</ele>
        <time>2007-07-17T17:27:47Z</time>
      </trkpt>
      <trkpt lat="44.45056" lon="6.01415">
        <ele>655</ele>
        <time>2007-07-17T17:27:47Z</time>
      </trkpt>
      <trkpt lat="44.45047" lon="6.0142">
        <ele>648</ele>
        <time>2007-07-17T17:27:47Z</time>
      </trkpt>
      <trkpt lat="44.45038" lon="6.0142">
        <ele>649</ele>
        <time>2007-07-17T17:27:47Z</time>
      </trkpt>
      <trkpt lat="44.45034" lon="6.01413">
        <ele>657</ele>
        <time>2007-07-17T17:27:47Z</time>
      </trkpt>
      <trkpt lat="44.45034" lon="6.01401">
        <ele>657</ele>
        <time>2007-07-17T17:27:47Z</time>
      </trkpt>
      <trkpt lat="44.45035" lon="6.01388">
        <ele>658</ele>
        <time>2007-07-17T17:27:47Z</time>
      </trkpt>
      <trkpt lat="44.4504" lon="6.01376">
        <ele>659</ele>
        <time>2007-07-17T17:27:47Z</time>
      </trkpt>
      <trkpt lat="44.45042" lon="6.01364">
        <ele>659</ele>
        <time>2007-07-17T17:27:47Z</time>
      </trkpt>
      <trkpt lat="44.45047" lon="6.01351">
        <ele>660</ele>
        <time>2007-07-17T17:27:47Z</time>
      </trkpt>
      <trkpt lat="44.4505" lon="6.01339">
        <ele>660</ele>
        <time>2007-07-17T17:27:47Z</time>
      </trkpt>
      <trkpt lat="44.45039" lon="6.01335">
        <ele>661</ele>
        <time>2007-07-17T17:27:47Z</time>
      </trkpt>
      <trkpt lat="44.4503" lon="6.01341">
        <ele>662</ele>
        <time>2007-07-17T17:27:47Z</time>
      </trkpt>
      <trkpt lat="44.45021" lon="6.01343">
        <ele>663</ele>
        <time>2007-07-17T17:27:47Z</time>
      </trkpt>
      <trkpt lat="44.45011" lon="6.01349">
        <ele>663</ele>
        <time>2007-07-17T17:27:47Z</time>
      </trkpt>
      <trkpt lat="44.45002" lon="6.01348">
        <ele>664</ele>
        <time>2007-07-17T17:27:47Z</time>
      </trkpt>
      <trkpt lat="44.44991" lon="6.01351">
        <ele>668</ele>
        <time>2007-07-17T17:27:47Z</time>
      </trkpt>
      <trkpt lat="44.44982" lon="6.0135">
        <ele>668</ele>
        <time>2007-07-17T17:27:47Z</time>
      </trkpt>
      <trkpt lat="44.44973" lon="6.0135">
        <ele>668</ele>
        <time>2007-07-17T17:27:47Z</time>
      </trkpt>
      <trkpt lat="44.44974" lon="6.01337">
        <ele>669</ele>
        <time>2007-07-17T17:27:47Z</time>
      </trkpt>
      <trkpt lat="44.44978" lon="6.01325">
        <ele>675</ele>
        <time>2007-07-17T17:27:47Z</time>
      </trkpt>
      <trkpt lat="44.44988" lon="6.01319">
        <ele>674</ele>
        <time>2007-07-17T17:27:47Z</time>
      </trkpt>
      <trkpt lat="44.44997" lon="6.01313">
        <ele>674</ele>
        <time>2007-07-17T17:27:47Z</time>
      </trkpt>
      <trkpt lat="44.45004" lon="6.01308">
        <ele>669</ele>
        <time>2007-07-17T17:27:47Z</time>
      </trkpt>
      <trkpt lat="44.45011" lon="6.01299">
        <ele>669</ele>
        <time>2007-07-17T17:27:47Z</time>
      </trkpt>
      <trkpt lat="44.45016" lon="6.0129">
        <ele>670</ele>
        <time>2007-07-17T17:27:47Z</time>
      </trkpt>
      <trkpt lat="44.45016" lon="6.01277">
        <ele>671</ele>
        <time>2007-07-17T17:27:47Z</time>
      </trkpt>
      <trkpt lat="44.45016" lon="6.01264">
        <ele>672</ele>
        <time>2007-07-17T17:27:47Z</time>
      </trkpt>
      <trkpt lat="44.45017" lon="6.01252">
        <ele>673</ele>
        <time>2007-07-17T17:27:47Z</time>
      </trkpt>
      <trkpt lat="44.45015" lon="6.01239">
        <ele>677</ele>
        <time>2007-07-17T17:27:47Z</time>
      </trkpt>
      <trkpt lat="44.45013" lon="6.01227">
        <ele>677</ele>
        <time>2007-07-17T17:27:47Z</time>
      </trkpt>
      <trkpt lat="44.45014" lon="6.01214">
        <ele>677</ele>
        <time>2007-07-17T17:27:47Z</time>
      </trkpt>
      <trkpt lat="44.45009" lon="6.01207">
        <ele>678</ele>
        <time>2007-07-17T17:27:47Z</time>
      </trkpt>
      <trkpt lat="44.45" lon="6.01207">
        <ele>678</ele>
        <time>2007-07-17T17:27:47Z</time>
      </trkpt>
      <trkpt lat="44.44995" lon="6.01222">
        <ele>685</ele>
        <time>2007-07-17T17:27:47Z</time>
      </trkpt>
      <trkpt lat="44.44986" lon="6.01228">
        <ele>685</ele>
        <time>2007-07-17T17:27:47Z</time>
      </trkpt>
      <trkpt lat="44.44977" lon="6.01234">
        <ele>685</ele>
        <time>2007-07-17T17:27:47Z</time>
      </trkpt>
      <trkpt lat="44.44968" lon="6.01233">
        <ele>686</ele>
        <time>2007-07-17T17:27:47Z</time>
      </trkpt>
      <trkpt lat="44.44959" lon="6.01232">
        <ele>688</ele>
        <time>2007-07-17T17:27:47Z</time>
      </trkpt>
      <trkpt lat="44.44955" lon="6.0122">
        <ele>688</ele>
        <time>2007-07-17T17:27:47Z</time>
      </trkpt>
      <trkpt lat="44.44955" lon="6.01207">
        <ele>689</ele>
        <time>2007-07-17T17:27:47Z</time>
      </trkpt>
      <trkpt lat="44.44956" lon="6.01195">
        <ele>690</ele>
        <time>2007-07-17T17:27:47Z</time>
      </trkpt>
      <trkpt lat="44.44956" lon="6.01182">
        <ele>690</ele>
        <time>2007-07-17T17:27:47Z</time>
      </trkpt>
      <trkpt lat="44.44954" lon="6.01169">
        <ele>691</ele>
        <time>2007-07-17T17:27:47Z</time>
      </trkpt>
      <trkpt lat="44.4495" lon="6.01156">
        <ele>698</ele>
        <time>2007-07-17T17:27:47Z</time>
      </trkpt>
      <trkpt lat="44.44953" lon="6.01144">
        <ele>697</ele>
        <time>2007-07-17T17:27:47Z</time>
      </trkpt>
      <trkpt lat="44.4496" lon="6.01135">
        <ele>697</ele>
        <time>2007-07-17T17:27:47Z</time>
      </trkpt>
      <trkpt lat="44.44967" lon="6.01129">
        <ele>696</ele>
        <time>2007-07-17T17:27:47Z</time>
      </trkpt>
      <trkpt lat="44.44976" lon="6.01124">
        <ele>696</ele>
        <time>2007-07-17T17:27:47Z</time>
      </trkpt>
      <trkpt lat="44.44967" lon="6.01123">
        <ele>697</ele>
        <time>2007-07-17T17:27:47Z</time>
      </trkpt>
      <trkpt lat="44.44958" lon="6.01122">
        <ele>698</ele>
        <time>2007-07-17T17:27:47Z</time>
      </trkpt>
      <trkpt lat="44.44949" lon="6.01122">
        <ele>699</ele>
        <time>2007-07-17T17:27:47Z</time>
      </trkpt>
      <trkpt lat="44.4494" lon="6.01128">
        <ele>700</ele>
        <time>2007-07-17T17:27:47Z</time>
      </trkpt>
      <trkpt lat="44.44935" lon="6.01137">
        <ele>700</ele>
        <time>2007-07-17T17:27:47Z</time>
      </trkpt>
      <trkpt lat="44.4493" lon="6.01146">
        <ele>700</ele>
        <time>2007-07-17T17:27:47Z</time>
      </trkpt>
      <trkpt lat="44.44923" lon="6.01155">
        <ele>701</ele>
        <time>2007-07-17T17:27:47Z</time>
      </trkpt>
      <trkpt lat="44.44916" lon="6.01164">
        <ele>705</ele>
        <time>2007-07-17T17:27:47Z</time>
      </trkpt>
      <trkpt lat="44.44911" lon="6.01173">
        <ele>705</ele>
        <time>2007-07-17T17:27:47Z</time>
      </trkpt>
      <trkpt lat="44.44909" lon="6.01188">
        <ele>706</ele>
        <time>2007-07-17T17:27:47Z</time>
      </trkpt>
      <trkpt lat="44.44908" lon="6.01201">
        <ele>706</ele>
        <time>2007-07-17T17:27:47Z</time>
      </trkpt>
      <trkpt lat="44.44901" lon="6.0121">
        <ele>706</ele>
        <time>2007-07-17T17:27:47Z</time>
      </trkpt>
      <trkpt lat="44.44897" lon="6.012">
        <ele>707</ele>
        <time>2007-07-17T17:27:47Z</time>
      </trkpt>
      <trkpt lat="44.44895" lon="6.01187">
        <ele>708</ele>
        <time>2007-07-17T17:27:47Z</time>
      </trkpt>
      <trkpt lat="44.44894" lon="6.01172">
        <ele>708</ele>
        <time>2007-07-17T17:27:47Z</time>
      </trkpt>
      <trkpt lat="44.44885" lon="6.01165">
        <ele>718</ele>
        <time>2007-07-17T17:27:47Z</time>
      </trkpt>
      <trkpt lat="44.44876" lon="6.01164">
        <ele>720</ele>
        <time>2007-07-17T17:27:47Z</time>
      </trkpt>
      <trkpt lat="44.44873" lon="6.01183">
        <ele>712</ele>
        <time>2007-07-17T17:27:47Z</time>
      </trkpt>
      <trkpt lat="44.44872" lon="6.01195">
        <ele>711</ele>
        <time>2007-07-17T17:27:47Z</time>
      </trkpt>
      <trkpt lat="44.44872" lon="6.01208">
        <ele>710</ele>
        <time>2007-07-17T17:27:47Z</time>
      </trkpt>
      <trkpt lat="44.44865" lon="6.01217">
        <ele>711</ele>
        <time>2007-07-17T17:27:47Z</time>
      </trkpt>
      <trkpt lat="44.44858" lon="6.0121">
        <ele>712</ele>
        <time>2007-07-17T17:27:47Z</time>
      </trkpt>
      <trkpt lat="44.44849" lon="6.0121">
        <ele>713</ele>
        <time>2007-07-17T17:27:47Z</time>
      </trkpt>
      <trkpt lat="44.44841" lon="6.01209">
        <ele>714</ele>
        <time>2007-07-17T17:27:47Z</time>
      </trkpt>
      <trkpt lat="44.44832" lon="6.01208">
        <ele>727</ele>
        <time>2007-07-17T17:27:47Z</time>
      </trkpt>
      <trkpt lat="44.44823" lon="6.01208">
        <ele>727</ele>
        <time>2007-07-17T17:27:47Z</time>
      </trkpt>
      <trkpt lat="44.44814" lon="6.01207">
        <ele>728</ele>
        <time>2007-07-17T17:27:47Z</time>
      </trkpt>
      <trkpt lat="44.44807" lon="6.01213">
        <ele>728</ele>
        <time>2007-07-17T17:27:47Z</time>
      </trkpt>
      <trkpt lat="44.448" lon="6.01219">
        <ele>727</ele>
        <time>2007-07-17T17:27:47Z</time>
      </trkpt>
      <trkpt lat="44.44793" lon="6.01225">
        <ele>728</ele>
        <time>2007-07-17T17:27:47Z</time>
      </trkpt>
      <trkpt lat="44.44784" lon="6.0123">
        <ele>728</ele>
        <time>2007-07-17T17:27:47Z</time>
      </trkpt>
      <trkpt lat="44.44775" lon="6.0123">
        <ele>728</ele>
        <time>2007-07-17T17:27:47Z</time>
      </trkpt>
      <trkpt lat="44.4477" lon="6.01223">
        <ele>729</ele>
        <time>2007-07-17T17:27:47Z</time>
      </trkpt>
      <trkpt lat="44.44771" lon="6.01211">
        <ele>730</ele>
        <time>2007-07-17T17:27:47Z</time>
      </trkpt>
      <trkpt lat="44.44775" lon="6.01202">
        <ele>731</ele>
        <time>2007-07-17T17:27:47Z</time>
      </trkpt>
      <trkpt lat="44.44787" lon="6.01196">
        <ele>731</ele>
        <time>2007-07-17T17:27:47Z</time>
      </trkpt>
      <trkpt lat="44.44796" lon="6.01194">
        <ele>730</ele>
        <time>2007-07-17T17:27:47Z</time>
      </trkpt>
      <trkpt lat="44.44805" lon="6.01194">
        <ele>730</ele>
        <time>2007-07-17T17:27:47Z</time>
      </trkpt>
      <trkpt lat="44.44814" lon="6.01192">
        <ele>729</ele>
        <time>2007-07-17T17:27:47Z</time>
      </trkpt>
      <trkpt lat="44.44823" lon="6.01192">
        <ele>729</ele>
        <time>2007-07-17T17:27:47Z</time>
      </trkpt>
      <trkpt lat="44.4483" lon="6.01183">
        <ele>729</ele>
        <time>2007-07-17T17:27:47Z</time>
      </trkpt>
      <trkpt lat="44.44826" lon="6.01177">
        <ele>730</ele>
        <time>2007-07-17T17:27:47Z</time>
      </trkpt>
      <trkpt lat="44.44817" lon="6.01176">
        <ele>730</ele>
        <time>2007-07-17T17:27:47Z</time>
      </trkpt>
      <trkpt lat="44.44808" lon="6.01175">
        <ele>730</ele>
        <time>2007-07-17T17:27:47Z</time>
      </trkpt>
      <trkpt lat="44.44799" lon="6.01175">
        <ele>731</ele>
        <time>2007-07-17T17:27:47Z</time>
      </trkpt>
      <trkpt lat="44.4479" lon="6.01174">
        <ele>732</ele>
        <time>2007-07-17T17:27:47Z</time>
      </trkpt>
      <trkpt lat="44.44781" lon="6.01174">
        <ele>734</ele>
        <time>2007-07-17T17:27:47Z</time>
      </trkpt>
      <trkpt lat="44.44772" lon="6.01173">
        <ele>736</ele>
        <time>2007-07-17T17:27:47Z</time>
      </trkpt>
      <trkpt lat="44.44763" lon="6.01173">
        <ele>738</ele>
        <time>2007-07-17T17:27:47Z</time>
      </trkpt>
      <trkpt lat="44.44754" lon="6.01172">
        <ele>741</ele>
        <time>2007-07-17T17:27:47Z</time>
      </trkpt>
      <trkpt lat="44.44745" lon="6.01171">
        <ele>744</ele>
        <time>2007-07-17T17:27:47Z</time>
      </trkpt>
      <trkpt lat="44.44736" lon="6.01171">
        <ele>743</ele>
        <time>2007-07-17T17:27:47Z</time>
      </trkpt>
      <trkpt lat="44.44727" lon="6.0117">
        <ele>742</ele>
        <time>2007-07-17T17:27:47Z</time>
      </trkpt>
      <trkpt lat="44.44718" lon="6.0117">
        <ele>742</ele>
        <time>2007-07-17T17:27:47Z</time>
      </trkpt>
      <trkpt lat="44.44718" lon="6.01157">
        <ele>754</ele>
        <time>2007-07-17T17:27:47Z</time>
      </trkpt>
      <trkpt lat="44.44726" lon="6.01148">
        <ele>754</ele>
        <time>2007-07-17T17:27:47Z</time>
      </trkpt>
      <trkpt lat="44.44735" lon="6.01142">
        <ele>754</ele>
        <time>2007-07-17T17:27:47Z</time>
      </trkpt>
      <trkpt lat="44.44742" lon="6.01137">
        <ele>754</ele>
        <time>2007-07-17T17:27:47Z</time>
      </trkpt>
      <trkpt lat="44.44749" lon="6.01131">
        <ele>755</ele>
        <time>2007-07-17T17:27:47Z</time>
      </trkpt>
      <trkpt lat="44.44756" lon="6.01125">
        <ele>749</ele>
        <time>2007-07-17T17:27:47Z</time>
      </trkpt>
      <trkpt lat="44.4476" lon="6.01116">
        <ele>750</ele>
        <time>2007-07-17T17:27:47Z</time>
      </trkpt>
      <trkpt lat="44.44767" lon="6.01107">
        <ele>751</ele>
        <time>2007-07-17T17:27:47Z</time>
      </trkpt>
      <trkpt lat="44.44772" lon="6.01095">
        <ele>752</ele>
        <time>2007-07-17T17:27:47Z</time>
      </trkpt>
      <trkpt lat="44.44777" lon="6.01082">
        <ele>760</ele>
        <time>2007-07-17T17:27:47Z</time>
      </trkpt>
      <trkpt lat="44.44784" lon="6.0107">
        <ele>760</ele>
        <time>2007-07-17T17:27:47Z</time>
      </trkpt>
      <trkpt lat="44.44789" lon="6.01061">
        <ele>759</ele>
        <time>2007-07-17T17:27:47Z</time>
      </trkpt>
      <trkpt lat="44.4479" lon="6.01049">
        <ele>760</ele>
        <time>2007-07-17T17:27:47Z</time>
      </trkpt>
      <trkpt lat="44.4479" lon="6.01036">
        <ele>761</ele>
        <time>2007-07-17T17:27:47Z</time>
      </trkpt>
      <trkpt lat="44.44793" lon="6.01021">
        <ele>762</ele>
        <time>2007-07-17T17:27:47Z</time>
      </trkpt>
      <trkpt lat="44.448" lon="6.01012">
        <ele>761</ele>
        <time>2007-07-17T17:27:47Z</time>
      </trkpt>
      <trkpt lat="44.44809" lon="6.01006">
        <ele>760</ele>
        <time>2007-07-17T17:27:47Z</time>
      </trkpt>
      <trkpt lat="44.44814" lon="6.00994">
        <ele>765</ele>
        <time>2007-07-17T17:27:47Z</time>
      </trkpt>
      <trkpt lat="44.44817" lon="6.00978">
        <ele>766</ele>
        <time>2007-07-17T17:27:47Z</time>
      </trkpt>
      <trkpt lat="44.44819" lon="6.00966">
        <ele>768</ele>
        <time>2007-07-17T17:27:47Z</time>
      </trkpt>
      <trkpt lat="44.4482" lon="6.00953">
        <ele>768</ele>
        <time>2007-07-17T17:27:47Z</time>
      </trkpt>
      <trkpt lat="44.44823" lon="6.00938">
        <ele>768</ele>
        <time>2007-07-17T17:27:47Z</time>
      </trkpt>
      <trkpt lat="44.44823" lon="6.00925">
        <ele>767</ele>
        <time>2007-07-17T17:27:47Z</time>
      </trkpt>
      <trkpt lat="44.44823" lon="6.00913">
        <ele>770</ele>
        <time>2007-07-17T17:27:47Z</time>
      </trkpt>
      <trkpt lat="44.44814" lon="6.00915">
        <ele>773</ele>
        <time>2007-07-17T17:27:47Z</time>
      </trkpt>
      <trkpt lat="44.44809" lon="6.0093">
        <ele>769</ele>
        <time>2007-07-17T17:27:47Z</time>
      </trkpt>
      <trkpt lat="44.44802" lon="6.00946">
        <ele>770</ele>
        <time>2007-07-17T17:27:47Z</time>
      </trkpt>
      <trkpt lat="44.44795" lon="6.00955">
        <ele>771</ele>
        <time>2007-07-17T17:27:47Z</time>
      </trkpt>
      <trkpt lat="44.44788" lon="6.00964">
        <ele>771</ele>
        <time>2007-07-17T17:27:47Z</time>
      </trkpt>
      <trkpt lat="44.44777" lon="6.00966">
        <ele>772</ele>
        <time>2007-07-17T17:27:47Z</time>
      </trkpt>
      <trkpt lat="44.44765" lon="6.00968">
        <ele>773</ele>
        <time>2007-07-17T17:27:47Z</time>
      </trkpt>
      <trkpt lat="44.44756" lon="6.00974">
        <ele>774</ele>
        <time>2007-07-17T17:27:47Z</time>
      </trkpt>
      <trkpt lat="44.44749" lon="6.0098">
        <ele>783</ele>
        <time>2007-07-17T17:27:47Z</time>
      </trkpt>
      <trkpt lat="44.4474" lon="6.00986">
        <ele>782</ele>
        <time>2007-07-17T17:27:47Z</time>
      </trkpt>
      <trkpt lat="44.44729" lon="6.00988">
        <ele>784</ele>
        <time>2007-07-17T17:27:47Z</time>
      </trkpt>
      <trkpt lat="44.4472" lon="6.00987">
        <ele>785</ele>
        <time>2007-07-17T17:27:47Z</time>
      </trkpt>
      <trkpt lat="44.44711" lon="6.00987">
        <ele>787</ele>
        <time>2007-07-17T17:27:47Z</time>
      </trkpt>
      <trkpt lat="44.44701" lon="6.00993">
        <ele>788</ele>
        <time>2007-07-17T17:27:47Z</time>
      </trkpt>
      <trkpt lat="44.44692" lon="6.00992">
        <ele>789</ele>
        <time>2007-07-17T17:27:47Z</time>
      </trkpt>
      <trkpt lat="44.44681" lon="6.00998">
        <ele>790</ele>
        <time>2007-07-17T17:27:47Z</time>
      </trkpt>
      <trkpt lat="44.44672" lon="6.01">
        <ele>790</ele>
        <time>2007-07-17T17:27:47Z</time>
      </trkpt>
      <trkpt lat="44.44663" lon="6.01006">
        <ele>792</ele>
        <time>2007-07-17T17:27:47Z</time>
      </trkpt>
      <trkpt lat="44.44654" lon="6.01011">
        <ele>792</ele>
        <time>2007-07-17T17:27:47Z</time>
      </trkpt>
      <trkpt lat="44.44647" lon="6.01017">
        <ele>793</ele>
        <time>2007-07-17T17:27:47Z</time>
      </trkpt>
      <trkpt lat="44.44638" lon="6.0102">
        <ele>794</ele>
        <time>2007-07-17T17:27:47Z</time>
      </trkpt>
      <trkpt lat="44.44628" lon="6.01025">
        <ele>795</ele>
        <time>2007-07-17T17:27:47Z</time>
      </trkpt>
      <trkpt lat="44.44619" lon="6.01031">
        <ele>796</ele>
        <time>2007-07-17T17:27:47Z</time>
      </trkpt>
      <trkpt lat="44.4461" lon="6.01043">
        <ele>796</ele>
        <time>2007-07-17T17:27:47Z</time>
      </trkpt>
      <trkpt lat="44.44607" lon="6.01059">
        <ele>795</ele>
        <time>2007-07-17T17:27:47Z</time>
      </trkpt>
      <trkpt lat="44.44602" lon="6.01071">
        <ele>795</ele>
        <time>2007-07-17T17:27:47Z</time>
      </trkpt>
      <trkpt lat="44.44595" lon="6.0108">
        <ele>797</ele>
        <time>2007-07-17T17:27:47Z</time>
      </trkpt>
      <trkpt lat="44.44591" lon="6.01073">
        <ele>797</ele>
        <time>2007-07-17T17:27:47Z</time>
      </trkpt>
      <trkpt lat="44.44586" lon="6.01086">
        <ele>796</ele>
        <time>2007-07-17T17:27:47Z</time>
      </trkpt>
      <trkpt lat="44.44579" lon="6.01098">
        <ele>797</ele>
        <time>2007-07-17T17:27:47Z</time>
      </trkpt>
      <trkpt lat="44.44572" lon="6.01103">
        <ele>796</ele>
        <time>2007-07-17T17:27:47Z</time>
      </trkpt>
      <trkpt lat="44.44563" lon="6.01109">
        <ele>796</ele>
        <time>2007-07-17T17:27:47Z</time>
      </trkpt>
      <trkpt lat="44.44555" lon="6.01118">
        <ele>795</ele>
        <time>2007-07-17T17:27:47Z</time>
      </trkpt>
      <trkpt lat="44.44548" lon="6.01127">
        <ele>794</ele>
        <time>2007-07-17T17:27:47Z</time>
      </trkpt>
      <trkpt lat="44.44541" lon="6.01133">
        <ele>794</ele>
        <time>2007-07-17T17:27:47Z</time>
      </trkpt>
      <trkpt lat="44.4453" lon="6.01135">
        <ele>795</ele>
        <time>2007-07-17T17:27:47Z</time>
      </trkpt>
      <trkpt lat="44.44519" lon="6.01138">
        <ele>795</ele>
        <time>2007-07-17T17:27:47Z</time>
      </trkpt>
      <trkpt lat="44.4451" lon="6.01137">
        <ele>796</ele>
        <time>2007-07-17T17:27:47Z</time>
      </trkpt>
      <trkpt lat="44.44501" lon="6.01137">
        <ele>796</ele>
        <time>2007-07-17T17:27:47Z</time>
      </trkpt>
      <trkpt lat="44.44494" lon="6.0113">
        <ele>800</ele>
        <time>2007-07-17T17:27:47Z</time>
      </trkpt>
      <trkpt lat="44.44488" lon="6.0112">
        <ele>802</ele>
        <time>2007-07-17T17:27:47Z</time>
      </trkpt>
      <trkpt lat="44.44484" lon="6.01107">
        <ele>803</ele>
        <time>2007-07-17T17:27:47Z</time>
      </trkpt>
      <trkpt lat="44.4448" lon="6.01091">
        <ele>805</ele>
        <time>2007-07-17T17:27:47Z</time>
      </trkpt>
      <trkpt lat="44.44476" lon="6.01075">
        <ele>813</ele>
        <time>2007-07-17T17:27:47Z</time>
      </trkpt>
      <trkpt lat="44.44469" lon="6.01065">
        <ele>813</ele>
        <time>2007-07-17T17:27:47Z</time>
      </trkpt>
      <trkpt lat="44.44461" lon="6.01059">
        <ele>813</ele>
        <time>2007-07-17T17:27:47Z</time>
      </trkpt>
      <trkpt lat="44.44454" lon="6.01052">
        <ele>813</ele>
        <time>2007-07-17T17:27:47Z</time>
      </trkpt>
      <trkpt lat="44.44445" lon="6.01048">
        <ele>813</ele>
        <time>2007-07-17T17:27:47Z</time>
      </trkpt>
      <trkpt lat="44.44439" lon="6.01041">
        <ele>813</ele>
        <time>2007-07-17T17:27:47Z</time>
      </trkpt>
      <trkpt lat="44.44432" lon="6.01032">
        <ele>814</ele>
        <time>2007-07-17T17:27:47Z</time>
      </trkpt>
      <trkpt lat="44.44426" lon="6.01019">
        <ele>815</ele>
        <time>2007-07-17T17:27:47Z</time>
      </trkpt>
      <trkpt lat="44.44422" lon="6.01006">
        <ele>816</ele>
        <time>2007-07-17T17:27:47Z</time>
      </trkpt>
      <trkpt lat="44.44418" lon="6.00996">
        <ele>817</ele>
        <time>2007-07-17T17:27:47Z</time>
      </trkpt>
      <trkpt lat="44.44416" lon="6.0098">
        <ele>816</ele>
        <time>2007-07-17T17:27:47Z</time>
      </trkpt>
      <trkpt lat="44.44414" lon="6.00964">
        <ele>816</ele>
        <time>2007-07-17T17:27:47Z</time>
      </trkpt>
      <trkpt lat="44.44424" lon="6.00952">
        <ele>820</ele>
        <time>2007-07-17T17:27:47Z</time>
      </trkpt>
      <trkpt lat="44.44431" lon="6.00943">
        <ele>820</ele>
        <time>2007-07-17T17:27:47Z</time>
      </trkpt>
      <trkpt lat="44.44436" lon="6.00934">
        <ele>820</ele>
        <time>2007-07-17T17:27:47Z</time>
      </trkpt>
      <trkpt lat="44.44441" lon="6.00919">
        <ele>821</ele>
        <time>2007-07-17T17:27:47Z</time>
      </trkpt>
      <trkpt lat="44.44443" lon="6.00907">
        <ele>822</ele>
        <time>2007-07-17T17:27:47Z</time>
      </trkpt>
      <trkpt lat="44.44448" lon="6.00894">
        <ele>823</ele>
        <time>2007-07-17T17:27:47Z</time>
      </trkpt>
      <trkpt lat="44.44453" lon="6.00885">
        <ele>823</ele>
        <time>2007-07-17T17:27:47Z</time>
      </trkpt>
      <trkpt lat="44.44458" lon="6.00876">
        <ele>823</ele>
        <time>2007-07-17T17:27:47Z</time>
      </trkpt>
      <trkpt lat="44.44465" lon="6.0087">
        <ele>824</ele>
        <time>2007-07-17T17:27:47Z</time>
      </trkpt>
      <trkpt lat="44.44472" lon="6.00864">
        <ele>824</ele>
        <time>2007-07-17T17:27:47Z</time>
      </trkpt>
      <trkpt lat="44.44477" lon="6.00852">
        <ele>825</ele>
        <time>2007-07-17T17:27:47Z</time>
      </trkpt>
      <trkpt lat="44.44481" lon="6.00843">
        <ele>825</ele>
        <time>2007-07-17T17:27:47Z</time>
      </trkpt>
      <trkpt lat="44.44484" lon="6.00831">
        <ele>828</ele>
        <time>2007-07-17T17:27:47Z</time>
      </trkpt>
      <trkpt lat="44.44487" lon="6.00815">
        <ele>829</ele>
        <time>2007-07-17T17:27:47Z</time>
      </trkpt>
      <trkpt lat="44.44492" lon="6.00803">
        <ele>830</ele>
        <time>2007-07-17T17:27:47Z</time>
      </trkpt>
      <trkpt lat="44.44497" lon="6.00794">
        <ele>831</ele>
        <time>2007-07-17T17:27:47Z</time>
      </trkpt>
      <trkpt lat="44.44504" lon="6.00785">
        <ele>833</ele>
        <time>2007-07-17T17:27:47Z</time>
      </trkpt>
      <trkpt lat="44.44511" lon="6.00779">
        <ele>833</ele>
        <time>2007-07-17T17:27:47Z</time>
      </trkpt>
      <trkpt lat="44.44518" lon="6.00773">
        <ele>834</ele>
        <time>2007-07-17T17:27:47Z</time>
      </trkpt>
      <trkpt lat="44.44525" lon="6.00764">
        <ele>834</ele>
        <time>2007-07-17T17:27:47Z</time>
      </trkpt>
      <trkpt lat="44.44532" lon="6.00755">
        <ele>834</ele>
        <time>2007-07-17T17:27:47Z</time>
      </trkpt>
      <trkpt lat="44.44541" lon="6.00753">
        <ele>834</ele>
        <time>2007-07-17T17:27:47Z</time>
      </trkpt>
      <trkpt lat="44.4455" lon="6.0075">
        <ele>834</ele>
        <time>2007-07-17T17:27:47Z</time>
      </trkpt>
      <trkpt lat="44.44561" lon="6.00748">
        <ele>843</ele>
        <time>2007-07-17T17:27:47Z</time>
      </trkpt>
      <trkpt lat="44.44572" lon="6.00745">
        <ele>842</ele>
        <time>2007-07-17T17:27:47Z</time>
      </trkpt>
      <trkpt lat="44.44582" lon="6.00743">
        <ele>841</ele>
        <time>2007-07-17T17:27:47Z</time>
      </trkpt>
      <trkpt lat="44.44582" lon="6.0073">
        <ele>843</ele>
        <time>2007-07-17T17:27:47Z</time>
      </trkpt>
      <trkpt lat="44.44582" lon="6.00718">
        <ele>845</ele>
        <time>2007-07-17T17:27:47Z</time>
      </trkpt>
      <trkpt lat="44.44591" lon="6.00715">
        <ele>845</ele>
        <time>2007-07-17T17:27:47Z</time>
      </trkpt>
      <trkpt lat="44.44603" lon="6.00713">
        <ele>845</ele>
        <time>2007-07-17T17:27:47Z</time>
      </trkpt>
      <trkpt lat="44.4461" lon="6.00707">
        <ele>846</ele>
        <time>2007-07-17T17:27:47Z</time>
      </trkpt>
      <trkpt lat="44.44621" lon="6.00705">
        <ele>845</ele>
        <time>2007-07-17T17:27:47Z</time>
      </trkpt>
      <trkpt lat="44.4463" lon="6.00699">
        <ele>846</ele>
        <time>2007-07-17T17:27:47Z</time>
      </trkpt>
      <trkpt lat="44.44639" lon="6.00693">
        <ele>846</ele>
        <time>2007-07-17T17:27:47Z</time>
      </trkpt>
      <trkpt lat="44.44651" lon="6.00688">
        <ele>847</ele>
        <time>2007-07-17T17:27:47Z</time>
      </trkpt>
      <trkpt lat="44.4466" lon="6.00682">
        <ele>848</ele>
        <time>2007-07-17T17:27:47Z</time>
      </trkpt>
      <trkpt lat="44.44669" lon="6.00673">
        <ele>847</ele>
        <time>2007-07-17T17:27:47Z</time>
      </trkpt>
      <trkpt lat="44.44679" lon="6.00661">
        <ele>849</ele>
        <time>2007-07-17T17:27:47Z</time>
      </trkpt>
      <trkpt lat="44.44688" lon="6.00652">
        <ele>848</ele>
        <time>2007-07-17T17:27:47Z</time>
      </trkpt>
      <trkpt lat="44.44695" lon="6.0064">
        <ele>847</ele>
        <time>2007-07-17T17:27:47Z</time>
      </trkpt>
      <trkpt lat="44.447" lon="6.00628">
        <ele>848</ele>
        <time>2007-07-17T17:27:47Z</time>
      </trkpt>
      <trkpt lat="44.44705" lon="6.00616">
        <ele>848</ele>
        <time>2007-07-17T17:27:47Z</time>
      </trkpt>
      <trkpt lat="44.4471" lon="6.006">
        <ele>849</ele>
        <time>2007-07-17T17:27:47Z</time>
      </trkpt>
      <trkpt lat="44.44715" lon="6.00591">
        <ele>848</ele>
        <time>2007-07-17T17:27:47Z</time>
      </trkpt>
      <trkpt lat="44.44718" lon="6.00579">
        <ele>858</ele>
        <time>2007-07-17T17:27:47Z</time>
      </trkpt>
      <trkpt lat="44.44722" lon="6.00567">
        <ele>859</ele>
        <time>2007-07-17T17:27:47Z</time>
      </trkpt>
      <trkpt lat="44.44725" lon="6.00554">
        <ele>860</ele>
        <time>2007-07-17T17:27:47Z</time>
      </trkpt>
      <trkpt lat="44.44728" lon="6.00542">
        <ele>861</ele>
        <time>2007-07-17T17:27:47Z</time>
      </trkpt>
      <trkpt lat="44.4473" lon="6.00529">
        <ele>862</ele>
        <time>2007-07-17T17:27:47Z</time>
      </trkpt>
      <trkpt lat="44.44731" lon="6.00517">
        <ele>863</ele>
        <time>2007-07-17T17:27:47Z</time>
      </trkpt>
      <trkpt lat="44.44734" lon="6.00505">
        <ele>863</ele>
        <time>2007-07-17T17:27:47Z</time>
      </trkpt>
      <trkpt lat="44.44738" lon="6.00495">
        <ele>869</ele>
        <time>2007-07-17T17:27:47Z</time>
      </trkpt>
      <trkpt lat="44.44743" lon="6.00483">
        <ele>872</ele>
        <time>2007-07-17T17:27:47Z</time>
      </trkpt>
      <trkpt lat="44.4475" lon="6.00474">
        <ele>874</ele>
        <time>2007-07-17T17:27:47Z</time>
      </trkpt>
      <trkpt lat="44.44755" lon="6.00465">
        <ele>860</ele>
        <time>2007-07-17T17:27:47Z</time>
      </trkpt>
      <trkpt lat="44.4476" lon="6.00453">
        <ele>861</ele>
        <time>2007-07-17T17:27:47Z</time>
      </trkpt>
      <trkpt lat="44.44765" lon="6.00437">
        <ele>864</ele>
        <time>2007-07-17T17:27:47Z</time>
      </trkpt>
      <trkpt lat="44.4477" lon="6.00425">
        <ele>866</ele>
        <time>2007-07-17T17:27:47Z</time>
      </trkpt>
      <trkpt lat="44.44773" lon="6.00413">
        <ele>873</ele>
        <time>2007-07-17T17:27:47Z</time>
      </trkpt>
      <trkpt lat="44.44777" lon="6.00404">
        <ele>872</ele>
        <time>2007-07-17T17:27:47Z</time>
      </trkpt>
      <trkpt lat="44.44782" lon="6.00388">
        <ele>871</ele>
        <time>2007-07-17T17:27:47Z</time>
      </trkpt>
      <trkpt lat="44.44785" lon="6.00373">
        <ele>871</ele>
        <time>2007-07-17T17:27:47Z</time>
      </trkpt>
      <trkpt lat="44.44786" lon="6.0036">
        <ele>872</ele>
        <time>2007-07-17T17:27:47Z</time>
      </trkpt>
      <trkpt lat="44.44788" lon="6.00348">
        <ele>873</ele>
        <time>2007-07-17T17:27:47Z</time>
      </trkpt>
      <trkpt lat="44.44793" lon="6.00336">
        <ele>872</ele>
        <time>2007-07-17T17:27:47Z</time>
      </trkpt>
      <trkpt lat="44.44796" lon="6.0032">
        <ele>879</ele>
        <time>2007-07-17T17:27:47Z</time>
      </trkpt>
      <trkpt lat="44.44801" lon="6.00305">
        <ele>879</ele>
        <time>2007-07-17T17:27:47Z</time>
      </trkpt>
      <trkpt lat="44.44806" lon="6.00296">
        <ele>879</ele>
        <time>2007-07-17T17:27:47Z</time>
      </trkpt>
      <trkpt lat="44.44811" lon="6.00283">
        <ele>880</ele>
        <time>2007-07-17T17:27:47Z</time>
      </trkpt>
      <trkpt lat="44.44813" lon="6.00271">
        <ele>880</ele>
        <time>2007-07-17T17:27:47Z</time>
      </trkpt>
      <trkpt lat="44.44818" lon="6.00259">
        <ele>878</ele>
        <time>2007-07-17T17:27:47Z</time>
      </trkpt>
      <trkpt lat="44.44823" lon="6.0024">
        <ele>884</ele>
        <time>2007-07-17T17:27:47Z</time>
      </trkpt>
      <trkpt lat="44.44826" lon="6.00225">
        <ele>889</ele>
        <time>2007-07-17T17:27:47Z</time>
      </trkpt>
      <trkpt lat="44.44831" lon="6.00209">
        <ele>893</ele>
        <time>2007-07-17T17:27:47Z</time>
      </trkpt>
      <trkpt lat="44.44834" lon="6.00197">
        <ele>876</ele>
        <time>2007-07-17T17:27:47Z</time>
      </trkpt>
      <trkpt lat="44.44837" lon="6.00178">
        <ele>883</ele>
        <time>2007-07-17T17:27:47Z</time>
      </trkpt>
      <trkpt lat="44.4484" lon="6.00163">
        <ele>890</ele>
        <time>2007-07-17T17:27:47Z</time>
      </trkpt>
      <trkpt lat="44.44842" lon="6.0015">
        <ele>889</ele>
        <time>2007-07-17T17:27:47Z</time>
      </trkpt>
      <trkpt lat="44.44843" lon="6.00138">
        <ele>890</ele>
        <time>2007-07-17T17:27:47Z</time>
      </trkpt>
      <trkpt lat="44.44845" lon="6.00125">
        <ele>891</ele>
        <time>2007-07-17T17:27:47Z</time>
      </trkpt>
      <trkpt lat="44.44848" lon="6.00113">
        <ele>893</ele>
        <time>2007-07-17T17:27:47Z</time>
      </trkpt>
      <trkpt lat="44.44848" lon="6.001">
        <ele>896</ele>
        <time>2007-07-17T17:27:47Z</time>
      </trkpt>
      <trkpt lat="44.44851" lon="6.00088">
        <ele>898</ele>
        <time>2007-07-17T17:27:47Z</time>
      </trkpt>
      <trkpt lat="44.44851" lon="6.00075">
        <ele>902</ele>
        <time>2007-07-17T17:27:47Z</time>
      </trkpt>
      <trkpt lat="44.44854" lon="6.00063">
        <ele>901</ele>
        <time>2007-07-17T17:27:47Z</time>
      </trkpt>
      <trkpt lat="44.44857" lon="6.00048">
        <ele>899</ele>
        <time>2007-07-17T17:27:47Z</time>
      </trkpt>
      <trkpt lat="44.44857" lon="6.00035">
        <ele>900</ele>
        <time>2007-07-17T17:27:47Z</time>
      </trkpt>
      <trkpt lat="44.44858" lon="6.00022">
        <ele>901</ele>
        <time>2007-07-17T17:27:47Z</time>
      </trkpt>
      <trkpt lat="44.44858" lon="6.0001">
        <ele>902</ele>
        <time>2007-07-17T17:27:47Z</time>
      </trkpt>
      <trkpt lat="44.44856" lon="5.99994">
        <ele>907</ele>
        <time>2007-07-17T17:27:47Z</time>
      </trkpt>
      <trkpt lat="44.44852" lon="5.99984">
        <ele>907</ele>
        <time>2007-07-17T17:27:47Z</time>
      </trkpt>
      <trkpt lat="44.44846" lon="5.99971">
        <ele>907</ele>
        <time>2007-07-17T17:27:47Z</time>
      </trkpt>
      <trkpt lat="44.44844" lon="5.99959">
        <ele>907</ele>
        <time>2007-07-17T17:27:47Z</time>
      </trkpt>
      <trkpt lat="44.44842" lon="5.99943">
        <ele>909</ele>
        <time>2007-07-17T17:27:47Z</time>
      </trkpt>
      <trkpt lat="44.44843" lon="5.9993">
        <ele>912</ele>
        <time>2007-07-17T17:27:47Z</time>
      </trkpt>
      <trkpt lat="44.44843" lon="5.99918">
        <ele>914</ele>
        <time>2007-07-17T17:27:47Z</time>
      </trkpt>
      <trkpt lat="44.44844" lon="5.99905">
        <ele>915</ele>
        <time>2007-07-17T17:27:47Z</time>
      </trkpt>
      <trkpt lat="44.44844" lon="5.99893">
        <ele>914</ele>
        <time>2007-07-17T17:27:47Z</time>
      </trkpt>
      <trkpt lat="44.44844" lon="5.9988">
        <ele>914</ele>
        <time>2007-07-17T17:27:47Z</time>
      </trkpt>
      <trkpt lat="44.44845" lon="5.99868">
        <ele>914</ele>
        <time>2007-07-17T17:27:47Z</time>
      </trkpt>
      <trkpt lat="44.44845" lon="5.99855">
        <ele>916</ele>
        <time>2007-07-17T17:27:47Z</time>
      </trkpt>
      <trkpt lat="44.44841" lon="5.99842">
        <ele>919</ele>
        <time>2007-07-17T17:27:47Z</time>
      </trkpt>
      <trkpt lat="44.44837" lon="5.99833">
        <ele>923</ele>
        <time>2007-07-17T17:27:47Z</time>
      </trkpt>
      <trkpt lat="44.44828" lon="5.99826">
        <ele>929</ele>
        <time>2007-07-17T17:27:47Z</time>
      </trkpt>
      <trkpt lat="44.44822" lon="5.99819">
        <ele>934</ele>
        <time>2007-07-17T17:27:47Z</time>
      </trkpt>
      <trkpt lat="44.44811" lon="5.99812">
        <ele>938</ele>
        <time>2007-07-17T17:27:47Z</time>
      </trkpt>
      <trkpt lat="44.44802" lon="5.99811">
        <ele>940</ele>
        <time>2007-07-17T17:27:47Z</time>
      </trkpt>
      <trkpt lat="44.44795" lon="5.99798">
        <ele>943</ele>
        <time>2007-07-17T17:27:47Z</time>
      </trkpt>
      <trkpt lat="44.44791" lon="5.99786">
        <ele>945</ele>
        <time>2007-07-17T17:27:47Z</time>
      </trkpt>
      <trkpt lat="44.44792" lon="5.99773">
        <ele>945</ele>
        <time>2007-07-17T17:27:47Z</time>
      </trkpt>
      <trkpt lat="44.44792" lon="5.99761">
        <ele>946</ele>
        <time>2007-07-17T17:27:47Z</time>
      </trkpt>
      <trkpt lat="44.44793" lon="5.99748">
        <ele>952</ele>
        <time>2007-07-17T17:27:47Z</time>
      </trkpt>
      <trkpt lat="44.44793" lon="5.99736">
        <ele>953</ele>
        <time>2007-07-17T17:27:47Z</time>
      </trkpt>
      <trkpt lat="44.44796" lon="5.9972">
        <ele>953</ele>
        <time>2007-07-17T17:27:47Z</time>
      </trkpt>
      <trkpt lat="44.44801" lon="5.99711">
        <ele>953</ele>
        <time>2007-07-17T17:27:47Z</time>
      </trkpt>
      <trkpt lat="44.44803" lon="5.99702">
        <ele>953</ele>
        <time>2007-07-17T17:27:47Z</time>
      </trkpt>
      <trkpt lat="44.44806" lon="5.99692">
        <ele>953</ele>
        <time>2007-07-17T17:27:47Z</time>
      </trkpt>
      <trkpt lat="44.44808" lon="5.99683">
        <ele>952</ele>
        <time>2007-07-17T17:27:47Z</time>
      </trkpt>
      <trkpt lat="44.44809" lon="5.99671">
        <ele>952</ele>
        <time>2007-07-17T17:27:47Z</time>
      </trkpt>
      <trkpt lat="44.44809" lon="5.99658">
        <ele>957</ele>
        <time>2007-07-17T17:27:47Z</time>
      </trkpt>
      <trkpt lat="44.4481" lon="5.99645">
        <ele>959</ele>
        <time>2007-07-17T17:27:47Z</time>
      </trkpt>
      <trkpt lat="44.4481" lon="5.99633">
        <ele>960</ele>
        <time>2007-07-17T17:27:47Z</time>
      </trkpt>
      <trkpt lat="44.4481" lon="5.9962">
        <ele>961</ele>
        <time>2007-07-17T17:27:47Z</time>
      </trkpt>
      <trkpt lat="44.44811" lon="5.99608">
        <ele>961</ele>
        <time>2007-07-17T17:27:47Z</time>
      </trkpt>
      <trkpt lat="44.44809" lon="5.99598">
        <ele>961</ele>
        <time>2007-07-17T17:27:47Z</time>
      </trkpt>
      <trkpt lat="44.44805" lon="5.99589">
        <ele>962</ele>
        <time>2007-07-17T17:27:47Z</time>
      </trkpt>
      <trkpt lat="44.448" lon="5.99579">
        <ele>970</ele>
        <time>2007-07-17T17:27:47Z</time>
      </trkpt>
      <trkpt lat="44.44799" lon="5.99569">
        <ele>970</ele>
        <time>2007-07-17T17:27:47Z</time>
      </trkpt>
      <trkpt lat="44.44799" lon="5.99557">
        <ele>971</ele>
        <time>2007-07-17T17:27:47Z</time>
      </trkpt>
      <trkpt lat="44.44799" lon="5.99544">
        <ele>972</ele>
        <time>2007-07-17T17:27:47Z</time>
      </trkpt>
      <trkpt lat="44.448" lon="5.99532">
        <ele>973</ele>
        <time>2007-07-17T17:27:47Z</time>
      </trkpt>
      <trkpt lat="44.44802" lon="5.99522">
        <ele>973</ele>
        <time>2007-07-17T17:27:47Z</time>
      </trkpt>
      <trkpt lat="44.44807" lon="5.9951">
        <ele>972</ele>
        <time>2007-07-17T17:27:47Z</time>
      </trkpt>
      <trkpt lat="44.44812" lon="5.99498">
        <ele>975</ele>
        <time>2007-07-17T17:27:47Z</time>
      </trkpt>
      <trkpt lat="44.44817" lon="5.99489">
        <ele>974</ele>
        <time>2007-07-17T17:27:47Z</time>
      </trkpt>
      <trkpt lat="44.4482" lon="5.9948">
        <ele>975</ele>
        <time>2007-07-17T17:27:47Z</time>
      </trkpt>
      <trkpt lat="44.44824" lon="5.99467">
        <ele>977</ele>
        <time>2007-07-17T17:27:47Z</time>
      </trkpt>
      <trkpt lat="44.44827" lon="5.99455">
        <ele>977</ele>
        <time>2007-07-17T17:27:47Z</time>
      </trkpt>
      <trkpt lat="44.44821" lon="5.99451">
        <ele>978</ele>
        <time>2007-07-17T17:27:47Z</time>
      </trkpt>
      <trkpt lat="44.44812" lon="5.99451">
        <ele>979</ele>
        <time>2007-07-17T17:27:47Z</time>
      </trkpt>
      <trkpt lat="44.44803" lon="5.9945">
        <ele>981</ele>
        <time>2007-07-17T17:27:47Z</time>
      </trkpt>
      <trkpt lat="44.44794" lon="5.9945">
        <ele>983</ele>
        <time>2007-07-17T17:27:47Z</time>
      </trkpt>
      <trkpt lat="44.44787" lon="5.99446">
        <ele>984</ele>
        <time>2007-07-17T17:27:47Z</time>
      </trkpt>
      <trkpt lat="44.4478" lon="5.99442">
        <ele>986</ele>
        <time>2007-07-17T17:27:47Z</time>
      </trkpt>
      <trkpt lat="44.44771" lon="5.99439">
        <ele>988</ele>
        <time>2007-07-17T17:27:47Z</time>
      </trkpt>
      <trkpt lat="44.44765" lon="5.99435">
        <ele>991</ele>
        <time>2007-07-17T17:27:47Z</time>
      </trkpt>
      <trkpt lat="44.44756" lon="5.99438">
        <ele>992</ele>
        <time>2007-07-17T17:27:47Z</time>
      </trkpt>
      <trkpt lat="44.44749" lon="5.9944">
        <ele>1006</ele>
        <time>2007-07-17T17:27:47Z</time>
      </trkpt>
      <trkpt lat="44.4474" lon="5.99446">
        <ele>1007</ele>
        <time>2007-07-17T17:27:47Z</time>
      </trkpt>
      <trkpt lat="44.4473" lon="5.99455">
        <ele>1007</ele>
        <time>2007-07-17T17:27:47Z</time>
      </trkpt>
      <trkpt lat="44.44721" lon="5.99464">
        <ele>1008</ele>
        <time>2007-07-17T17:27:47Z</time>
      </trkpt>
      <trkpt lat="44.44714" lon="5.99466">
        <ele>1008</ele>
        <time>2007-07-17T17:27:47Z</time>
      </trkpt>
      <trkpt lat="44.44707" lon="5.99469">
        <ele>1009</ele>
        <time>2007-07-17T17:27:47Z</time>
      </trkpt>
      <trkpt lat="44.44701" lon="5.99472">
        <ele>1010</ele>
        <time>2007-07-17T17:27:47Z</time>
      </trkpt>
      <trkpt lat="44.44691" lon="5.99474">
        <ele>1011</ele>
        <time>2007-07-17T17:27:47Z</time>
      </trkpt>
      <trkpt lat="44.44685" lon="5.99477">
        <ele>1011</ele>
        <time>2007-07-17T17:27:47Z</time>
      </trkpt>
      <trkpt lat="44.44678" lon="5.9948">
        <ele>1012</ele>
        <time>2007-07-17T17:27:47Z</time>
      </trkpt>
      <trkpt lat="44.44676" lon="5.9947">
        <ele>1012</ele>
        <time>2007-07-17T17:27:47Z</time>
      </trkpt>
      <trkpt lat="44.44676" lon="5.99458">
        <ele>1013</ele>
        <time>2007-07-17T17:27:47Z</time>
      </trkpt>
      <trkpt lat="44.44677" lon="5.99445">
        <ele>1015</ele>
        <time>2007-07-17T17:27:47Z</time>
      </trkpt>
      <trkpt lat="44.44679" lon="5.99436">
        <ele>1016</ele>
        <time>2007-07-17T17:27:47Z</time>
      </trkpt>
      <trkpt lat="44.44684" lon="5.99427">
        <ele>1017</ele>
        <time>2007-07-17T17:27:47Z</time>
      </trkpt>
      <trkpt lat="44.44691" lon="5.99418">
        <ele>1015</ele>
        <time>2007-07-17T17:27:47Z</time>
      </trkpt>
      <trkpt lat="44.44696" lon="5.99406">
        <ele>1017</ele>
        <time>2007-07-17T17:27:47Z</time>
      </trkpt>
      <trkpt lat="44.44699" lon="5.99396">
        <ele>1016</ele>
        <time>2007-07-17T17:27:47Z</time>
      </trkpt>
      <trkpt lat="44.44703" lon="5.99387">
        <ele>1015</ele>
        <time>2007-07-17T17:27:47Z</time>
      </trkpt>
      <trkpt lat="44.44706" lon="5.99378">
        <ele>1015</ele>
        <time>2007-07-17T17:27:47Z</time>
      </trkpt>
      <trkpt lat="44.44708" lon="5.99369">
        <ele>1015</ele>
        <time>2007-07-17T17:27:47Z</time>
      </trkpt>
      <trkpt lat="44.44711" lon="5.99359">
        <ele>1014</ele>
        <time>2007-07-17T17:27:47Z</time>
      </trkpt>
      <trkpt lat="44.44718" lon="5.99347">
        <ele>1013</ele>
        <time>2007-07-17T17:27:47Z</time>
      </trkpt>
      <trkpt lat="44.44721" lon="5.99338">
        <ele>1012</ele>
        <time>2007-07-17T17:27:47Z</time>
      </trkpt>
      <trkpt lat="44.44726" lon="5.99329">
        <ele>1010</ele>
        <time>2007-07-17T17:27:47Z</time>
      </trkpt>
      <trkpt lat="44.4473" lon="5.9932">
        <ele>1010</ele>
        <time>2007-07-17T17:27:47Z</time>
      </trkpt>
      <trkpt lat="44.44733" lon="5.99311">
        <ele>1010</ele>
        <time>2007-07-17T17:27:47Z</time>
      </trkpt>
      <trkpt lat="44.44738" lon="5.99298">
        <ele>1010</ele>
        <time>2007-07-17T17:27:47Z</time>
      </trkpt>
      <trkpt lat="44.44743" lon="5.99289">
        <ele>1009</ele>
        <time>2007-07-17T17:27:47Z</time>
      </trkpt>
      <trkpt lat="44.44745" lon="5.9928">
        <ele>1009</ele>
        <time>2007-07-17T17:27:47Z</time>
      </trkpt>
      <trkpt lat="44.4475" lon="5.99268">
        <ele>1007</ele>
        <time>2007-07-17T17:27:47Z</time>
      </trkpt>
      <trkpt lat="44.44755" lon="5.99259">
        <ele>1001</ele>
        <time>2007-07-17T17:27:47Z</time>
      </trkpt>
      <trkpt lat="44.44758" lon="5.99246">
        <ele>1003</ele>
        <time>2007-07-17T17:27:47Z</time>
      </trkpt>
      <trkpt lat="44.4476" lon="5.99237">
        <ele>1002</ele>
        <time>2007-07-17T17:27:47Z</time>
      </trkpt>
      <trkpt lat="44.44761" lon="5.99224">
        <ele>1002</ele>
        <time>2007-07-17T17:27:47Z</time>
      </trkpt>
      <trkpt lat="44.44761" lon="5.99212">
        <ele>1002</ele>
        <time>2007-07-17T17:27:47Z</time>
      </trkpt>
      <trkpt lat="44.44755" lon="5.99202">
        <ele>1003</ele>
        <time>2007-07-17T17:27:47Z</time>
      </trkpt>
      <trkpt lat="44.44748" lon="5.99192">
        <ele>1008</ele>
        <time>2007-07-17T17:27:47Z</time>
      </trkpt>
      <trkpt lat="44.44746" lon="5.99183">
        <ele>1008</ele>
        <time>2007-07-17T17:27:47Z</time>
      </trkpt>
      <trkpt lat="44.44744" lon="5.99173">
        <ele>1008</ele>
        <time>2007-07-17T17:27:47Z</time>
      </trkpt>
      <trkpt lat="44.44745" lon="5.99161">
        <ele>1010</ele>
        <time>2007-07-17T17:27:47Z</time>
      </trkpt>
      <trkpt lat="44.44745" lon="5.99148">
        <ele>1012</ele>
        <time>2007-07-17T17:27:47Z</time>
      </trkpt>
      <trkpt lat="44.44743" lon="5.99135">
        <ele>1013</ele>
        <time>2007-07-17T17:27:47Z</time>
      </trkpt>
      <trkpt lat="44.44744" lon="5.99123">
        <ele>1015</ele>
        <time>2007-07-17T17:27:47Z</time>
      </trkpt>
      <trkpt lat="44.44746" lon="5.99114">
        <ele>1016</ele>
        <time>2007-07-17T17:27:47Z</time>
      </trkpt>
      <trkpt lat="44.44755" lon="5.99114">
        <ele>1016</ele>
        <time>2007-07-17T17:27:47Z</time>
      </trkpt>
      <trkpt lat="44.44762" lon="5.99118">
        <ele>1015</ele>
        <time>2007-07-17T17:27:47Z</time>
      </trkpt>
      <trkpt lat="44.44768" lon="5.99121">
        <ele>1015</ele>
        <time>2007-07-17T17:27:47Z</time>
      </trkpt>
      <trkpt lat="44.44775" lon="5.99125">
        <ele>1014</ele>
        <time>2007-07-17T17:27:47Z</time>
      </trkpt>
      <trkpt lat="44.44784" lon="5.99125">
        <ele>1014</ele>
        <time>2007-07-17T17:27:47Z</time>
      </trkpt>
      <trkpt lat="44.44793" lon="5.99126">
        <ele>1014</ele>
        <time>2007-07-17T17:27:47Z</time>
      </trkpt>
      <trkpt lat="44.44802" lon="5.99127">
        <ele>1013</ele>
        <time>2007-07-17T17:27:47Z</time>
      </trkpt>
      <trkpt lat="44.44809" lon="5.99124">
        <ele>1013</ele>
        <time>2007-07-17T17:27:47Z</time>
      </trkpt>
      <trkpt lat="44.44816" lon="5.99121">
        <ele>1014</ele>
        <time>2007-07-17T17:27:47Z</time>
      </trkpt>
      <trkpt lat="44.44825" lon="5.99119">
        <ele>1014</ele>
        <time>2007-07-17T17:27:47Z</time>
      </trkpt>
      <trkpt lat="44.44832" lon="5.99113">
        <ele>1015</ele>
        <time>2007-07-17T17:27:47Z</time>
      </trkpt>
      <trkpt lat="44.44839" lon="5.99107">
        <ele>1013</ele>
        <time>2007-07-17T17:27:47Z</time>
      </trkpt>
      <trkpt lat="44.44846" lon="5.99104">
        <ele>1013</ele>
        <time>2007-07-17T17:27:47Z</time>
      </trkpt>
      <trkpt lat="44.44852" lon="5.99102">
        <ele>1013</ele>
        <time>2007-07-17T17:27:47Z</time>
      </trkpt>
      <trkpt lat="44.44859" lon="5.99099">
        <ele>1012</ele>
        <time>2007-07-17T17:27:47Z</time>
      </trkpt>
      <trkpt lat="44.44866" lon="5.99096">
        <ele>1012</ele>
        <time>2007-07-17T17:27:47Z</time>
      </trkpt>
      <trkpt lat="44.44873" lon="5.99093">
        <ele>1011</ele>
        <time>2007-07-17T17:27:47Z</time>
      </trkpt>
      <trkpt lat="44.4488" lon="5.99091">
        <ele>1011</ele>
        <time>2007-07-17T17:27:47Z</time>
      </trkpt>
      <trkpt lat="44.44887" lon="5.99088">
        <ele>1010</ele>
        <time>2007-07-17T17:27:47Z</time>
      </trkpt>
      <trkpt lat="44.44896" lon="5.99089">
        <ele>1010</ele>
        <time>2007-07-17T17:27:47Z</time>
      </trkpt>
      <trkpt lat="44.44905" lon="5.99089">
        <ele>1011</ele>
        <time>2007-07-17T17:27:47Z</time>
      </trkpt>
      <trkpt lat="44.44914" lon="5.9909">
        <ele>1011</ele>
        <time>2007-07-17T17:27:47Z</time>
      </trkpt>
      <trkpt lat="44.4492" lon="5.991">
        <ele>1006</ele>
        <time>2007-07-17T17:27:47Z</time>
      </trkpt>
      <trkpt lat="44.44926" lon="5.9911">
        <ele>1003</ele>
        <time>2007-07-17T17:27:47Z</time>
      </trkpt>
      <trkpt lat="44.44931" lon="5.99119">
        <ele>1002</ele>
        <time>2007-07-17T17:27:47Z</time>
      </trkpt>
      <trkpt lat="44.44939" lon="5.99126">
        <ele>1001</ele>
        <time>2007-07-17T17:27:47Z</time>
      </trkpt>
      <trkpt lat="44.44946" lon="5.9913">
        <ele>1000</ele>
        <time>2007-07-17T17:27:47Z</time>
      </trkpt>
      <trkpt lat="44.44955" lon="5.9913">
        <ele>999</ele>
        <time>2007-07-17T17:27:47Z</time>
      </trkpt>
      <trkpt lat="44.44964" lon="5.99131">
        <ele>999</ele>
        <time>2007-07-17T17:27:47Z</time>
      </trkpt>
      <trkpt lat="44.44973" lon="5.99131">
        <ele>998</ele>
        <time>2007-07-17T17:27:47Z</time>
      </trkpt>
      <trkpt lat="44.44982" lon="5.99132">
        <ele>998</ele>
        <time>2007-07-17T17:27:47Z</time>
      </trkpt>
      <trkpt lat="44.44991" lon="5.99133">
        <ele>997</ele>
        <time>2007-07-17T17:27:47Z</time>
      </trkpt>
      <trkpt lat="44.45" lon="5.99133">
        <ele>994</ele>
        <time>2007-07-17T17:27:47Z</time>
      </trkpt>
      <trkpt lat="44.45009" lon="5.99134">
        <ele>994</ele>
        <time>2007-07-17T17:27:47Z</time>
      </trkpt>
      <trkpt lat="44.45018" lon="5.99134">
        <ele>994</ele>
        <time>2007-07-17T17:27:47Z</time>
      </trkpt>
      <trkpt lat="44.45027" lon="5.99138">
        <ele>993</ele>
        <time>2007-07-17T17:27:47Z</time>
      </trkpt>
      <trkpt lat="44.45033" lon="5.99148">
        <ele>993</ele>
        <time>2007-07-17T17:27:47Z</time>
      </trkpt>
      <trkpt lat="44.45042" lon="5.99158">
        <ele>992</ele>
        <time>2007-07-17T17:27:47Z</time>
      </trkpt>
      <trkpt lat="44.45048" lon="5.99168">
        <ele>983</ele>
        <time>2007-07-17T17:27:47Z</time>
      </trkpt>
      <trkpt lat="44.45055" lon="5.99174">
        <ele>983</ele>
        <time>2007-07-17T17:27:47Z</time>
      </trkpt>
      <trkpt lat="44.45061" lon="5.99184">
        <ele>983</ele>
        <time>2007-07-17T17:27:47Z</time>
      </trkpt>
      <trkpt lat="44.45068" lon="5.99191">
        <ele>982</ele>
        <time>2007-07-17T17:27:47Z</time>
      </trkpt>
      <trkpt lat="44.45072" lon="5.99188">
        <ele>983</ele>
        <time>2007-07-17T17:27:47Z</time>
      </trkpt>
      <trkpt lat="44.45077" lon="5.99179">
        <ele>984</ele>
        <time>2007-07-17T17:27:47Z</time>
      </trkpt>
      <trkpt lat="44.45084" lon="5.99173">
        <ele>985</ele>
        <time>2007-07-17T17:27:47Z</time>
      </trkpt>
      <trkpt lat="44.45091" lon="5.99167">
        <ele>985</ele>
        <time>2007-07-17T17:27:47Z</time>
      </trkpt>
      <trkpt lat="44.451" lon="5.99162">
        <ele>989</ele>
        <time>2007-07-17T17:27:47Z</time>
      </trkpt>
      <trkpt lat="44.45112" lon="5.99156">
        <ele>989</ele>
        <time>2007-07-17T17:27:47Z</time>
      </trkpt>
      <trkpt lat="44.45119" lon="5.99153">
        <ele>989</ele>
        <time>2007-07-17T17:27:47Z</time>
      </trkpt>
      <trkpt lat="44.45128" lon="5.99148">
        <ele>989</ele>
        <time>2007-07-17T17:27:47Z</time>
      </trkpt>
      <trkpt lat="44.45135" lon="5.99142">
        <ele>989</ele>
        <time>2007-07-17T17:27:47Z</time>
      </trkpt>
      <trkpt lat="44.45142" lon="5.99133">
        <ele>989</ele>
        <time>2007-07-17T17:27:47Z</time>
      </trkpt>
      <trkpt lat="44.45149" lon="5.99124">
        <ele>990</ele>
        <time>2007-07-17T17:27:47Z</time>
      </trkpt>
      <trkpt lat="44.45154" lon="5.99115">
        <ele>990</ele>
        <time>2007-07-17T17:27:47Z</time>
      </trkpt>
      <trkpt lat="44.45161" lon="5.99106">
        <ele>991</ele>
        <time>2007-07-17T17:27:47Z</time>
      </trkpt>
      <trkpt lat="44.45165" lon="5.99097">
        <ele>991</ele>
        <time>2007-07-17T17:27:47Z</time>
      </trkpt>
      <trkpt lat="44.45168" lon="5.99087">
        <ele>990</ele>
        <time>2007-07-17T17:27:47Z</time>
      </trkpt>
      <trkpt lat="44.45168" lon="5.99075">
        <ele>993</ele>
        <time>2007-07-17T17:27:47Z</time>
      </trkpt>
      <trkpt lat="44.45169" lon="5.99062">
        <ele>994</ele>
        <time>2007-07-17T17:27:47Z</time>
      </trkpt>
      <trkpt lat="44.45171" lon="5.9905">
        <ele>996</ele>
        <time>2007-07-17T17:27:47Z</time>
      </trkpt>
      <trkpt lat="44.45172" lon="5.99034">
        <ele>998</ele>
        <time>2007-07-17T17:27:47Z</time>
      </trkpt>
      <trkpt lat="44.45175" lon="5.99025">
        <ele>1000</ele>
        <time>2007-07-17T17:27:47Z</time>
      </trkpt>
      <trkpt lat="44.45182" lon="5.99019">
        <ele>1000</ele>
        <time>2007-07-17T17:27:47Z</time>
      </trkpt>
      <trkpt lat="44.45186" lon="5.9901">
        <ele>1001</ele>
        <time>2007-07-17T17:27:47Z</time>
      </trkpt>
      <trkpt lat="44.45196" lon="5.99004">
        <ele>1000</ele>
        <time>2007-07-17T17:27:47Z</time>
      </trkpt>
      <trkpt lat="44.45205" lon="5.99002">
        <ele>999</ele>
        <time>2007-07-17T17:27:47Z</time>
      </trkpt>
      <trkpt lat="44.45214" lon="5.99002">
        <ele>998</ele>
        <time>2007-07-17T17:27:47Z</time>
      </trkpt>
      <trkpt lat="44.4522" lon="5.99">
        <ele>998</ele>
        <time>2007-07-17T17:27:47Z</time>
      </trkpt>
      <trkpt lat="44.45229" lon="5.99">
        <ele>998</ele>
        <time>2007-07-17T17:27:47Z</time>
      </trkpt>
      <trkpt lat="44.45238" lon="5.99001">
        <ele>998</ele>
        <time>2007-07-17T17:27:47Z</time>
      </trkpt>
      <trkpt lat="44.45247" lon="5.98998">
        <ele>1002</ele>
        <time>2007-07-17T17:27:47Z</time>
      </trkpt>
      <trkpt lat="44.45259" lon="5.98993">
        <ele>1004</ele>
        <time>2007-07-17T17:27:47Z</time>
      </trkpt>
      <trkpt lat="44.45268" lon="5.98987">
        <ele>1007</ele>
        <time>2007-07-17T17:27:47Z</time>
      </trkpt>
      <trkpt lat="44.45277" lon="5.98985">
        <ele>1008</ele>
        <time>2007-07-17T17:27:47Z</time>
      </trkpt>
      <trkpt lat="44.45286" lon="5.98982">
        <ele>1009</ele>
        <time>2007-07-17T17:27:47Z</time>
      </trkpt>
      <trkpt lat="44.45293" lon="5.98979">
        <ele>1009</ele>
        <time>2007-07-17T17:27:47Z</time>
      </trkpt>
      <trkpt lat="44.45302" lon="5.98977">
        <ele>1010</ele>
        <time>2007-07-17T17:27:47Z</time>
      </trkpt>
      <trkpt lat="44.45309" lon="5.98971">
        <ele>1010</ele>
        <time>2007-07-17T17:27:47Z</time>
      </trkpt>
      <trkpt lat="44.45318" lon="5.98968">
        <ele>1010</ele>
        <time>2007-07-17T17:27:47Z</time>
      </trkpt>
      <trkpt lat="44.45327" lon="5.98963">
        <ele>1011</ele>
        <time>2007-07-17T17:27:47Z</time>
      </trkpt>
      <trkpt lat="44.45334" lon="5.98957">
        <ele>1013</ele>
        <time>2007-07-17T17:27:47Z</time>
      </trkpt>
      <trkpt lat="44.45341" lon="5.98951">
        <ele>1013</ele>
        <time>2007-07-17T17:27:47Z</time>
      </trkpt>
      <trkpt lat="44.45351" lon="5.98945">
        <ele>1014</ele>
        <time>2007-07-17T17:27:47Z</time>
      </trkpt>
      <trkpt lat="44.45357" lon="5.9894">
        <ele>1014</ele>
        <time>2007-07-17T17:27:47Z</time>
      </trkpt>
      <trkpt lat="44.45367" lon="5.98934">
        <ele>1014</ele>
        <time>2007-07-17T17:27:47Z</time>
      </trkpt>
      <trkpt lat="44.45376" lon="5.98928">
        <ele>1015</ele>
        <time>2007-07-17T17:27:47Z</time>
      </trkpt>
      <trkpt lat="44.45378" lon="5.98941">
        <ele>1015</ele>
        <time>2007-07-17T17:27:47Z</time>
      </trkpt>
      <trkpt lat="44.45377" lon="5.98953">
        <ele>1014</ele>
        <time>2007-07-17T17:27:47Z</time>
      </trkpt>
      <trkpt lat="44.45375" lon="5.98966">
        <ele>1014</ele>
        <time>2007-07-17T17:27:47Z</time>
      </trkpt>
      <trkpt lat="44.45372" lon="5.98975">
        <ele>1013</ele>
        <time>2007-07-17T17:27:47Z</time>
      </trkpt>
      <trkpt lat="44.45367" lon="5.98987">
        <ele>1012</ele>
        <time>2007-07-17T17:27:47Z</time>
      </trkpt>
      <trkpt lat="44.45362" lon="5.98996">
        <ele>1011</ele>
        <time>2007-07-17T17:27:47Z</time>
      </trkpt>
      <trkpt lat="44.45355" lon="5.99005">
        <ele>1007</ele>
        <time>2007-07-17T17:27:47Z</time>
      </trkpt>
      <trkpt lat="44.45353" lon="5.99015">
        <ele>1007</ele>
        <time>2007-07-17T17:27:47Z</time>
      </trkpt>
      <trkpt lat="44.45352" lon="5.99027">
        <ele>1007</ele>
        <time>2007-07-17T17:27:47Z</time>
      </trkpt>
      <trkpt lat="44.45352" lon="5.9904">
        <ele>1007</ele>
        <time>2007-07-17T17:27:47Z</time>
      </trkpt>
      <trkpt lat="44.45351" lon="5.99052">
        <ele>1006</ele>
        <time>2007-07-17T17:27:47Z</time>
      </trkpt>
      <trkpt lat="44.45351" lon="5.99065">
        <ele>1004</ele>
        <time>2007-07-17T17:27:47Z</time>
      </trkpt>
      <trkpt lat="44.45351" lon="5.99077">
        <ele>1003</ele>
        <time>2007-07-17T17:27:47Z</time>
      </trkpt>
      <trkpt lat="44.45353" lon="5.99087">
        <ele>998</ele>
        <time>2007-07-17T17:27:47Z</time>
      </trkpt>
      <trkpt lat="44.45359" lon="5.99097">
        <ele>998</ele>
        <time>2007-07-17T17:27:47Z</time>
      </trkpt>
      <trkpt lat="44.45366" lon="5.99103">
        <ele>999</ele>
        <time>2007-07-17T17:27:47Z</time>
      </trkpt>
      <trkpt lat="44.45374" lon="5.99107">
        <ele>999</ele>
        <time>2007-07-17T17:27:47Z</time>
      </trkpt>
      <trkpt lat="44.45381" lon="5.99111">
        <ele>1000</ele>
        <time>2007-07-17T17:27:47Z</time>
      </trkpt>
      <trkpt lat="44.4539" lon="5.99111">
        <ele>1001</ele>
        <time>2007-07-17T17:27:47Z</time>
      </trkpt>
      <trkpt lat="44.45399" lon="5.99112">
        <ele>1002</ele>
        <time>2007-07-17T17:27:47Z</time>
      </trkpt>
      <trkpt lat="44.45408" lon="5.99113">
        <ele>1003</ele>
        <time>2007-07-17T17:27:47Z</time>
      </trkpt>
      <trkpt lat="44.45414" lon="5.99119">
        <ele>1002</ele>
        <time>2007-07-17T17:27:47Z</time>
      </trkpt>
      <trkpt lat="44.45421" lon="5.99126">
        <ele>1009</ele>
        <time>2007-07-17T17:27:47Z</time>
      </trkpt>
      <trkpt lat="44.45428" lon="5.99133">
        <ele>1008</ele>
        <time>2007-07-17T17:27:47Z</time>
      </trkpt>
      <trkpt lat="44.45434" lon="5.99142">
        <ele>1007</ele>
        <time>2007-07-17T17:27:47Z</time>
      </trkpt>
      <trkpt lat="44.45441" lon="5.99149">
        <ele>1007</ele>
        <time>2007-07-17T17:27:47Z</time>
      </trkpt>
      <trkpt lat="44.45449" lon="5.99162">
        <ele>1007</ele>
        <time>2007-07-17T17:27:47Z</time>
      </trkpt>
      <trkpt lat="44.45456" lon="5.99169">
        <ele>998</ele>
        <time>2007-07-17T17:27:47Z</time>
      </trkpt>
      <trkpt lat="44.4546" lon="5.99182">
        <ele>998</ele>
        <time>2007-07-17T17:27:47Z</time>
      </trkpt>
      <trkpt lat="44.45464" lon="5.99192">
        <ele>998</ele>
        <time>2007-07-17T17:27:47Z</time>
      </trkpt>
      <trkpt lat="44.4547" lon="5.99201">
        <ele>997</ele>
        <time>2007-07-17T17:27:47Z</time>
      </trkpt>
      <trkpt lat="44.45474" lon="5.99211">
        <ele>997</ele>
        <time>2007-07-17T17:27:47Z</time>
      </trkpt>
      <trkpt lat="44.45481" lon="5.99215">
        <ele>997</ele>
        <time>2007-07-17T17:27:47Z</time>
      </trkpt>
      <trkpt lat="44.45485" lon="5.99224">
        <ele>996</ele>
        <time>2007-07-17T17:27:47Z</time>
      </trkpt>
      <trkpt lat="44.45489" lon="5.99234">
        <ele>996</ele>
        <time>2007-07-17T17:27:47Z</time>
      </trkpt>
      <trkpt lat="44.45496" lon="5.99247">
        <ele>997</ele>
        <time>2007-07-17T17:27:47Z</time>
      </trkpt>
      <trkpt lat="44.45502" lon="5.99257">
        <ele>994</ele>
        <time>2007-07-17T17:27:47Z</time>
      </trkpt>
      <trkpt lat="44.45506" lon="5.9927">
        <ele>991</ele>
        <time>2007-07-17T17:27:47Z</time>
      </trkpt>
      <trkpt lat="44.45513" lon="5.9928">
        <ele>989</ele>
        <time>2007-07-17T17:27:47Z</time>
      </trkpt>
      <trkpt lat="44.45519" lon="5.99286">
        <ele>988</ele>
        <time>2007-07-17T17:27:47Z</time>
      </trkpt>
      <trkpt lat="44.45526" lon="5.99293">
        <ele>987</ele>
        <time>2007-07-17T17:27:47Z</time>
      </trkpt>
      <trkpt lat="44.45532" lon="5.99303">
        <ele>986</ele>
        <time>2007-07-17T17:27:47Z</time>
      </trkpt>
      <trkpt lat="44.45539" lon="5.99306">
        <ele>985</ele>
        <time>2007-07-17T17:27:47Z</time>
      </trkpt>
      <trkpt lat="44.45548" lon="5.9931">
        <ele>984</ele>
        <time>2007-07-17T17:27:47Z</time>
      </trkpt>
      <trkpt lat="44.45554" lon="5.99317">
        <ele>984</ele>
        <time>2007-07-17T17:27:47Z</time>
      </trkpt>
      <trkpt lat="44.45561" lon="5.9932">
        <ele>983</ele>
        <time>2007-07-17T17:27:47Z</time>
      </trkpt>
      <trkpt lat="44.4557" lon="5.99324">
        <ele>981</ele>
        <time>2007-07-17T17:27:47Z</time>
      </trkpt>
      <trkpt lat="44.45579" lon="5.99325">
        <ele>980</ele>
        <time>2007-07-17T17:27:47Z</time>
      </trkpt>
      <trkpt lat="44.45588" lon="5.99325">
        <ele>975</ele>
        <time>2007-07-17T17:27:47Z</time>
      </trkpt>
      <trkpt lat="44.45597" lon="5.99326">
        <ele>973</ele>
        <time>2007-07-17T17:27:47Z</time>
      </trkpt>
      <trkpt lat="44.45606" lon="5.99326">
        <ele>972</ele>
        <time>2007-07-17T17:27:47Z</time>
      </trkpt>
      <trkpt lat="44.45615" lon="5.99327">
        <ele>970</ele>
        <time>2007-07-17T17:27:47Z</time>
      </trkpt>
      <trkpt lat="44.45624" lon="5.99328">
        <ele>968</ele>
        <time>2007-07-17T17:27:47Z</time>
      </trkpt>
      <trkpt lat="44.45631" lon="5.99319">
        <ele>967</ele>
        <time>2007-07-17T17:27:47Z</time>
      </trkpt>
      <trkpt lat="44.45638" lon="5.99316">
        <ele>966</ele>
        <time>2007-07-17T17:27:47Z</time>
      </trkpt>
      <trkpt lat="44.45645" lon="5.99307">
        <ele>966</ele>
        <time>2007-07-17T17:27:47Z</time>
      </trkpt>
      <trkpt lat="44.45652" lon="5.99298">
        <ele>966</ele>
        <time>2007-07-17T17:27:47Z</time>
      </trkpt>
      <trkpt lat="44.45657" lon="5.99286">
        <ele>966</ele>
        <time>2007-07-17T17:27:47Z</time>
      </trkpt>
      <trkpt lat="44.45663" lon="5.9928">
        <ele>965</ele>
        <time>2007-07-17T17:27:47Z</time>
      </trkpt>
      <trkpt lat="44.45671" lon="5.99271">
        <ele>954</ele>
        <time>2007-07-17T17:27:47Z</time>
      </trkpt>
      <trkpt lat="44.4568" lon="5.99268">
        <ele>953</ele>
        <time>2007-07-17T17:27:47Z</time>
      </trkpt>
      <trkpt lat="44.45689" lon="5.99266">
        <ele>952</ele>
        <time>2007-07-17T17:27:47Z</time>
      </trkpt>
      <trkpt lat="44.45698" lon="5.99266">
        <ele>951</ele>
        <time>2007-07-17T17:27:47Z</time>
      </trkpt>
      <trkpt lat="44.45707" lon="5.99267">
        <ele>949</ele>
        <time>2007-07-17T17:27:47Z</time>
      </trkpt>
      <trkpt lat="44.45716" lon="5.99268">
        <ele>948</ele>
        <time>2007-07-17T17:27:47Z</time>
      </trkpt>
      <trkpt lat="44.45722" lon="5.99274">
        <ele>947</ele>
        <time>2007-07-17T17:27:47Z</time>
      </trkpt>
      <trkpt lat="44.45729" lon="5.99284">
        <ele>946</ele>
        <time>2007-07-17T17:27:47Z</time>
      </trkpt>
      <trkpt lat="44.45731" lon="5.99294">
        <ele>946</ele>
        <time>2007-07-17T17:27:47Z</time>
      </trkpt>
      <trkpt lat="44.45735" lon="5.99303">
        <ele>945</ele>
        <time>2007-07-17T17:27:47Z</time>
      </trkpt>
      <trkpt lat="44.45739" lon="5.99313">
        <ele>944</ele>
        <time>2007-07-17T17:27:47Z</time>
      </trkpt>
      <trkpt lat="44.45743" lon="5.99326">
        <ele>941</ele>
        <time>2007-07-17T17:27:47Z</time>
      </trkpt>
      <trkpt lat="44.45749" lon="5.99333">
        <ele>937</ele>
        <time>2007-07-17T17:27:47Z</time>
      </trkpt>
      <trkpt lat="44.45756" lon="5.99343">
        <ele>932</ele>
        <time>2007-07-17T17:27:47Z</time>
      </trkpt>
      <trkpt lat="44.45765" lon="5.99349">
        <ele>928</ele>
        <time>2007-07-17T17:27:47Z</time>
      </trkpt>
      <trkpt lat="44.45771" lon="5.99356">
        <ele>926</ele>
        <time>2007-07-17T17:27:47Z</time>
      </trkpt>
      <trkpt lat="44.4578" lon="5.99357">
        <ele>925</ele>
        <time>2007-07-17T17:27:47Z</time>
      </trkpt>
      <trkpt lat="44.45787" lon="5.9936">
        <ele>924</ele>
        <time>2007-07-17T17:27:47Z</time>
      </trkpt>
      <trkpt lat="44.45796" lon="5.99361">
        <ele>923</ele>
        <time>2007-07-17T17:27:47Z</time>
      </trkpt>
      <trkpt lat="44.45805" lon="5.99361">
        <ele>922</ele>
        <time>2007-07-17T17:27:47Z</time>
      </trkpt>
      <trkpt lat="44.45814" lon="5.99362">
        <ele>921</ele>
        <time>2007-07-17T17:27:47Z</time>
      </trkpt>
      <trkpt lat="44.45823" lon="5.99363">
        <ele>921</ele>
        <time>2007-07-17T17:27:47Z</time>
      </trkpt>
      <trkpt lat="44.45829" lon="5.99366">
        <ele>920</ele>
        <time>2007-07-17T17:27:47Z</time>
      </trkpt>
      <trkpt lat="44.45836" lon="5.99373">
        <ele>913</ele>
        <time>2007-07-17T17:27:47Z</time>
      </trkpt>
      <trkpt lat="44.45842" lon="5.99383">
        <ele>912</ele>
        <time>2007-07-17T17:27:47Z</time>
      </trkpt>
      <trkpt lat="44.45849" lon="5.99393">
        <ele>911</ele>
        <time>2007-07-17T17:27:47Z</time>
      </trkpt>
      <trkpt lat="44.45855" lon="5.99396">
        <ele>911</ele>
        <time>2007-07-17T17:27:47Z</time>
      </trkpt>
      <trkpt lat="44.45867" lon="5.99397">
        <ele>910</ele>
        <time>2007-07-17T17:27:47Z</time>
      </trkpt>
      <trkpt lat="44.45876" lon="5.99397">
        <ele>910</ele>
        <time>2007-07-17T17:27:47Z</time>
      </trkpt>
      <trkpt lat="44.45885" lon="5.99398">
        <ele>910</ele>
        <time>2007-07-17T17:27:47Z</time>
      </trkpt>
      <trkpt lat="44.45893" lon="5.99402">
        <ele>909</ele>
        <time>2007-07-17T17:27:47Z</time>
      </trkpt>
      <trkpt lat="44.459" lon="5.99405">
        <ele>908</ele>
        <time>2007-07-17T17:27:47Z</time>
      </trkpt>
      <trkpt lat="44.45909" lon="5.99409">
        <ele>907</ele>
        <time>2007-07-17T17:27:47Z</time>
      </trkpt>
      <trkpt lat="44.45916" lon="5.99413">
        <ele>906</ele>
        <time>2007-07-17T17:27:47Z</time>
      </trkpt>
      <trkpt lat="44.45922" lon="5.99416">
        <ele>905</ele>
        <time>2007-07-17T17:27:47Z</time>
      </trkpt>
      <trkpt lat="44.45931" lon="5.99423">
        <ele>902</ele>
        <time>2007-07-17T17:27:47Z</time>
      </trkpt>
      <trkpt lat="44.45938" lon="5.9943">
        <ele>901</ele>
        <time>2007-07-17T17:27:47Z</time>
      </trkpt>
      <trkpt lat="44.45944" lon="5.99433">
        <ele>900</ele>
        <time>2007-07-17T17:27:47Z</time>
      </trkpt>
      <trkpt lat="44.45953" lon="5.9944">
        <ele>900</ele>
        <time>2007-07-17T17:27:47Z</time>
      </trkpt>
      <trkpt lat="44.45959" lon="5.9945">
        <ele>899</ele>
        <time>2007-07-17T17:27:47Z</time>
      </trkpt>
      <trkpt lat="44.45961" lon="5.9946">
        <ele>899</ele>
        <time>2007-07-17T17:27:47Z</time>
      </trkpt>
      <trkpt lat="44.45963" lon="5.99469">
        <ele>899</ele>
        <time>2007-07-17T17:27:47Z</time>
      </trkpt>
      <trkpt lat="44.45967" lon="5.99479">
        <ele>898</ele>
        <time>2007-07-17T17:27:47Z</time>
      </trkpt>
      <trkpt lat="44.45972" lon="5.99489">
        <ele>898</ele>
        <time>2007-07-17T17:27:47Z</time>
      </trkpt>
      <trkpt lat="44.45974" lon="5.99498">
        <ele>898</ele>
        <time>2007-07-17T17:27:47Z</time>
      </trkpt>
      <trkpt lat="44.45975" lon="5.99508">
        <ele>894</ele>
        <time>2007-07-17T17:27:47Z</time>
      </trkpt>
      <trkpt lat="44.45982" lon="5.99517">
        <ele>894</ele>
        <time>2007-07-17T17:27:47Z</time>
      </trkpt>
      <trkpt lat="44.45991" lon="5.99524">
        <ele>894</ele>
        <time>2007-07-17T17:27:47Z</time>
      </trkpt>
      <trkpt lat="44.46" lon="5.99525">
        <ele>891</ele>
        <time>2007-07-17T17:27:47Z</time>
      </trkpt>
      <trkpt lat="44.46009" lon="5.99525">
        <ele>891</ele>
        <time>2007-07-17T17:27:47Z</time>
      </trkpt>
      <trkpt lat="44.46018" lon="5.99526">
        <ele>890</ele>
        <time>2007-07-17T17:27:47Z</time>
      </trkpt>
      <trkpt lat="44.46025" lon="5.99517">
        <ele>890</ele>
        <time>2007-07-17T17:27:47Z</time>
      </trkpt>
      <trkpt lat="44.46032" lon="5.99508">
        <ele>890</ele>
        <time>2007-07-17T17:27:47Z</time>
      </trkpt>
      <trkpt lat="44.46034" lon="5.99499">
        <ele>893</ele>
        <time>2007-07-17T17:27:47Z</time>
      </trkpt>
      <trkpt lat="44.46037" lon="5.9949">
        <ele>892</ele>
        <time>2007-07-17T17:27:47Z</time>
      </trkpt>
      <trkpt lat="44.46037" lon="5.99477">
        <ele>892</ele>
        <time>2007-07-17T17:27:47Z</time>
      </trkpt>
      <trkpt lat="44.46044" lon="5.99468">
        <ele>892</ele>
        <time>2007-07-17T17:27:47Z</time>
      </trkpt>
      <trkpt lat="44.46047" lon="5.99459">
        <ele>892</ele>
        <time>2007-07-17T17:27:47Z</time>
      </trkpt>
      <trkpt lat="44.46056" lon="5.99453">
        <ele>891</ele>
        <time>2007-07-17T17:27:47Z</time>
      </trkpt>
      <trkpt lat="44.46065" lon="5.99454">
        <ele>891</ele>
        <time>2007-07-17T17:27:47Z</time>
      </trkpt>
      <trkpt lat="44.46072" lon="5.9946">
        <ele>891</ele>
        <time>2007-07-17T17:27:47Z</time>
      </trkpt>
      <trkpt lat="44.46078" lon="5.99464">
        <ele>890</ele>
        <time>2007-07-17T17:27:47Z</time>
      </trkpt>
      <trkpt lat="44.46085" lon="5.99474">
        <ele>879</ele>
        <time>2007-07-17T17:27:47Z</time>
      </trkpt>
      <trkpt lat="44.46091" lon="5.99484">
        <ele>880</ele>
        <time>2007-07-17T17:27:47Z</time>
      </trkpt>
      <trkpt lat="44.46095" lon="5.99493">
        <ele>881</ele>
        <time>2007-07-17T17:27:47Z</time>
      </trkpt>
      <trkpt lat="44.46097" lon="5.99503">
        <ele>879</ele>
        <time>2007-07-17T17:27:47Z</time>
      </trkpt>
      <trkpt lat="44.46099" lon="5.99513">
        <ele>877</ele>
        <time>2007-07-17T17:27:47Z</time>
      </trkpt>
      <trkpt lat="44.46099" lon="5.99525">
        <ele>874</ele>
        <time>2007-07-17T17:27:47Z</time>
      </trkpt>
      <trkpt lat="44.46098" lon="5.99538">
        <ele>873</ele>
        <time>2007-07-17T17:27:47Z</time>
      </trkpt>
      <trkpt lat="44.46098" lon="5.9955">
        <ele>873</ele>
        <time>2007-07-17T17:27:47Z</time>
      </trkpt>
      <trkpt lat="44.46091" lon="5.99559">
        <ele>874</ele>
        <time>2007-07-17T17:27:47Z</time>
      </trkpt>
      <trkpt lat="44.4609" lon="5.99572">
        <ele>876</ele>
        <time>2007-07-17T17:27:47Z</time>
      </trkpt>
      <trkpt lat="44.46099" lon="5.99572">
        <ele>874</ele>
        <time>2007-07-17T17:27:47Z</time>
      </trkpt>
      <trkpt lat="44.46106" lon="5.99576">
        <ele>872</ele>
        <time>2007-07-17T17:27:47Z</time>
      </trkpt>
      <trkpt lat="44.46115" lon="5.99576">
        <ele>870</ele>
        <time>2007-07-17T17:27:47Z</time>
      </trkpt>
      <trkpt lat="44.46124" lon="5.99583">
        <ele>868</ele>
        <time>2007-07-17T17:27:47Z</time>
      </trkpt>
      <trkpt lat="44.4613" lon="5.99587">
        <ele>863</ele>
        <time>2007-07-17T17:27:47Z</time>
      </trkpt>
      <trkpt lat="44.46137" lon="5.9959">
        <ele>862</ele>
        <time>2007-07-17T17:27:47Z</time>
      </trkpt>
      <trkpt lat="44.46144" lon="5.99594">
        <ele>861</ele>
        <time>2007-07-17T17:27:47Z</time>
      </trkpt>
      <trkpt lat="44.46153" lon="5.99598">
        <ele>859</ele>
        <time>2007-07-17T17:27:47Z</time>
      </trkpt>
      <trkpt lat="44.46152" lon="5.9961">
        <ele>860</ele>
        <time>2007-07-17T17:27:47Z</time>
      </trkpt>
      <trkpt lat="44.46154" lon="5.99623">
        <ele>861</ele>
        <time>2007-07-17T17:27:47Z</time>
      </trkpt>
      <trkpt lat="44.46158" lon="5.99633">
        <ele>860</ele>
        <time>2007-07-17T17:27:47Z</time>
      </trkpt>
      <trkpt lat="44.4616" lon="5.99645">
        <ele>859</ele>
        <time>2007-07-17T17:27:47Z</time>
      </trkpt>
      <trkpt lat="44.46162" lon="5.99655">
        <ele>858</ele>
        <time>2007-07-17T17:27:47Z</time>
      </trkpt>
      <trkpt lat="44.46166" lon="5.99668">
        <ele>855</ele>
        <time>2007-07-17T17:27:47Z</time>
      </trkpt>
      <trkpt lat="44.46172" lon="5.99678">
        <ele>850</ele>
        <time>2007-07-17T17:27:47Z</time>
      </trkpt>
      <trkpt lat="44.46177" lon="5.99687">
        <ele>847</ele>
        <time>2007-07-17T17:27:47Z</time>
      </trkpt>
      <trkpt lat="44.46181" lon="5.99697">
        <ele>846</ele>
        <time>2007-07-17T17:27:47Z</time>
      </trkpt>
      <trkpt lat="44.46189" lon="5.99707">
        <ele>844</ele>
        <time>2007-07-17T17:27:47Z</time>
      </trkpt>
      <trkpt lat="44.46196" lon="5.99717">
        <ele>844</ele>
        <time>2007-07-17T17:27:47Z</time>
      </trkpt>
      <trkpt lat="44.46202" lon="5.99724">
        <ele>843</ele>
        <time>2007-07-17T17:27:47Z</time>
      </trkpt>
      <trkpt lat="44.46209" lon="5.99727">
        <ele>842</ele>
        <time>2007-07-17T17:27:47Z</time>
      </trkpt>
      <trkpt lat="44.46215" lon="5.99737">
        <ele>842</ele>
        <time>2007-07-17T17:27:47Z</time>
      </trkpt>
      <trkpt lat="44.46222" lon="5.9974">
        <ele>841</ele>
        <time>2007-07-17T17:27:47Z</time>
      </trkpt>
      <trkpt lat="44.46229" lon="5.99744">
        <ele>840</ele>
        <time>2007-07-17T17:27:47Z</time>
      </trkpt>
      <trkpt lat="44.46235" lon="5.99748">
        <ele>839</ele>
        <time>2007-07-17T17:27:47Z</time>
      </trkpt>
      <trkpt lat="44.46244" lon="5.99761">
        <ele>837</ele>
        <time>2007-07-17T17:27:47Z</time>
      </trkpt>
      <trkpt lat="44.46253" lon="5.99764">
        <ele>832</ele>
        <time>2007-07-17T17:27:47Z</time>
      </trkpt>
      <trkpt lat="44.46262" lon="5.99765">
        <ele>831</ele>
        <time>2007-07-17T17:27:47Z</time>
      </trkpt>
      <trkpt lat="44.46271" lon="5.99766">
        <ele>829</ele>
        <time>2007-07-17T17:27:47Z</time>
      </trkpt>
      <trkpt lat="44.4628" lon="5.99766">
        <ele>828</ele>
        <time>2007-07-17T17:27:47Z</time>
      </trkpt>
      <trkpt lat="44.46289" lon="5.99767">
        <ele>827</ele>
        <time>2007-07-17T17:27:47Z</time>
      </trkpt>
      <trkpt lat="44.46298" lon="5.99767">
        <ele>825</ele>
        <time>2007-07-17T17:27:47Z</time>
      </trkpt>
      <trkpt lat="44.46307" lon="5.99765">
        <ele>824</ele>
        <time>2007-07-17T17:27:47Z</time>
      </trkpt>
      <trkpt lat="44.46316" lon="5.99762">
        <ele>822</ele>
        <time>2007-07-17T17:27:47Z</time>
      </trkpt>
      <trkpt lat="44.46325" lon="5.99766">
        <ele>821</ele>
        <time>2007-07-17T17:27:47Z</time>
      </trkpt>
      <trkpt lat="44.46324" lon="5.99779">
        <ele>823</ele>
        <time>2007-07-17T17:27:47Z</time>
      </trkpt>
      <trkpt lat="44.46328" lon="5.99788">
        <ele>824</ele>
        <time>2007-07-17T17:27:47Z</time>
      </trkpt>
      <trkpt lat="44.46335" lon="5.99798">
        <ele>811</ele>
        <time>2007-07-17T17:27:47Z</time>
      </trkpt>
      <trkpt lat="44.46344" lon="5.99805">
        <ele>811</ele>
        <time>2007-07-17T17:27:47Z</time>
      </trkpt>
      <trkpt lat="44.4635" lon="5.99812">
        <ele>811</ele>
        <time>2007-07-17T17:27:47Z</time>
      </trkpt>
      <trkpt lat="44.46354" lon="5.99821">
        <ele>812</ele>
        <time>2007-07-17T17:27:47Z</time>
      </trkpt>
      <trkpt lat="44.46361" lon="5.99834">
        <ele>812</ele>
        <time>2007-07-17T17:27:47Z</time>
      </trkpt>
      <trkpt lat="44.46365" lon="5.99847">
        <ele>811</ele>
        <time>2007-07-17T17:27:47Z</time>
      </trkpt>
      <trkpt lat="44.46369" lon="5.99857">
        <ele>810</ele>
        <time>2007-07-17T17:27:47Z</time>
      </trkpt>
      <trkpt lat="44.46373" lon="5.9987">
        <ele>809</ele>
        <time>2007-07-17T17:27:47Z</time>
      </trkpt>
      <trkpt lat="44.46377" lon="5.99883">
        <ele>809</ele>
        <time>2007-07-17T17:27:47Z</time>
      </trkpt>
      <trkpt lat="44.46379" lon="5.99892">
        <ele>809</ele>
        <time>2007-07-17T17:27:47Z</time>
      </trkpt>
      <trkpt lat="44.46381" lon="5.99902">
        <ele>808</ele>
        <time>2007-07-17T17:27:47Z</time>
      </trkpt>
      <trkpt lat="44.46381" lon="5.99914">
        <ele>808</ele>
        <time>2007-07-17T17:27:47Z</time>
      </trkpt>
      <trkpt lat="44.46382" lon="5.99924">
        <ele>807</ele>
        <time>2007-07-17T17:27:47Z</time>
      </trkpt>
      <trkpt lat="44.46387" lon="5.99937">
        <ele>807</ele>
        <time>2007-07-17T17:27:47Z</time>
      </trkpt>
      <trkpt lat="44.46391" lon="5.99949">
        <ele>806</ele>
        <time>2007-07-17T17:27:47Z</time>
      </trkpt>
      <trkpt lat="44.46399" lon="5.99963">
        <ele>806</ele>
        <time>2007-07-17T17:27:47Z</time>
      </trkpt>
      <trkpt lat="44.46401" lon="5.99972">
        <ele>805</ele>
        <time>2007-07-17T17:27:47Z</time>
      </trkpt>
      <trkpt lat="44.46403" lon="5.99985">
        <ele>804</ele>
        <time>2007-07-17T17:27:47Z</time>
      </trkpt>
      <trkpt lat="44.46402" lon="5.99997">
        <ele>804</ele>
        <time>2007-07-17T17:27:47Z</time>
      </trkpt>
      <trkpt lat="44.46402" lon="6.0001">
        <ele>800</ele>
        <time>2007-07-17T17:27:47Z</time>
      </trkpt>
      <trkpt lat="44.46399" lon="6.00022">
        <ele>800</ele>
        <time>2007-07-17T17:27:47Z</time>
      </trkpt>
      <trkpt lat="44.46399" lon="6.00035">
        <ele>799</ele>
        <time>2007-07-17T17:27:47Z</time>
      </trkpt>
      <trkpt lat="44.46399" lon="6.00047">
        <ele>798</ele>
        <time>2007-07-17T17:27:47Z</time>
      </trkpt>
      <trkpt lat="44.46396" lon="6.00057">
        <ele>797</ele>
        <time>2007-07-17T17:27:47Z</time>
      </trkpt>
      <trkpt lat="44.46396" lon="6.00069">
        <ele>796</ele>
        <time>2007-07-17T17:27:47Z</time>
      </trkpt>
      <trkpt lat="44.46395" lon="6.00082">
        <ele>796</ele>
        <time>2007-07-17T17:27:47Z</time>
      </trkpt>
      <trkpt lat="44.46397" lon="6.00094">
        <ele>788</ele>
        <time>2007-07-17T17:27:47Z</time>
      </trkpt>
      <trkpt lat="44.46406" lon="6.00101">
        <ele>788</ele>
        <time>2007-07-17T17:27:47Z</time>
      </trkpt>
      <trkpt lat="44.4641" lon="6.00114">
        <ele>787</ele>
        <time>2007-07-17T17:27:47Z</time>
      </trkpt>
      <trkpt lat="44.46409" lon="6.00127">
        <ele>785</ele>
        <time>2007-07-17T17:27:47Z</time>
      </trkpt>
      <trkpt lat="44.46409" lon="6.00139">
        <ele>784</ele>
        <time>2007-07-17T17:27:47Z</time>
      </trkpt>
      <trkpt lat="44.46409" lon="6.00152">
        <ele>782</ele>
        <time>2007-07-17T17:27:47Z</time>
      </trkpt>
      <trkpt lat="44.46408" lon="6.00164">
        <ele>780</ele>
        <time>2007-07-17T17:27:47Z</time>
      </trkpt>
      <trkpt lat="44.46408" lon="6.00177">
        <ele>775</ele>
        <time>2007-07-17T17:27:47Z</time>
      </trkpt>
      <trkpt lat="44.46405" lon="6.00186">
        <ele>773</ele>
        <time>2007-07-17T17:27:47Z</time>
      </trkpt>
      <trkpt lat="44.46403" lon="6.00195">
        <ele>772</ele>
        <time>2007-07-17T17:27:47Z</time>
      </trkpt>
      <trkpt lat="44.464" lon="6.00205">
        <ele>771</ele>
        <time>2007-07-17T17:27:47Z</time>
      </trkpt>
      <trkpt lat="44.46395" lon="6.00214">
        <ele>770</ele>
        <time>2007-07-17T17:27:47Z</time>
      </trkpt>
      <trkpt lat="44.46395" lon="6.00226">
        <ele>768</ele>
        <time>2007-07-17T17:27:47Z</time>
      </trkpt>
      <trkpt lat="44.46392" lon="6.00239">
        <ele>767</ele>
        <time>2007-07-17T17:27:47Z</time>
      </trkpt>
      <trkpt lat="44.46392" lon="6.00251">
        <ele>759</ele>
        <time>2007-07-17T17:27:47Z</time>
      </trkpt>
      <trkpt lat="44.46391" lon="6.00264">
        <ele>758</ele>
        <time>2007-07-17T17:27:47Z</time>
      </trkpt>
      <trkpt lat="44.46391" lon="6.00276">
        <ele>757</ele>
        <time>2007-07-17T17:27:47Z</time>
      </trkpt>
      <trkpt lat="44.46391" lon="6.00289">
        <ele>755</ele>
        <time>2007-07-17T17:27:47Z</time>
      </trkpt>
      <trkpt lat="44.4639" lon="6.00301">
        <ele>754</ele>
        <time>2007-07-17T17:27:47Z</time>
      </trkpt>
      <trkpt lat="44.4639" lon="6.00314">
        <ele>753</ele>
        <time>2007-07-17T17:27:47Z</time>
      </trkpt>
      <trkpt lat="44.46383" lon="6.00317">
        <ele>753</ele>
        <time>2007-07-17T17:27:47Z</time>
      </trkpt>
      <trkpt lat="44.46374" lon="6.00319">
        <ele>753</ele>
        <time>2007-07-17T17:27:47Z</time>
      </trkpt>
      <trkpt lat="44.46365" lon="6.00319">
        <ele>753</ele>
        <time>2007-07-17T17:27:47Z</time>
      </trkpt>
      <trkpt lat="44.46356" lon="6.00318">
        <ele>752</ele>
        <time>2007-07-17T17:27:47Z</time>
      </trkpt>
      <trkpt lat="44.46346" lon="6.00327">
        <ele>750</ele>
        <time>2007-07-17T17:27:47Z</time>
      </trkpt>
      <trkpt lat="44.46337" lon="6.00333">
        <ele>748</ele>
        <time>2007-07-17T17:27:47Z</time>
      </trkpt>
      <trkpt lat="44.4633" lon="6.00335">
        <ele>748</ele>
        <time>2007-07-17T17:27:47Z</time>
      </trkpt>
      <trkpt lat="44.46324" lon="6.00338">
        <ele>749</ele>
        <time>2007-07-17T17:27:47Z</time>
      </trkpt>
      <trkpt lat="44.46319" lon="6.00347">
        <ele>750</ele>
        <time>2007-07-17T17:27:47Z</time>
      </trkpt>
      <trkpt lat="44.46316" lon="6.00356">
        <ele>751</ele>
        <time>2007-07-17T17:27:47Z</time>
      </trkpt>
      <trkpt lat="44.46309" lon="6.00362">
        <ele>751</ele>
        <time>2007-07-17T17:27:47Z</time>
      </trkpt>
      <trkpt lat="44.463" lon="6.00362">
        <ele>752</ele>
        <time>2007-07-17T17:27:47Z</time>
      </trkpt>
      <trkpt lat="44.46291" lon="6.00367">
        <ele>753</ele>
        <time>2007-07-17T17:27:47Z</time>
      </trkpt>
      <trkpt lat="44.46284" lon="6.00373">
        <ele>754</ele>
        <time>2007-07-17T17:27:47Z</time>
      </trkpt>
      <trkpt lat="44.46284" lon="6.00382">
        <ele>753</ele>
        <time>2007-07-17T17:27:47Z</time>
      </trkpt>
      <trkpt lat="44.4629" lon="6.00389">
        <ele>752</ele>
        <time>2007-07-17T17:27:47Z</time>
      </trkpt>
      <trkpt lat="44.46297" lon="6.00399">
        <ele>751</ele>
        <time>2007-07-17T17:27:47Z</time>
      </trkpt>
      <trkpt lat="44.46303" lon="6.00403">
        <ele>750</ele>
        <time>2007-07-17T17:27:47Z</time>
      </trkpt>
      <trkpt lat="44.4631" lon="6.00406">
        <ele>749</ele>
        <time>2007-07-17T17:27:47Z</time>
      </trkpt>
      <trkpt lat="44.46312" lon="6.00416">
        <ele>748</ele>
        <time>2007-07-17T17:27:47Z</time>
      </trkpt>
      <trkpt lat="44.46312" lon="6.00428">
        <ele>746</ele>
        <time>2007-07-17T17:27:47Z</time>
      </trkpt>
      <trkpt lat="44.46311" lon="6.00441">
        <ele>746</ele>
        <time>2007-07-17T17:27:47Z</time>
      </trkpt>
      <trkpt lat="44.46311" lon="6.00453">
        <ele>746</ele>
        <time>2007-07-17T17:27:47Z</time>
      </trkpt>
      <trkpt lat="44.46308" lon="6.00466">
        <ele>746</ele>
        <time>2007-07-17T17:27:47Z</time>
      </trkpt>
      <trkpt lat="44.46301" lon="6.00475">
        <ele>746</ele>
        <time>2007-07-17T17:27:47Z</time>
      </trkpt>
      <trkpt lat="44.46296" lon="6.00484">
        <ele>747</ele>
        <time>2007-07-17T17:27:47Z</time>
      </trkpt>
      <trkpt lat="44.46294" lon="6.00493">
        <ele>747</ele>
        <time>2007-07-17T17:27:47Z</time>
      </trkpt>
      <trkpt lat="44.46291" lon="6.00502">
        <ele>742</ele>
        <time>2007-07-17T17:27:47Z</time>
      </trkpt>
      <trkpt lat="44.46288" lon="6.00515">
        <ele>742</ele>
        <time>2007-07-17T17:27:47Z</time>
      </trkpt>
      <trkpt lat="44.46281" lon="6.00524">
        <ele>742</ele>
        <time>2007-07-17T17:27:47Z</time>
      </trkpt>
      <trkpt lat="44.46276" lon="6.00536">
        <ele>741</ele>
        <time>2007-07-17T17:27:47Z</time>
      </trkpt>
      <trkpt lat="44.46274" lon="6.00545">
        <ele>741</ele>
        <time>2007-07-17T17:27:47Z</time>
      </trkpt>
      <trkpt lat="44.46273" lon="6.00558">
        <ele>740</ele>
        <time>2007-07-17T17:27:47Z</time>
      </trkpt>
      <trkpt lat="44.46273" lon="6.0057">
        <ele>739</ele>
        <time>2007-07-17T17:27:47Z</time>
      </trkpt>
      <trkpt lat="44.46273" lon="6.00583">
        <ele>739</ele>
        <time>2007-07-17T17:27:47Z</time>
      </trkpt>
      <trkpt lat="44.46266" lon="6.00592">
        <ele>735</ele>
        <time>2007-07-17T17:27:47Z</time>
      </trkpt>
      <trkpt lat="44.46261" lon="6.00604">
        <ele>735</ele>
        <time>2007-07-17T17:27:47Z</time>
      </trkpt>
      <trkpt lat="44.46258" lon="6.00613">
        <ele>734</ele>
        <time>2007-07-17T17:27:47Z</time>
      </trkpt>
      <trkpt lat="44.46256" lon="6.00623">
        <ele>734</ele>
        <time>2007-07-17T17:27:47Z</time>
      </trkpt>
      <trkpt lat="44.46255" lon="6.00635">
        <ele>733</ele>
        <time>2007-07-17T17:27:47Z</time>
      </trkpt>
      <trkpt lat="44.46264" lon="6.00645">
        <ele>733</ele>
        <time>2007-07-17T17:27:47Z</time>
      </trkpt>
      <trkpt lat="44.46273" lon="6.00646">
        <ele>732</ele>
        <time>2007-07-17T17:27:47Z</time>
      </trkpt>
      <trkpt lat="44.46279" lon="6.00649">
        <ele>732</ele>
        <time>2007-07-17T17:27:47Z</time>
      </trkpt>
      <trkpt lat="44.46286" lon="6.00656">
        <ele>731</ele>
        <time>2007-07-17T17:27:47Z</time>
      </trkpt>
      <trkpt lat="44.46293" lon="6.0066">
        <ele>730</ele>
        <time>2007-07-17T17:27:47Z</time>
      </trkpt>
      <trkpt lat="44.46299" lon="6.00666">
        <ele>729</ele>
        <time>2007-07-17T17:27:47Z</time>
      </trkpt>
      <trkpt lat="44.46308" lon="6.00667">
        <ele>724</ele>
        <time>2007-07-17T17:27:47Z</time>
      </trkpt>
      <trkpt lat="44.46317" lon="6.00668">
        <ele>723</ele>
        <time>2007-07-17T17:27:47Z</time>
      </trkpt>
      <trkpt lat="44.46326" lon="6.00668">
        <ele>723</ele>
        <time>2007-07-17T17:27:47Z</time>
      </trkpt>
      <trkpt lat="44.46335" lon="6.00669">
        <ele>721</ele>
        <time>2007-07-17T17:27:47Z</time>
      </trkpt>
      <trkpt lat="44.46342" lon="6.00657">
        <ele>722</ele>
        <time>2007-07-17T17:27:47Z</time>
      </trkpt>
      <trkpt lat="44.46347" lon="6.00647">
        <ele>721</ele>
        <time>2007-07-17T17:27:47Z</time>
      </trkpt>
      <trkpt lat="44.46352" lon="6.00635">
        <ele>721</ele>
        <time>2007-07-17T17:27:47Z</time>
      </trkpt>
      <trkpt lat="44.46359" lon="6.00626">
        <ele>721</ele>
        <time>2007-07-17T17:27:47Z</time>
      </trkpt>
      <trkpt lat="44.46366" lon="6.00617">
        <ele>722</ele>
        <time>2007-07-17T17:27:47Z</time>
      </trkpt>
      <trkpt lat="44.46373" lon="6.00611">
        <ele>721</ele>
        <time>2007-07-17T17:27:47Z</time>
      </trkpt>
      <trkpt lat="44.46382" lon="6.00612">
        <ele>721</ele>
        <time>2007-07-17T17:27:47Z</time>
      </trkpt>
      <trkpt lat="44.46384" lon="6.00622">
        <ele>720</ele>
        <time>2007-07-17T17:27:47Z</time>
      </trkpt>
      <trkpt lat="44.46383" lon="6.00634">
        <ele>720</ele>
        <time>2007-07-17T17:27:47Z</time>
      </trkpt>
      <trkpt lat="44.46383" lon="6.00647">
        <ele>720</ele>
        <time>2007-07-17T17:27:47Z</time>
      </trkpt>
      <trkpt lat="44.46385" lon="6.00656">
        <ele>719</ele>
        <time>2007-07-17T17:27:47Z</time>
      </trkpt>
      <trkpt lat="44.46387" lon="6.00666">
        <ele>719</ele>
        <time>2007-07-17T17:27:47Z</time>
      </trkpt>
      <trkpt lat="44.46386" lon="6.00678">
        <ele>716</ele>
        <time>2007-07-17T17:27:47Z</time>
      </trkpt>
      <trkpt lat="44.46388" lon="6.00688">
        <ele>716</ele>
        <time>2007-07-17T17:27:47Z</time>
      </trkpt>
      <trkpt lat="44.46395" lon="6.00698">
        <ele>715</ele>
        <time>2007-07-17T17:27:47Z</time>
      </trkpt>
      <trkpt lat="44.46401" lon="6.00711">
        <ele>715</ele>
        <time>2007-07-17T17:27:47Z</time>
      </trkpt>
      <trkpt lat="44.46403" lon="6.0072">
        <ele>715</ele>
        <time>2007-07-17T17:27:47Z</time>
      </trkpt>
      <trkpt lat="44.4641" lon="6.00727">
        <ele>714</ele>
        <time>2007-07-17T17:27:47Z</time>
      </trkpt>
      <trkpt lat="44.46416" lon="6.00731">
        <ele>713</ele>
        <time>2007-07-17T17:27:47Z</time>
      </trkpt>
      <trkpt lat="44.46423" lon="6.00734">
        <ele>710</ele>
        <time>2007-07-17T17:27:47Z</time>
      </trkpt>
      <trkpt lat="44.46429" lon="6.00741">
        <ele>710</ele>
        <time>2007-07-17T17:27:47Z</time>
      </trkpt>
      <trkpt lat="44.46433" lon="6.00754">
        <ele>706</ele>
        <time>2007-07-17T17:27:47Z</time>
      </trkpt>
      <trkpt lat="44.46435" lon="6.00766">
        <ele>704</ele>
        <time>2007-07-17T17:27:47Z</time>
      </trkpt>
      <trkpt lat="44.46435" lon="6.00779">
        <ele>703</ele>
        <time>2007-07-17T17:27:47Z</time>
      </trkpt>
      <trkpt lat="44.46432" lon="6.00788">
        <ele>702</ele>
        <time>2007-07-17T17:27:47Z</time>
      </trkpt>
      <trkpt lat="44.46425" lon="6.008">
        <ele>701</ele>
        <time>2007-07-17T17:27:47Z</time>
      </trkpt>
      <trkpt lat="44.46418" lon="6.00809">
        <ele>700</ele>
        <time>2007-07-17T17:27:47Z</time>
      </trkpt>
      <trkpt lat="44.46411" lon="6.00818">
        <ele>704</ele>
        <time>2007-07-17T17:27:47Z</time>
      </trkpt>
      <trkpt lat="44.46404" lon="6.00821">
        <ele>704</ele>
        <time>2007-07-17T17:27:47Z</time>
      </trkpt>
      <trkpt lat="44.46399" lon="6.0083">
        <ele>704</ele>
        <time>2007-07-17T17:27:47Z</time>
      </trkpt>
      <trkpt lat="44.46392" lon="6.00842">
        <ele>697</ele>
        <time>2007-07-17T17:27:47Z</time>
      </trkpt>
      <trkpt lat="44.46385" lon="6.00854">
        <ele>697</ele>
        <time>2007-07-17T17:27:47Z</time>
      </trkpt>
      <trkpt lat="44.4638" lon="6.00866">
        <ele>696</ele>
        <time>2007-07-17T17:27:47Z</time>
      </trkpt>
      <trkpt lat="44.46378" lon="6.00876">
        <ele>695</ele>
        <time>2007-07-17T17:27:47Z</time>
      </trkpt>
      <trkpt lat="44.4637" lon="6.00888">
        <ele>694</ele>
        <time>2007-07-17T17:27:47Z</time>
      </trkpt>
      <trkpt lat="44.46361" lon="6.00897">
        <ele>694</ele>
        <time>2007-07-17T17:27:47Z</time>
      </trkpt>
      <trkpt lat="44.46354" lon="6.00906">
        <ele>694</ele>
        <time>2007-07-17T17:27:47Z</time>
      </trkpt>
      <trkpt lat="44.46349" lon="6.00915">
        <ele>694</ele>
        <time>2007-07-17T17:27:47Z</time>
      </trkpt>
      <trkpt lat="44.46342" lon="6.00924">
        <ele>688</ele>
        <time>2007-07-17T17:27:47Z</time>
      </trkpt>
      <trkpt lat="44.46335" lon="6.00933">
        <ele>687</ele>
        <time>2007-07-17T17:27:47Z</time>
      </trkpt>
      <trkpt lat="44.4633" lon="6.00942">
        <ele>689</ele>
        <time>2007-07-17T17:27:47Z</time>
      </trkpt>
      <trkpt lat="44.46323" lon="6.00948">
        <ele>688</ele>
        <time>2007-07-17T17:27:47Z</time>
      </trkpt>
      <trkpt lat="44.46314" lon="6.0096">
        <ele>687</ele>
        <time>2007-07-17T17:27:47Z</time>
      </trkpt>
      <trkpt lat="44.46305" lon="6.00972">
        <ele>686</ele>
        <time>2007-07-17T17:27:47Z</time>
      </trkpt>
      <trkpt lat="44.46298" lon="6.00977">
        <ele>686</ele>
        <time>2007-07-17T17:27:47Z</time>
      </trkpt>
      <trkpt lat="44.46291" lon="6.00986">
        <ele>686</ele>
        <time>2007-07-17T17:27:47Z</time>
      </trkpt>
      <trkpt lat="44.46297" lon="6.0099">
        <ele>685</ele>
        <time>2007-07-17T17:27:47Z</time>
      </trkpt>
      <trkpt lat="44.46304" lon="6.00993">
        <ele>684</ele>
        <time>2007-07-17T17:27:47Z</time>
      </trkpt>
      <trkpt lat="44.46313" lon="6.00994">
        <ele>683</ele>
        <time>2007-07-17T17:27:47Z</time>
      </trkpt>
      <trkpt lat="44.46322" lon="6.00995">
        <ele>681</ele>
        <time>2007-07-17T17:27:47Z</time>
      </trkpt>
      <trkpt lat="44.46331" lon="6.00995">
        <ele>679</ele>
        <time>2007-07-17T17:27:47Z</time>
      </trkpt>
      <trkpt lat="44.4634" lon="6.00996">
        <ele>678</ele>
        <time>2007-07-17T17:27:47Z</time>
      </trkpt>
      <trkpt lat="44.46349" lon="6.00993">
        <ele>679</ele>
        <time>2007-07-17T17:27:47Z</time>
      </trkpt>
      <trkpt lat="44.46358" lon="6.00994">
        <ele>679</ele>
        <time>2007-07-17T17:27:47Z</time>
      </trkpt>
      <trkpt lat="44.46367" lon="6.00994">
        <ele>679</ele>
        <time>2007-07-17T17:27:47Z</time>
      </trkpt>
      <trkpt lat="44.46373" lon="6.01001">
        <ele>671</ele>
        <time>2007-07-17T17:27:47Z</time>
      </trkpt>
      <trkpt lat="44.46382" lon="6.01005">
        <ele>670</ele>
        <time>2007-07-17T17:27:47Z</time>
      </trkpt>
      <trkpt lat="44.46391" lon="6.01005">
        <ele>670</ele>
        <time>2007-07-17T17:27:47Z</time>
      </trkpt>
      <trkpt lat="44.464" lon="6.01006">
        <ele>670</ele>
        <time>2007-07-17T17:27:47Z</time>
      </trkpt>
      <trkpt lat="44.46409" lon="6.01007">
        <ele>670</ele>
        <time>2007-07-17T17:27:47Z</time>
      </trkpt>
      <trkpt lat="44.46416" lon="6.01004">
        <ele>671</ele>
        <time>2007-07-17T17:27:47Z</time>
      </trkpt>
      <trkpt lat="44.46425" lon="6.01005">
        <ele>670</ele>
        <time>2007-07-17T17:27:47Z</time>
      </trkpt>
      <trkpt lat="44.46432" lon="6.01008">
        <ele>670</ele>
        <time>2007-07-17T17:27:47Z</time>
      </trkpt>
      <trkpt lat="44.46434" lon="6.01018">
        <ele>670</ele>
        <time>2007-07-17T17:27:47Z</time>
      </trkpt>
      <trkpt lat="44.46436" lon="6.01027">
        <ele>669</ele>
        <time>2007-07-17T17:27:47Z</time>
      </trkpt>
      <trkpt lat="44.46435" lon="6.0104">
        <ele>668</ele>
        <time>2007-07-17T17:27:47Z</time>
      </trkpt>
      <trkpt lat="44.46435" lon="6.01052">
        <ele>667</ele>
        <time>2007-07-17T17:27:47Z</time>
      </trkpt>
      <trkpt lat="44.46434" lon="6.01065">
        <ele>666</ele>
        <time>2007-07-17T17:27:47Z</time>
      </trkpt>
      <trkpt lat="44.46443" lon="6.01069">
        <ele>667</ele>
        <time>2007-07-17T17:27:47Z</time>
      </trkpt>
      <trkpt lat="44.4645" lon="6.01072">
        <ele>667</ele>
        <time>2007-07-17T17:27:47Z</time>
      </trkpt>
      <trkpt lat="44.46456" lon="6.01076">
        <ele>667</ele>
        <time>2007-07-17T17:27:47Z</time>
      </trkpt>
      <trkpt lat="44.46463" lon="6.01082">
        <ele>667</ele>
        <time>2007-07-17T17:27:47Z</time>
      </trkpt>
      <trkpt lat="44.46469" lon="6.01092">
        <ele>660</ele>
        <time>2007-07-17T17:27:47Z</time>
      </trkpt>
      <trkpt lat="44.46476" lon="6.01099">
        <ele>660</ele>
        <time>2007-07-17T17:27:47Z</time>
      </trkpt>
      <trkpt lat="44.46483" lon="6.01103">
        <ele>660</ele>
        <time>2007-07-17T17:27:47Z</time>
      </trkpt>
      <trkpt lat="44.46492" lon="6.01103">
        <ele>661</ele>
        <time>2007-07-17T17:27:47Z</time>
      </trkpt>
      <trkpt lat="44.46501" lon="6.01104">
        <ele>662</ele>
        <time>2007-07-17T17:27:47Z</time>
      </trkpt>
      <trkpt lat="44.4651" lon="6.01104">
        <ele>661</ele>
        <time>2007-07-17T17:27:47Z</time>
      </trkpt>
      <trkpt lat="44.46518" lon="6.01105">
        <ele>661</ele>
        <time>2007-07-17T17:27:47Z</time>
      </trkpt>
      <trkpt lat="44.46527" lon="6.01106">
        <ele>661</ele>
        <time>2007-07-17T17:27:47Z</time>
      </trkpt>
      <trkpt lat="44.46536" lon="6.01106">
        <ele>661</ele>
        <time>2007-07-17T17:27:47Z</time>
      </trkpt>
      <trkpt lat="44.46545" lon="6.01107">
        <ele>660</ele>
        <time>2007-07-17T17:27:47Z</time>
      </trkpt>
      <trkpt lat="44.46554" lon="6.01107">
        <ele>661</ele>
        <time>2007-07-17T17:27:47Z</time>
      </trkpt>
      <trkpt lat="44.46563" lon="6.01108">
        <ele>661</ele>
        <time>2007-07-17T17:27:47Z</time>
      </trkpt>
      <trkpt lat="44.46572" lon="6.01108">
        <ele>661</ele>
        <time>2007-07-17T17:27:47Z</time>
      </trkpt>
      <trkpt lat="44.46581" lon="6.01109">
        <ele>661</ele>
        <time>2007-07-17T17:27:47Z</time>
      </trkpt>
      <trkpt lat="44.4659" lon="6.0111">
        <ele>661</ele>
        <time>2007-07-17T17:27:47Z</time>
      </trkpt>
      <trkpt lat="44.46599" lon="6.0111">
        <ele>660</ele>
        <time>2007-07-17T17:27:47Z</time>
      </trkpt>
      <trkpt lat="44.46606" lon="6.01114">
        <ele>660</ele>
        <time>2007-07-17T17:27:47Z</time>
      </trkpt>
      <trkpt lat="44.46615" lon="6.01114">
        <ele>660</ele>
        <time>2007-07-17T17:27:47Z</time>
      </trkpt>
      <trkpt lat="44.46624" lon="6.01115">
        <ele>660</ele>
        <time>2007-07-17T17:27:47Z</time>
      </trkpt>
      <trkpt lat="44.46633" lon="6.01116">
        <ele>659</ele>
        <time>2007-07-17T17:27:47Z</time>
      </trkpt>
      <trkpt lat="44.46642" lon="6.01116">
        <ele>659</ele>
        <time>2007-07-17T17:27:47Z</time>
      </trkpt>
      <trkpt lat="44.46651" lon="6.01117">
        <ele>659</ele>
        <time>2007-07-17T17:27:47Z</time>
      </trkpt>
      <trkpt lat="44.4666" lon="6.01117">
        <ele>659</ele>
        <time>2007-07-17T17:27:47Z</time>
      </trkpt>
      <trkpt lat="44.46669" lon="6.01121">
        <ele>658</ele>
        <time>2007-07-17T17:27:47Z</time>
      </trkpt>
      <trkpt lat="44.46673" lon="6.01131">
        <ele>657</ele>
        <time>2007-07-17T17:27:47Z</time>
      </trkpt>
      <trkpt lat="44.46673" lon="6.01143">
        <ele>657</ele>
        <time>2007-07-17T17:27:47Z</time>
      </trkpt>
      <trkpt lat="44.46669" lon="6.01127">
        <ele>658</ele>
        <time>2007-07-17T17:27:47Z</time>
      </trkpt>
      <trkpt lat="44.4667" lon="6.01137">
        <ele>657</ele>
        <time>2007-07-17T17:27:47Z</time>
      </trkpt>
      <trkpt lat="44.46672" lon="6.01146">
        <ele>656</ele>
        <time>2007-07-17T17:27:47Z</time>
      </trkpt>
      <trkpt lat="44.46681" lon="6.01147">
        <ele>656</ele>
        <time>2007-07-17T17:27:47Z</time>
      </trkpt>
      <trkpt lat="44.46688" lon="6.01151">
        <ele>656</ele>
        <time>2007-07-17T17:27:47Z</time>
      </trkpt>
      <trkpt lat="44.4669" lon="6.01163">
        <ele>656</ele>
        <time>2007-07-17T17:27:47Z</time>
      </trkpt>
      <trkpt lat="44.46699" lon="6.01167">
        <ele>654</ele>
        <time>2007-07-17T17:27:47Z</time>
      </trkpt>
      <trkpt lat="44.46705" lon="6.01171">
        <ele>654</ele>
        <time>2007-07-17T17:27:47Z</time>
      </trkpt>
      <trkpt lat="44.46712" lon="6.01174">
        <ele>654</ele>
        <time>2007-07-17T17:27:47Z</time>
      </trkpt>
      <trkpt lat="44.46721" lon="6.01175">
        <ele>654</ele>
        <time>2007-07-17T17:27:47Z</time>
      </trkpt>
      <trkpt lat="44.4673" lon="6.01175">
        <ele>654</ele>
        <time>2007-07-17T17:27:47Z</time>
      </trkpt>
      <trkpt lat="44.46739" lon="6.01176">
        <ele>654</ele>
        <time>2007-07-17T17:27:47Z</time>
      </trkpt>
      <trkpt lat="44.46746" lon="6.01173">
        <ele>655</ele>
        <time>2007-07-17T17:27:47Z</time>
      </trkpt>
      <trkpt lat="44.46753" lon="6.01167">
        <ele>655</ele>
        <time>2007-07-17T17:27:47Z</time>
      </trkpt>
      <trkpt lat="44.4676" lon="6.01158">
        <ele>656</ele>
        <time>2007-07-17T17:27:47Z</time>
      </trkpt>
      <trkpt lat="44.46767" lon="6.01149">
        <ele>657</ele>
        <time>2007-07-17T17:27:47Z</time>
      </trkpt>
      <trkpt lat="44.46769" lon="6.0114">
        <ele>657</ele>
        <time>2007-07-17T17:27:47Z</time>
      </trkpt>
      <trkpt lat="44.46772" lon="6.01131">
        <ele>657</ele>
        <time>2007-07-17T17:27:47Z</time>
      </trkpt>
      <trkpt lat="44.46775" lon="6.01122">
        <ele>658</ele>
        <time>2007-07-17T17:27:47Z</time>
      </trkpt>
      <trkpt lat="44.46784" lon="6.01116">
        <ele>658</ele>
        <time>2007-07-17T17:27:47Z</time>
      </trkpt>
      <trkpt lat="44.46791" lon="6.01113">
        <ele>658</ele>
        <time>2007-07-17T17:27:47Z</time>
      </trkpt>
      <trkpt lat="44.468" lon="6.01114">
        <ele>658</ele>
        <time>2007-07-17T17:27:47Z</time>
      </trkpt>
      <trkpt lat="44.46809" lon="6.01114">
        <ele>658</ele>
        <time>2007-07-17T17:27:47Z</time>
      </trkpt>
      <trkpt lat="44.46815" lon="6.01121">
        <ele>658</ele>
        <time>2007-07-17T17:27:47Z</time>
      </trkpt>
      <trkpt lat="44.46821" lon="6.01131">
        <ele>658</ele>
        <time>2007-07-17T17:27:47Z</time>
      </trkpt>
      <trkpt lat="44.46828" lon="6.01144">
        <ele>658</ele>
        <time>2007-07-17T17:27:47Z</time>
      </trkpt>
      <trkpt lat="44.4683" lon="6.01154">
        <ele>658</ele>
        <time>2007-07-17T17:27:47Z</time>
      </trkpt>
      <trkpt lat="44.46834" lon="6.01163">
        <ele>658</ele>
        <time>2007-07-17T17:27:47Z</time>
      </trkpt>
      <trkpt lat="44.4684" lon="6.01176">
        <ele>658</ele>
        <time>2007-07-17T17:27:47Z</time>
      </trkpt>
      <trkpt lat="44.46847" lon="6.01189">
        <ele>658</ele>
        <time>2007-07-17T17:27:47Z</time>
      </trkpt>
      <trkpt lat="44.46855" lon="6.01199">
        <ele>659</ele>
        <time>2007-07-17T17:27:47Z</time>
      </trkpt>
      <trkpt lat="44.46859" lon="6.01209">
        <ele>659</ele>
        <time>2007-07-17T17:27:47Z</time>
      </trkpt>
      <trkpt lat="44.46866" lon="6.01219">
        <ele>659</ele>
        <time>2007-07-17T17:27:47Z</time>
      </trkpt>
      <trkpt lat="44.46872" lon="6.01225">
        <ele>659</ele>
        <time>2007-07-17T17:27:47Z</time>
      </trkpt>
      <trkpt lat="44.46879" lon="6.01235">
        <ele>659</ele>
        <time>2007-07-17T17:27:47Z</time>
      </trkpt>
      <trkpt lat="44.46885" lon="6.01239">
        <ele>659</ele>
        <time>2007-07-17T17:27:47Z</time>
      </trkpt>
      <trkpt lat="44.46894" lon="6.01239">
        <ele>660</ele>
        <time>2007-07-17T17:27:47Z</time>
      </trkpt>
      <trkpt lat="44.46903" lon="6.0124">
        <ele>660</ele>
        <time>2007-07-17T17:27:47Z</time>
      </trkpt>
      <trkpt lat="44.46912" lon="6.01241">
        <ele>660</ele>
        <time>2007-07-17T17:27:47Z</time>
      </trkpt>
      <trkpt lat="44.46921" lon="6.01241">
        <ele>663</ele>
        <time>2007-07-17T17:27:47Z</time>
      </trkpt>
      <trkpt lat="44.46928" lon="6.01245">
        <ele>664</ele>
        <time>2007-07-17T17:27:47Z</time>
      </trkpt>
      <trkpt lat="44.46937" lon="6.01245">
        <ele>665</ele>
        <time>2007-07-17T17:27:47Z</time>
      </trkpt>
      <trkpt lat="44.46946" lon="6.01246">
        <ele>666</ele>
        <time>2007-07-17T17:27:47Z</time>
      </trkpt>
      <trkpt lat="44.46955" lon="6.01247">
        <ele>668</ele>
        <time>2007-07-17T17:27:47Z</time>
      </trkpt>
      <trkpt lat="44.46962" lon="6.0125">
        <ele>669</ele>
        <time>2007-07-17T17:27:47Z</time>
      </trkpt>
      <trkpt lat="44.46968" lon="6.01257">
        <ele>670</ele>
        <time>2007-07-17T17:27:47Z</time>
      </trkpt>
      <trkpt lat="44.4697" lon="6.01266">
        <ele>670</ele>
        <time>2007-07-17T17:27:47Z</time>
      </trkpt>
      <trkpt lat="44.4697" lon="6.01279">
        <ele>669</ele>
        <time>2007-07-17T17:27:47Z</time>
      </trkpt>
      <trkpt lat="44.46969" lon="6.01292">
        <ele>669</ele>
        <time>2007-07-17T17:27:47Z</time>
      </trkpt>
      <trkpt lat="44.46969" lon="6.01304">
        <ele>669</ele>
        <time>2007-07-17T17:27:47Z</time>
      </trkpt>
      <trkpt lat="44.46968" lon="6.01317">
        <ele>669</ele>
        <time>2007-07-17T17:27:47Z</time>
      </trkpt>
      <trkpt lat="44.46968" lon="6.01329">
        <ele>670</ele>
        <time>2007-07-17T17:27:47Z</time>
      </trkpt>
      <trkpt lat="44.46965" lon="6.01342">
        <ele>668</ele>
        <time>2007-07-17T17:27:47Z</time>
      </trkpt>
      <trkpt lat="44.46965" lon="6.01354">
        <ele>668</ele>
        <time>2007-07-17T17:27:47Z</time>
      </trkpt>
      <trkpt lat="44.46964" lon="6.01364">
        <ele>668</ele>
        <time>2007-07-17T17:27:47Z</time>
      </trkpt>
      <trkpt lat="44.46964" lon="6.01376">
        <ele>668</ele>
        <time>2007-07-17T17:27:47Z</time>
      </trkpt>
      <trkpt lat="44.4697" lon="6.01386">
        <ele>668</ele>
        <time>2007-07-17T17:27:47Z</time>
      </trkpt>
      <trkpt lat="44.46977" lon="6.01396">
        <ele>669</ele>
        <time>2007-07-17T17:27:47Z</time>
      </trkpt>
      <trkpt lat="44.46983" lon="6.01402">
        <ele>670</ele>
        <time>2007-07-17T17:27:47Z</time>
      </trkpt>
      <trkpt lat="44.4699" lon="6.01406">
        <ele>671</ele>
        <time>2007-07-17T17:27:47Z</time>
      </trkpt>
      <trkpt lat="44.46994" lon="6.01413">
        <ele>672</ele>
        <time>2007-07-17T17:27:47Z</time>
      </trkpt>
      <trkpt lat="44.47003" lon="6.01416">
        <ele>674</ele>
        <time>2007-07-17T17:27:47Z</time>
      </trkpt>
      <trkpt lat="44.47012" lon="6.01423">
        <ele>674</ele>
        <time>2007-07-17T17:27:47Z</time>
      </trkpt>
      <trkpt lat="44.47021" lon="6.01427">
        <ele>675</ele>
        <time>2007-07-17T17:27:47Z</time>
      </trkpt>
      <trkpt lat="44.47027" lon="6.0143">
        <ele>675</ele>
        <time>2007-07-17T17:27:47Z</time>
      </trkpt>
      <trkpt lat="44.47034" lon="6.01434">
        <ele>676</ele>
        <time>2007-07-17T17:27:47Z</time>
      </trkpt>
      <trkpt lat="44.47043" lon="6.01441">
        <ele>676</ele>
        <time>2007-07-17T17:27:47Z</time>
      </trkpt>
      <trkpt lat="44.47052" lon="6.01445">
        <ele>677</ele>
        <time>2007-07-17T17:27:47Z</time>
      </trkpt>
      <trkpt lat="44.47056" lon="6.01451">
        <ele>677</ele>
        <time>2007-07-17T17:27:47Z</time>
      </trkpt>
      <trkpt lat="44.47065" lon="6.01455">
        <ele>677</ele>
        <time>2007-07-17T17:27:47Z</time>
      </trkpt>
      <trkpt lat="44.47071" lon="6.01462">
        <ele>677</ele>
        <time>2007-07-17T17:27:47Z</time>
      </trkpt>
      <trkpt lat="44.47078" lon="6.01465">
        <ele>677</ele>
        <time>2007-07-17T17:27:47Z</time>
      </trkpt>
      <trkpt lat="44.47085" lon="6.01472">
        <ele>683</ele>
        <time>2007-07-17T17:27:47Z</time>
      </trkpt>
      <trkpt lat="44.47091" lon="6.01476">
        <ele>683</ele>
        <time>2007-07-17T17:27:47Z</time>
      </trkpt>
      <trkpt lat="44.47098" lon="6.01482">
        <ele>683</ele>
        <time>2007-07-17T17:27:47Z</time>
      </trkpt>
      <trkpt lat="44.47104" lon="6.01486">
        <ele>683</ele>
        <time>2007-07-17T17:27:47Z</time>
      </trkpt>
      <trkpt lat="44.47113" lon="6.01493">
        <ele>684</ele>
        <time>2007-07-17T17:27:47Z</time>
      </trkpt>
      <trkpt lat="44.4712" lon="6.01499">
        <ele>685</ele>
        <time>2007-07-17T17:27:47Z</time>
      </trkpt>
      <trkpt lat="44.47126" lon="6.01503">
        <ele>680</ele>
        <time>2007-07-17T17:27:47Z</time>
      </trkpt>
      <trkpt lat="44.47135" lon="6.0151">
        <ele>680</ele>
        <time>2007-07-17T17:27:47Z</time>
      </trkpt>
      <trkpt lat="44.47144" lon="6.01517">
        <ele>681</ele>
        <time>2007-07-17T17:27:47Z</time>
      </trkpt>
      <trkpt lat="44.47148" lon="6.01523">
        <ele>681</ele>
        <time>2007-07-17T17:27:47Z</time>
      </trkpt>
      <trkpt lat="44.47157" lon="6.0153">
        <ele>681</ele>
        <time>2007-07-17T17:27:47Z</time>
      </trkpt>
      <trkpt lat="44.47164" lon="6.01534">
        <ele>681</ele>
        <time>2007-07-17T17:27:47Z</time>
      </trkpt>
      <trkpt lat="44.4717" lon="6.01537">
        <ele>689</ele>
        <time>2007-07-17T17:27:47Z</time>
      </trkpt>
      <trkpt lat="44.47179" lon="6.01541">
        <ele>689</ele>
        <time>2007-07-17T17:27:47Z</time>
      </trkpt>
      <trkpt lat="44.47188" lon="6.01545">
        <ele>689</ele>
        <time>2007-07-17T17:27:47Z</time>
      </trkpt>
      <trkpt lat="44.47197" lon="6.01548">
        <ele>690</ele>
        <time>2007-07-17T17:27:47Z</time>
      </trkpt>
      <trkpt lat="44.47203" lon="6.01552">
        <ele>690</ele>
        <time>2007-07-17T17:27:47Z</time>
      </trkpt>
      <trkpt lat="44.47212" lon="6.01559">
        <ele>690</ele>
        <time>2007-07-17T17:27:47Z</time>
      </trkpt>
      <trkpt lat="44.47219" lon="6.01572">
        <ele>690</ele>
        <time>2007-07-17T17:27:47Z</time>
      </trkpt>
      <trkpt lat="44.47223" lon="6.01582">
        <ele>690</ele>
        <time>2007-07-17T17:27:47Z</time>
      </trkpt>
      <trkpt lat="44.47229" lon="6.01591">
        <ele>686</ele>
        <time>2007-07-17T17:27:47Z</time>
      </trkpt>
      <trkpt lat="44.47233" lon="6.01601">
        <ele>686</ele>
        <time>2007-07-17T17:27:47Z</time>
      </trkpt>
      <trkpt lat="44.47235" lon="6.01611">
        <ele>685</ele>
        <time>2007-07-17T17:27:47Z</time>
      </trkpt>
      <trkpt lat="44.4724" lon="6.01617">
        <ele>685</ele>
        <time>2007-07-17T17:27:47Z</time>
      </trkpt>
      <trkpt lat="44.47241" lon="6.01627">
        <ele>685</ele>
        <time>2007-07-17T17:27:47Z</time>
      </trkpt>
      <trkpt lat="44.47243" lon="6.01636">
        <ele>685</ele>
        <time>2007-07-17T17:27:47Z</time>
      </trkpt>
      <trkpt lat="44.47245" lon="6.01646">
        <ele>685</ele>
        <time>2007-07-17T17:27:47Z</time>
      </trkpt>
      <trkpt lat="44.47252" lon="6.01656">
        <ele>690</ele>
        <time>2007-07-17T17:27:47Z</time>
      </trkpt>
      <trkpt lat="44.47256" lon="6.01665">
        <ele>688</ele>
        <time>2007-07-17T17:27:47Z</time>
      </trkpt>
      <trkpt lat="44.4726" lon="6.01672">
        <ele>688</ele>
        <time>2007-07-17T17:27:47Z</time>
      </trkpt>
      <trkpt lat="44.47264" lon="6.01679">
        <ele>689</ele>
        <time>2007-07-17T17:27:47Z</time>
      </trkpt>
      <trkpt lat="44.47271" lon="6.01685">
        <ele>690</ele>
        <time>2007-07-17T17:27:47Z</time>
      </trkpt>
      <trkpt lat="44.47275" lon="6.01698">
        <ele>691</ele>
        <time>2007-07-17T17:27:47Z</time>
      </trkpt>
      <trkpt lat="44.47279" lon="6.01708">
        <ele>691</ele>
        <time>2007-07-17T17:27:47Z</time>
      </trkpt>
      <trkpt lat="44.47283" lon="6.01718">
        <ele>691</ele>
        <time>2007-07-17T17:27:47Z</time>
      </trkpt>
      <trkpt lat="44.47285" lon="6.01727">
        <ele>691</ele>
        <time>2007-07-17T17:27:47Z</time>
      </trkpt>
      <trkpt lat="44.47287" lon="6.01737">
        <ele>690</ele>
        <time>2007-07-17T17:27:47Z</time>
      </trkpt>
      <trkpt lat="44.47294" lon="6.0174">
        <ele>691</ele>
        <time>2007-07-17T17:27:47Z</time>
      </trkpt>
      <trkpt lat="44.473" lon="6.01747">
        <ele>691</ele>
        <time>2007-07-17T17:27:47Z</time>
      </trkpt>
      <trkpt lat="44.47307" lon="6.01754">
        <ele>690</ele>
        <time>2007-07-17T17:27:47Z</time>
      </trkpt>
      <trkpt lat="44.47311" lon="6.0176">
        <ele>690</ele>
        <time>2007-07-17T17:27:47Z</time>
      </trkpt>
      <trkpt lat="44.47313" lon="6.0177">
        <ele>690</ele>
        <time>2007-07-17T17:27:47Z</time>
      </trkpt>
      <trkpt lat="44.47317" lon="6.01783">
        <ele>690</ele>
        <time>2007-07-17T17:27:47Z</time>
      </trkpt>
      <trkpt lat="44.47319" lon="6.01795">
        <ele>690</ele>
        <time>2007-07-17T17:27:47Z</time>
      </trkpt>
      <trkpt lat="44.47321" lon="6.01805">
        <ele>689</ele>
        <time>2007-07-17T17:27:47Z</time>
      </trkpt>
      <trkpt lat="44.47323" lon="6.01814">
        <ele>689</ele>
        <time>2007-07-17T17:27:47Z</time>
      </trkpt>
      <trkpt lat="44.47325" lon="6.01827">
        <ele>689</ele>
        <time>2007-07-17T17:27:47Z</time>
      </trkpt>
      <trkpt lat="44.47327" lon="6.01837">
        <ele>689</ele>
        <time>2007-07-17T17:27:47Z</time>
      </trkpt>
      <trkpt lat="44.47331" lon="6.01843">
        <ele>690</ele>
        <time>2007-07-17T17:27:47Z</time>
      </trkpt>
      <trkpt lat="44.47335" lon="6.0185">
        <ele>690</ele>
        <time>2007-07-17T17:27:47Z</time>
      </trkpt>
      <trkpt lat="44.4734" lon="6.01856">
        <ele>691</ele>
        <time>2007-07-17T17:27:47Z</time>
      </trkpt>
      <trkpt lat="44.47346" lon="6.0186">
        <ele>691</ele>
        <time>2007-07-17T17:27:47Z</time>
      </trkpt>
      <trkpt lat="44.47353" lon="6.01864">
        <ele>691</ele>
        <time>2007-07-17T17:27:47Z</time>
      </trkpt>
      <trkpt lat="44.47359" lon="6.01867">
        <ele>691</ele>
        <time>2007-07-17T17:27:47Z</time>
      </trkpt>
      <trkpt lat="44.47366" lon="6.01874">
        <ele>691</ele>
        <time>2007-07-17T17:27:47Z</time>
      </trkpt>
      <trkpt lat="44.47375" lon="6.01878">
        <ele>692</ele>
        <time>2007-07-17T17:27:47Z</time>
      </trkpt>
      <trkpt lat="44.47381" lon="6.01884">
        <ele>692</ele>
        <time>2007-07-17T17:27:47Z</time>
      </trkpt>
      <trkpt lat="44.4739" lon="6.01885">
        <ele>692</ele>
        <time>2007-07-17T17:27:47Z</time>
      </trkpt>
      <trkpt lat="44.47402" lon="6.01886">
        <ele>692</ele>
        <time>2007-07-17T17:27:47Z</time>
      </trkpt>
      <trkpt lat="44.47413" lon="6.01886">
        <ele>692</ele>
        <time>2007-07-17T17:27:47Z</time>
      </trkpt>
      <trkpt lat="44.47422" lon="6.01887">
        <ele>694</ele>
        <time>2007-07-17T17:27:47Z</time>
      </trkpt>
      <trkpt lat="44.47429" lon="6.01887">
        <ele>694</ele>
        <time>2007-07-17T17:27:47Z</time>
      </trkpt>
      <trkpt lat="44.47438" lon="6.01888">
        <ele>694</ele>
        <time>2007-07-17T17:27:47Z</time>
      </trkpt>
      <trkpt lat="44.47444" lon="6.01892">
        <ele>695</ele>
        <time>2007-07-17T17:27:47Z</time>
      </trkpt>
      <trkpt lat="44.47451" lon="6.01898">
        <ele>695</ele>
        <time>2007-07-17T17:27:47Z</time>
      </trkpt>
      <trkpt lat="44.47457" lon="6.01905">
        <ele>695</ele>
        <time>2007-07-17T17:27:47Z</time>
      </trkpt>
      <trkpt lat="44.47464" lon="6.01909">
        <ele>695</ele>
        <time>2007-07-17T17:27:47Z</time>
      </trkpt>
      <trkpt lat="44.4747" lon="6.01912">
        <ele>695</ele>
        <time>2007-07-17T17:27:47Z</time>
      </trkpt>
      <trkpt lat="44.47479" lon="6.01916">
        <ele>695</ele>
        <time>2007-07-17T17:27:47Z</time>
      </trkpt>
      <trkpt lat="44.47488" lon="6.0192">
        <ele>696</ele>
        <time>2007-07-17T17:27:47Z</time>
      </trkpt>
      <trkpt lat="44.47495" lon="6.01923">
        <ele>696</ele>
        <time>2007-07-17T17:27:47Z</time>
      </trkpt>
      <trkpt lat="44.47501" lon="6.01927">
        <ele>697</ele>
        <time>2007-07-17T17:27:47Z</time>
      </trkpt>
      <trkpt lat="44.47508" lon="6.0193">
        <ele>697</ele>
        <time>2007-07-17T17:27:47Z</time>
      </trkpt>
      <trkpt lat="44.47515" lon="6.01934">
        <ele>697</ele>
        <time>2007-07-17T17:27:47Z</time>
      </trkpt>
      <trkpt lat="44.47519" lon="6.0194">
        <ele>697</ele>
        <time>2007-07-17T17:27:47Z</time>
      </trkpt>
      <trkpt lat="44.47523" lon="6.01947">
        <ele>697</ele>
        <time>2007-07-17T17:27:47Z</time>
      </trkpt>
      <trkpt lat="44.47527" lon="6.01957">
        <ele>697</ele>
        <time>2007-07-17T17:27:47Z</time>
      </trkpt>
      <trkpt lat="44.47527" lon="6.01969">
        <ele>698</ele>
        <time>2007-07-17T17:27:47Z</time>
      </trkpt>
      <trkpt lat="44.47527" lon="6.01982">
        <ele>698</ele>
        <time>2007-07-17T17:27:47Z</time>
      </trkpt>
      <trkpt lat="44.47528" lon="6.01994">
        <ele>698</ele>
        <time>2007-07-17T17:27:47Z</time>
      </trkpt>
      <trkpt lat="44.47528" lon="6.02007">
        <ele>699</ele>
        <time>2007-07-17T17:27:47Z</time>
      </trkpt>
      <trkpt lat="44.4753" lon="6.02017">
        <ele>699</ele>
        <time>2007-07-17T17:27:47Z</time>
      </trkpt>
      <trkpt lat="44.47532" lon="6.02026">
        <ele>699</ele>
        <time>2007-07-17T17:27:47Z</time>
      </trkpt>
      <trkpt lat="44.47538" lon="6.02033">
        <ele>699</ele>
        <time>2007-07-17T17:27:47Z</time>
      </trkpt>
      <trkpt lat="44.47545" lon="6.02036">
        <ele>699</ele>
        <time>2007-07-17T17:27:47Z</time>
      </trkpt>
      <trkpt lat="44.47554" lon="6.02037">
        <ele>699</ele>
        <time>2007-07-17T17:27:47Z</time>
      </trkpt>
      <trkpt lat="44.47563" lon="6.02038">
        <ele>699</ele>
        <time>2007-07-17T17:27:47Z</time>
      </trkpt>
      <trkpt lat="44.47572" lon="6.02038">
        <ele>699</ele>
        <time>2007-07-17T17:27:47Z</time>
      </trkpt>
      <trkpt lat="44.47581" lon="6.02039">
        <ele>699</ele>
        <time>2007-07-17T17:27:47Z</time>
      </trkpt>
      <trkpt lat="44.4759" lon="6.02043">
        <ele>698</ele>
        <time>2007-07-17T17:27:47Z</time>
      </trkpt>
      <trkpt lat="44.47599" lon="6.02043">
        <ele>697</ele>
        <time>2007-07-17T17:27:47Z</time>
      </trkpt>
      <trkpt lat="44.4761" lon="6.02044">
        <ele>697</ele>
        <time>2007-07-17T17:27:47Z</time>
      </trkpt>
      <trkpt lat="44.47619" lon="6.02044">
        <ele>697</ele>
        <time>2007-07-17T17:27:47Z</time>
      </trkpt>
      <trkpt lat="44.47628" lon="6.02045">
        <ele>697</ele>
        <time>2007-07-17T17:27:47Z</time>
      </trkpt>
      <trkpt lat="44.47637" lon="6.02046">
        <ele>697</ele>
        <time>2007-07-17T17:27:47Z</time>
      </trkpt>
      <trkpt lat="44.47644" lon="6.02043">
        <ele>697</ele>
        <time>2007-07-17T17:27:47Z</time>
      </trkpt>
      <trkpt lat="44.47651" lon="6.0204">
        <ele>697</ele>
        <time>2007-07-17T17:27:47Z</time>
      </trkpt>
      <trkpt lat="44.47658" lon="6.02034">
        <ele>697</ele>
        <time>2007-07-17T17:27:47Z</time>
      </trkpt>
      <trkpt lat="44.47667" lon="6.02035">
        <ele>695</ele>
        <time>2007-07-17T17:27:47Z</time>
      </trkpt>
      <trkpt lat="44.47676" lon="6.02036">
        <ele>695</ele>
        <time>2007-07-17T17:27:47Z</time>
      </trkpt>
      <trkpt lat="44.47682" lon="6.02036">
        <ele>695</ele>
        <time>2007-07-17T17:27:47Z</time>
      </trkpt>
      <trkpt lat="44.47691" lon="6.02037">
        <ele>695</ele>
        <time>2007-07-17T17:27:47Z</time>
      </trkpt>
      <trkpt lat="44.477" lon="6.02037">
        <ele>694</ele>
        <time>2007-07-17T17:27:47Z</time>
      </trkpt>
      <trkpt lat="44.47709" lon="6.02038">
        <ele>694</ele>
        <time>2007-07-17T17:27:47Z</time>
      </trkpt>
      <trkpt lat="44.47718" lon="6.02038">
        <ele>694</ele>
        <time>2007-07-17T17:27:47Z</time>
      </trkpt>
      <trkpt lat="44.47727" lon="6.02039">
        <ele>694</ele>
        <time>2007-07-17T17:27:47Z</time>
      </trkpt>
      <trkpt lat="44.47736" lon="6.0204">
        <ele>694</ele>
        <time>2007-07-17T17:27:47Z</time>
      </trkpt>
      <trkpt lat="44.47745" lon="6.0204">
        <ele>694</ele>
        <time>2007-07-17T17:27:47Z</time>
      </trkpt>
      <trkpt lat="44.47754" lon="6.02041">
        <ele>692</ele>
        <time>2007-07-17T17:27:47Z</time>
      </trkpt>
      <trkpt lat="44.47761" lon="6.02044">
        <ele>691</ele>
        <time>2007-07-17T17:27:47Z</time>
      </trkpt>
      <trkpt lat="44.47765" lon="6.02051">
        <ele>691</ele>
        <time>2007-07-17T17:27:47Z</time>
      </trkpt>
      <trkpt lat="44.47769" lon="6.02057">
        <ele>691</ele>
        <time>2007-07-17T17:27:47Z</time>
      </trkpt>
      <trkpt lat="44.47774" lon="6.02064">
        <ele>691</ele>
        <time>2007-07-17T17:27:47Z</time>
      </trkpt>
      <trkpt lat="44.47778" lon="6.02071">
        <ele>691</ele>
        <time>2007-07-17T17:27:47Z</time>
      </trkpt>
      <trkpt lat="44.47785" lon="6.02077">
        <ele>691</ele>
        <time>2007-07-17T17:27:47Z</time>
      </trkpt>
      <trkpt lat="44.47791" lon="6.02081">
        <ele>691</ele>
        <time>2007-07-17T17:27:47Z</time>
      </trkpt>
      <trkpt lat="44.478" lon="6.02085">
        <ele>688</ele>
        <time>2007-07-17T17:27:47Z</time>
      </trkpt>
      <trkpt lat="44.47809" lon="6.02085">
        <ele>688</ele>
        <time>2007-07-17T17:27:47Z</time>
      </trkpt>
      <trkpt lat="44.47818" lon="6.02086">
        <ele>688</ele>
        <time>2007-07-17T17:27:47Z</time>
      </trkpt>
      <trkpt lat="44.47825" lon="6.02089">
        <ele>688</ele>
        <time>2007-07-17T17:27:47Z</time>
      </trkpt>
      <trkpt lat="44.47831" lon="6.02093">
        <ele>688</ele>
        <time>2007-07-17T17:27:47Z</time>
      </trkpt>
      <trkpt lat="44.4784" lon="6.02097">
        <ele>686</ele>
        <time>2007-07-17T17:27:47Z</time>
      </trkpt>
      <trkpt lat="44.47447" lon="6.01889">
        <ele>695</ele>
        <time>2007-07-17T17:27:47Z</time>
      </trkpt>
      <trkpt lat="44.47449" lon="6.01895">
        <ele>695</ele>
        <time>2007-07-17T17:27:47Z</time>
      </trkpt>
      <trkpt lat="44.47453" lon="6.01898">
        <ele>695</ele>
        <time>2007-07-17T17:27:47Z</time>
      </trkpt>
      <trkpt lat="44.4746" lon="6.01902">
        <ele>695</ele>
        <time>2007-07-17T17:27:47Z</time>
      </trkpt>
      <trkpt lat="44.47464" lon="6.01909">
        <ele>695</ele>
        <time>2007-07-17T17:27:47Z</time>
      </trkpt>
      <trkpt lat="44.47468" lon="6.01915">
        <ele>695</ele>
        <time>2007-07-17T17:27:47Z</time>
      </trkpt>
      <trkpt lat="44.47472" lon="6.01922">
        <ele>696</ele>
        <time>2007-07-17T17:27:47Z</time>
      </trkpt>
      <trkpt lat="44.47477" lon="6.01928">
        <ele>696</ele>
        <time>2007-07-17T17:27:47Z</time>
      </trkpt>
      <trkpt lat="44.47481" lon="6.01935">
        <ele>696</ele>
        <time>2007-07-17T17:27:47Z</time>
      </trkpt>
      <trkpt lat="44.47485" lon="6.01935">
        <ele>696</ele>
        <time>2007-07-17T17:27:47Z</time>
      </trkpt>
      <trkpt lat="44.47492" lon="6.01939">
        <ele>696</ele>
        <time>2007-07-17T17:27:47Z</time>
      </trkpt>
      <trkpt lat="44.47497" lon="6.01939">
        <ele>696</ele>
        <time>2007-07-17T17:27:47Z</time>
      </trkpt>
      <trkpt lat="44.47503" lon="6.01943">
        <ele>697</ele>
        <time>2007-07-17T17:27:47Z</time>
      </trkpt>
      <trkpt lat="44.47508" lon="6.01943">
        <ele>697</ele>
        <time>2007-07-17T17:27:47Z</time>
      </trkpt>
      <trkpt lat="44.47515" lon="6.0194">
        <ele>697</ele>
        <time>2007-07-17T17:27:47Z</time>
      </trkpt>
      <trkpt lat="44.47519" lon="6.0194">
        <ele>697</ele>
        <time>2007-07-17T17:27:47Z</time>
      </trkpt>
      <trkpt lat="44.47521" lon="6.0195">
        <ele>697</ele>
        <time>2007-07-17T17:27:47Z</time>
      </trkpt>
      <trkpt lat="44.47523" lon="6.01956">
        <ele>697</ele>
        <time>2007-07-17T17:27:47Z</time>
      </trkpt>
      <trkpt lat="44.47523" lon="6.01963">
        <ele>698</ele>
        <time>2007-07-17T17:27:47Z</time>
      </trkpt>
      <trkpt lat="44.47523" lon="6.01969">
        <ele>698</ele>
        <time>2007-07-17T17:27:47Z</time>
      </trkpt>
      <trkpt lat="44.47522" lon="6.01975">
        <ele>698</ele>
        <time>2007-07-17T17:27:47Z</time>
      </trkpt>
      <trkpt lat="44.47522" lon="6.01981">
        <ele>698</ele>
        <time>2007-07-17T17:27:47Z</time>
      </trkpt>
      <trkpt lat="44.47524" lon="6.01991">
        <ele>698</ele>
        <time>2007-07-17T17:27:47Z</time>
      </trkpt>
      <trkpt lat="44.47528" lon="6.01998">
        <ele>698</ele>
        <time>2007-07-17T17:27:47Z</time>
      </trkpt>
      <trkpt lat="44.47533" lon="6.02004">
        <ele>699</ele>
        <time>2007-07-17T17:27:47Z</time>
      </trkpt>
      <trkpt lat="44.47537" lon="6.02011">
        <ele>699</ele>
        <time>2007-07-17T17:27:47Z</time>
      </trkpt>
      <trkpt lat="44.47541" lon="6.02017">
        <ele>699</ele>
        <time>2007-07-17T17:27:47Z</time>
      </trkpt>
      <trkpt lat="44.47541" lon="6.02024">
        <ele>699</ele>
        <time>2007-07-17T17:27:47Z</time>
      </trkpt>
      <trkpt lat="44.47545" lon="6.0203">
        <ele>699</ele>
        <time>2007-07-17T17:27:47Z</time>
      </trkpt>
      <trkpt lat="44.4755" lon="6.02037">
        <ele>699</ele>
        <time>2007-07-17T17:27:47Z</time>
      </trkpt>
      <trkpt lat="44.47554" lon="6.02037">
        <ele>699</ele>
        <time>2007-07-17T17:27:47Z</time>
      </trkpt>
      <trkpt lat="44.47561" lon="6.02041">
        <ele>699</ele>
        <time>2007-07-17T17:27:47Z</time>
      </trkpt>
      <trkpt lat="44.47567" lon="6.02044">
        <ele>699</ele>
        <time>2007-07-17T17:27:47Z</time>
      </trkpt>
      <trkpt lat="44.47572" lon="6.02044">
        <ele>699</ele>
        <time>2007-07-17T17:27:47Z</time>
      </trkpt>
      <trkpt lat="44.47576" lon="6.02045">
        <ele>699</ele>
        <time>2007-07-17T17:27:47Z</time>
      </trkpt>
      <trkpt lat="44.47583" lon="6.02045">
        <ele>699</ele>
        <time>2007-07-17T17:27:47Z</time>
      </trkpt>
      <trkpt lat="44.47588" lon="6.02046">
        <ele>698</ele>
        <time>2007-07-17T17:27:47Z</time>
      </trkpt>
      <trkpt lat="44.47592" lon="6.02046">
        <ele>698</ele>
        <time>2007-07-17T17:27:47Z</time>
      </trkpt>
      <trkpt lat="44.47597" lon="6.02046">
        <ele>697</ele>
        <time>2007-07-17T17:27:47Z</time>
      </trkpt>
      <trkpt lat="44.47601" lon="6.02046">
        <ele>697</ele>
        <time>2007-07-17T17:27:47Z</time>
      </trkpt>
      <trkpt lat="44.47606" lon="6.02047">
        <ele>697</ele>
        <time>2007-07-17T17:27:47Z</time>
      </trkpt>
      <trkpt lat="44.4761" lon="6.02047">
        <ele>697</ele>
        <time>2007-07-17T17:27:47Z</time>
      </trkpt>
      <trkpt lat="44.47614" lon="6.02047">
        <ele>697</ele>
        <time>2007-07-17T17:27:47Z</time>
      </trkpt>
      <trkpt lat="44.47619" lon="6.02048">
        <ele>697</ele>
        <time>2007-07-17T17:27:47Z</time>
      </trkpt>
      <trkpt lat="44.47623" lon="6.02048">
        <ele>697</ele>
        <time>2007-07-17T17:27:47Z</time>
      </trkpt>
      <trkpt lat="44.47628" lon="6.02048">
        <ele>697</ele>
        <time>2007-07-17T17:27:47Z</time>
      </trkpt>
      <trkpt lat="44.47635" lon="6.02049">
        <ele>697</ele>
        <time>2007-07-17T17:27:47Z</time>
      </trkpt>
      <trkpt lat="44.47639" lon="6.02049">
        <ele>697</ele>
        <time>2007-07-17T17:27:47Z</time>
      </trkpt>
      <trkpt lat="44.47644" lon="6.02049">
        <ele>697</ele>
        <time>2007-07-17T17:27:47Z</time>
      </trkpt>
      <trkpt lat="44.47648" lon="6.02049">
        <ele>697</ele>
        <time>2007-07-17T17:27:47Z</time>
      </trkpt>
      <trkpt lat="44.47655" lon="6.02047">
        <ele>696</ele>
        <time>2007-07-17T17:27:47Z</time>
      </trkpt>
      <trkpt lat="44.47662" lon="6.02041">
        <ele>696</ele>
        <time>2007-07-17T17:27:47Z</time>
      </trkpt>
      <trkpt lat="44.47666" lon="6.02041">
        <ele>696</ele>
        <time>2007-07-17T17:27:47Z</time>
      </trkpt>
      <trkpt lat="44.47673" lon="6.02035">
        <ele>695</ele>
        <time>2007-07-17T17:27:47Z</time>
      </trkpt>
      <trkpt lat="44.4768" lon="6.02036">
        <ele>695</ele>
        <time>2007-07-17T17:27:47Z</time>
      </trkpt>
      <trkpt lat="44.47687" lon="6.02033">
        <ele>695</ele>
        <time>2007-07-17T17:27:47Z</time>
      </trkpt>
      <trkpt lat="44.47694" lon="6.02034">
        <ele>695</ele>
        <time>2007-07-17T17:27:47Z</time>
      </trkpt>
      <trkpt lat="44.47698" lon="6.02034">
        <ele>694</ele>
        <time>2007-07-17T17:27:47Z</time>
      </trkpt>
      <trkpt lat="44.47703" lon="6.02034">
        <ele>694</ele>
        <time>2007-07-17T17:27:47Z</time>
      </trkpt>
      <trkpt lat="44.47707" lon="6.02034">
        <ele>694</ele>
        <time>2007-07-17T17:27:47Z</time>
      </trkpt>
      <trkpt lat="44.47712" lon="6.02035">
        <ele>694</ele>
        <time>2007-07-17T17:27:47Z</time>
      </trkpt>
      <trkpt lat="44.47716" lon="6.02035">
        <ele>694</ele>
        <time>2007-07-17T17:27:47Z</time>
      </trkpt>
      <trkpt lat="44.47721" lon="6.02035">
        <ele>694</ele>
        <time>2007-07-17T17:27:47Z</time>
      </trkpt>
      <trkpt lat="44.47725" lon="6.02036">
        <ele>694</ele>
        <time>2007-07-17T17:27:47Z</time>
      </trkpt>
      <trkpt lat="44.4773" lon="6.02036">
        <ele>694</ele>
        <time>2007-07-17T17:27:47Z</time>
      </trkpt>
      <trkpt lat="44.47734" lon="6.02036">
        <ele>694</ele>
        <time>2007-07-17T17:27:47Z</time>
      </trkpt>
      <trkpt lat="44.47739" lon="6.02037">
        <ele>694</ele>
        <time>2007-07-17T17:27:47Z</time>
      </trkpt>
      <trkpt lat="44.47743" lon="6.02037">
        <ele>694</ele>
        <time>2007-07-17T17:27:47Z</time>
      </trkpt>
      <trkpt lat="44.47748" lon="6.02037">
        <ele>694</ele>
        <time>2007-07-17T17:27:47Z</time>
      </trkpt>
      <trkpt lat="44.47752" lon="6.02037">
        <ele>692</ele>
        <time>2007-07-17T17:27:47Z</time>
      </trkpt>
      <trkpt lat="44.47757" lon="6.02038">
        <ele>692</ele>
        <time>2007-07-17T17:27:47Z</time>
      </trkpt>
      <trkpt lat="44.47761" lon="6.02038">
        <ele>691</ele>
        <time>2007-07-17T17:27:47Z</time>
      </trkpt>
      <trkpt lat="44.47765" lon="6.02045">
        <ele>691</ele>
        <time>2007-07-17T17:27:47Z</time>
      </trkpt>
      <trkpt lat="44.4777" lon="6.02051">
        <ele>691</ele>
        <time>2007-07-17T17:27:47Z</time>
      </trkpt>
      <trkpt lat="44.47774" lon="6.02058">
        <ele>691</ele>
        <time>2007-07-17T17:27:47Z</time>
      </trkpt>
      <trkpt lat="44.47778" lon="6.02058">
        <ele>691</ele>
        <time>2007-07-17T17:27:47Z</time>
      </trkpt>
      <trkpt lat="44.47783" lon="6.02065">
        <ele>691</ele>
        <time>2007-07-17T17:27:47Z</time>
      </trkpt>
      <trkpt lat="44.47787" lon="6.02065">
        <ele>691</ele>
        <time>2007-07-17T17:27:47Z</time>
      </trkpt>
      <trkpt lat="44.47792" lon="6.02068">
        <ele>691</ele>
        <time>2007-07-17T17:27:47Z</time>
      </trkpt>
      <trkpt lat="44.47796" lon="6.02069">
        <ele>691</ele>
        <time>2007-07-17T17:27:47Z</time>
      </trkpt>
      <trkpt lat="44.47803" lon="6.02072">
        <ele>690</ele>
        <time>2007-07-17T17:27:47Z</time>
      </trkpt>
      <trkpt lat="44.47809" lon="6.02076">
        <ele>690</ele>
        <time>2007-07-17T17:27:47Z</time>
      </trkpt>
      <trkpt lat="44.47816" lon="6.02079">
        <ele>689</ele>
        <time>2007-07-17T17:27:47Z</time>
      </trkpt>
      <trkpt lat="44.4782" lon="6.0208">
        <ele>689</ele>
        <time>2007-07-17T17:27:47Z</time>
      </trkpt>
      <trkpt lat="44.47827" lon="6.02083">
        <ele>689</ele>
        <time>2007-07-17T17:27:47Z</time>
      </trkpt>
      <trkpt lat="44.47834" lon="6.02087">
        <ele>687</ele>
        <time>2007-07-17T17:27:47Z</time>
      </trkpt>
      <trkpt lat="44.4784" lon="6.0209">
        <ele>686</ele>
        <time>2007-07-17T17:27:47Z</time>
      </trkpt>
      <trkpt lat="44.47845" lon="6.02097">
        <ele>685</ele>
        <time>2007-07-17T17:27:47Z</time>
      </trkpt>
      <trkpt lat="44.47851" lon="6.02104">
        <ele>684</ele>
        <time>2007-07-17T17:27:47Z</time>
      </trkpt>
      <trkpt lat="44.47856" lon="6.02107">
        <ele>684</ele>
        <time>2007-07-17T17:27:47Z</time>
      </trkpt>
      <trkpt lat="44.47862" lon="6.02111">
        <ele>684</ele>
        <time>2007-07-17T17:27:47Z</time>
      </trkpt>
      <trkpt lat="44.47869" lon="6.02114">
        <ele>683</ele>
        <time>2007-07-17T17:27:47Z</time>
      </trkpt>
      <trkpt lat="44.47875" lon="6.02118">
        <ele>683</ele>
        <time>2007-07-17T17:27:47Z</time>
      </trkpt>
      <trkpt lat="44.47882" lon="6.02121">
        <ele>683</ele>
        <time>2007-07-17T17:27:47Z</time>
      </trkpt>
      <trkpt lat="44.47886" lon="6.02128">
        <ele>682</ele>
        <time>2007-07-17T17:27:47Z</time>
      </trkpt>
      <trkpt lat="44.47891" lon="6.02131">
        <ele>682</ele>
        <time>2007-07-17T17:27:47Z</time>
      </trkpt>
      <trkpt lat="44.47895" lon="6.02135">
        <ele>682</ele>
        <time>2007-07-17T17:27:47Z</time>
      </trkpt>
      <trkpt lat="44.47902" lon="6.02138">
        <ele>682</ele>
        <time>2007-07-17T17:27:47Z</time>
      </trkpt>
      <trkpt lat="44.47906" lon="6.02145">
        <ele>681</ele>
        <time>2007-07-17T17:27:47Z</time>
      </trkpt>
      <trkpt lat="44.47908" lon="6.02151">
        <ele>681</ele>
        <time>2007-07-17T17:27:47Z</time>
      </trkpt>
      <trkpt lat="44.47908" lon="6.02158">
        <ele>680</ele>
        <time>2007-07-17T17:27:47Z</time>
      </trkpt>
      <trkpt lat="44.4791" lon="6.02167">
        <ele>679</ele>
        <time>2007-07-17T17:27:47Z</time>
      </trkpt>
      <trkpt lat="44.47914" lon="6.02177">
        <ele>679</ele>
        <time>2007-07-17T17:27:47Z</time>
      </trkpt>
      <trkpt lat="44.47916" lon="6.02183">
        <ele>678</ele>
        <time>2007-07-17T17:27:47Z</time>
      </trkpt>
      <trkpt lat="44.47916" lon="6.0219">
        <ele>678</ele>
        <time>2007-07-17T17:27:47Z</time>
      </trkpt>
      <trkpt lat="44.4792" lon="6.02196">
        <ele>673</ele>
        <time>2007-07-17T17:27:47Z</time>
      </trkpt>
      <trkpt lat="44.47927" lon="6.02203">
        <ele>672</ele>
        <time>2007-07-17T17:27:47Z</time>
      </trkpt>
      <trkpt lat="44.47931" lon="6.02209">
        <ele>672</ele>
        <time>2007-07-17T17:27:47Z</time>
      </trkpt>
      <trkpt lat="44.47935" lon="6.02213">
        <ele>671</ele>
        <time>2007-07-17T17:27:47Z</time>
      </trkpt>
      <trkpt lat="44.4794" lon="6.02216">
        <ele>671</ele>
        <time>2007-07-17T17:27:47Z</time>
      </trkpt>
      <trkpt lat="44.47944" lon="6.0222">
        <ele>671</ele>
        <time>2007-07-17T17:27:47Z</time>
      </trkpt>
      <trkpt lat="44.47948" lon="6.02223">
        <ele>670</ele>
        <time>2007-07-17T17:27:47Z</time>
      </trkpt>
      <trkpt lat="44.47953" lon="6.02227">
        <ele>670</ele>
        <time>2007-07-17T17:27:47Z</time>
      </trkpt>
      <trkpt lat="44.47955" lon="6.0223">
        <ele>670</ele>
        <time>2007-07-17T17:27:47Z</time>
      </trkpt>
      <trkpt lat="44.47957" lon="6.02227">
        <ele>670</ele>
        <time>2007-07-17T17:27:47Z</time>
      </trkpt>
      <trkpt lat="44.47958" lon="6.02221">
        <ele>670</ele>
        <time>2007-07-17T17:27:47Z</time>
      </trkpt>
      <trkpt lat="44.47958" lon="6.02214">
        <ele>670</ele>
        <time>2007-07-17T17:27:47Z</time>
      </trkpt>
      <trkpt lat="44.47956" lon="6.02208">
        <ele>670</ele>
        <time>2007-07-17T17:27:47Z</time>
      </trkpt>
      <trkpt lat="44.47954" lon="6.02205">
        <ele>670</ele>
        <time>2007-07-17T17:27:47Z</time>
      </trkpt>
      <trkpt lat="44.47954" lon="6.02198">
        <ele>671</ele>
        <time>2007-07-17T17:27:47Z</time>
      </trkpt>
      <trkpt lat="44.47954" lon="6.02192">
        <ele>671</ele>
        <time>2007-07-17T17:27:47Z</time>
      </trkpt>
      <trkpt lat="44.47954" lon="6.02186">
        <ele>671</ele>
        <time>2007-07-17T17:27:47Z</time>
      </trkpt>
      <trkpt lat="44.47954" lon="6.0218">
        <ele>671</ele>
        <time>2007-07-17T17:27:47Z</time>
      </trkpt>
      <trkpt lat="44.47957" lon="6.02177">
        <ele>671</ele>
        <time>2007-07-17T17:27:47Z</time>
      </trkpt>
      <trkpt lat="44.47959" lon="6.0217">
        <ele>671</ele>
        <time>2007-07-17T17:27:47Z</time>
      </trkpt>
      <trkpt lat="44.47964" lon="6.02164">
        <ele>674</ele>
        <time>2007-07-17T17:27:47Z</time>
      </trkpt>
      <trkpt lat="44.47964" lon="6.02158">
        <ele>674</ele>
        <time>2007-07-17T17:27:47Z</time>
      </trkpt>
      <trkpt lat="44.47964" lon="6.02152">
        <ele>675</ele>
        <time>2007-07-17T17:27:47Z</time>
      </trkpt>
      <trkpt lat="44.47965" lon="6.02146">
        <ele>675</ele>
        <time>2007-07-17T17:27:47Z</time>
      </trkpt>
      <trkpt lat="44.47965" lon="6.02139">
        <ele>675</ele>
        <time>2007-07-17T17:27:47Z</time>
      </trkpt>
      <trkpt lat="44.47967" lon="6.02136">
        <ele>675</ele>
        <time>2007-07-17T17:27:47Z</time>
      </trkpt>
      <trkpt lat="44.47969" lon="6.02133">
        <ele>675</ele>
        <time>2007-07-17T17:27:47Z</time>
      </trkpt>
      <trkpt lat="44.47974" lon="6.02134">
        <ele>675</ele>
        <time>2007-07-17T17:27:47Z</time>
      </trkpt>
      <trkpt lat="44.47976" lon="6.02131">
        <ele>675</ele>
        <time>2007-07-17T17:27:47Z</time>
      </trkpt>
      <trkpt lat="44.47981" lon="6.02131">
        <ele>675</ele>
        <time>2007-07-17T17:27:47Z</time>
      </trkpt>
      <trkpt lat="44.47983" lon="6.02134">
        <ele>674</ele>
        <time>2007-07-17T17:27:47Z</time>
      </trkpt>
      <trkpt lat="44.47985" lon="6.02138">
        <ele>674</ele>
        <time>2007-07-17T17:27:47Z</time>
      </trkpt>
      <trkpt lat="44.47989" lon="6.02147">
        <ele>672</ele>
        <time>2007-07-17T17:27:47Z</time>
      </trkpt>
      <trkpt lat="44.47991" lon="6.02154">
        <ele>671</ele>
        <time>2007-07-17T17:27:47Z</time>
      </trkpt>
      <trkpt lat="44.47993" lon="6.02157">
        <ele>670</ele>
        <time>2007-07-17T17:27:47Z</time>
      </trkpt>
      <trkpt lat="44.47993" lon="6.02163">
        <ele>669</ele>
        <time>2007-07-17T17:27:47Z</time>
      </trkpt>
      <trkpt lat="44.47995" lon="6.02167">
        <ele>667</ele>
        <time>2007-07-17T17:27:47Z</time>
      </trkpt>
      <trkpt lat="44.47995" lon="6.02173">
        <ele>667</ele>
        <time>2007-07-17T17:27:47Z</time>
      </trkpt>
      <trkpt lat="44.47997" lon="6.02176">
        <ele>667</ele>
        <time>2007-07-17T17:27:47Z</time>
      </trkpt>
      <trkpt lat="44.47999" lon="6.02179">
        <ele>667</ele>
        <time>2007-07-17T17:27:47Z</time>
      </trkpt>
      <trkpt lat="44.48002" lon="6.02183">
        <ele>665</ele>
        <time>2007-07-17T17:27:47Z</time>
      </trkpt>
      <trkpt lat="44.48004" lon="6.02189">
        <ele>664</ele>
        <time>2007-07-17T17:27:47Z</time>
      </trkpt>
      <trkpt lat="44.48008" lon="6.02193">
        <ele>664</ele>
        <time>2007-07-17T17:27:47Z</time>
      </trkpt>
      <trkpt lat="44.4801" lon="6.02199">
        <ele>664</ele>
        <time>2007-07-17T17:27:47Z</time>
      </trkpt>
      <trkpt lat="44.48014" lon="6.02202">
        <ele>663</ele>
        <time>2007-07-17T17:27:47Z</time>
      </trkpt>
      <trkpt lat="44.48016" lon="6.02209">
        <ele>663</ele>
        <time>2007-07-17T17:27:47Z</time>
      </trkpt>
      <trkpt lat="44.48021" lon="6.02212">
        <ele>663</ele>
        <time>2007-07-17T17:27:47Z</time>
      </trkpt>
      <trkpt lat="44.48025" lon="6.02216">
        <ele>663</ele>
        <time>2007-07-17T17:27:47Z</time>
      </trkpt>
      <trkpt lat="44.48027" lon="6.02219">
        <ele>662</ele>
        <time>2007-07-17T17:27:47Z</time>
      </trkpt>
      <trkpt lat="44.48029" lon="6.02222">
        <ele>662</ele>
        <time>2007-07-17T17:27:47Z</time>
      </trkpt>
      <trkpt lat="44.48034" lon="6.02226">
        <ele>662</ele>
        <time>2007-07-17T17:27:47Z</time>
      </trkpt>
      <trkpt lat="44.48036" lon="6.02229">
        <ele>662</ele>
        <time>2007-07-17T17:27:47Z</time>
      </trkpt>
      <trkpt lat="44.4804" lon="6.02232">
        <ele>661</ele>
        <time>2007-07-17T17:27:47Z</time>
      </trkpt>
      <trkpt lat="44.48043" lon="6.02236">
        <ele>661</ele>
        <time>2007-07-17T17:27:47Z</time>
      </trkpt>
      <trkpt lat="44.48045" lon="6.02239">
        <ele>661</ele>
        <time>2007-07-17T17:27:47Z</time>
      </trkpt>
      <trkpt lat="44.48047" lon="6.02242">
        <ele>661</ele>
        <time>2007-07-17T17:27:47Z</time>
      </trkpt>
      <trkpt lat="44.48049" lon="6.02245">
        <ele>660</ele>
        <time>2007-07-17T17:27:47Z</time>
      </trkpt>
      <trkpt lat="44.48051" lon="6.02252">
        <ele>656</ele>
        <time>2007-07-17T17:27:47Z</time>
      </trkpt>
      <trkpt lat="44.48053" lon="6.02258">
        <ele>656</ele>
        <time>2007-07-17T17:27:47Z</time>
      </trkpt>
      <trkpt lat="44.48055" lon="6.02262">
        <ele>656</ele>
        <time>2007-07-17T17:27:47Z</time>
      </trkpt>
      <trkpt lat="44.48057" lon="6.02265">
        <ele>655</ele>
        <time>2007-07-17T17:27:47Z</time>
      </trkpt>
      <trkpt lat="44.48059" lon="6.02271">
        <ele>655</ele>
        <time>2007-07-17T17:27:47Z</time>
      </trkpt>
      <trkpt lat="44.48061" lon="6.02275">
        <ele>655</ele>
        <time>2007-07-17T17:27:47Z</time>
      </trkpt>
      <trkpt lat="44.48064" lon="6.02278">
        <ele>655</ele>
        <time>2007-07-17T17:27:47Z</time>
      </trkpt>
      <trkpt lat="44.48066" lon="6.02284">
        <ele>655</ele>
        <time>2007-07-17T17:27:47Z</time>
      </trkpt>
      <trkpt lat="44.48068" lon="6.02288">
        <ele>655</ele>
        <time>2007-07-17T17:27:47Z</time>
      </trkpt>
      <trkpt lat="44.4807" lon="6.02291">
        <ele>655</ele>
        <time>2007-07-17T17:27:47Z</time>
      </trkpt>
      <trkpt lat="44.48072" lon="6.02294">
        <ele>654</ele>
        <time>2007-07-17T17:27:47Z</time>
      </trkpt>
      <trkpt lat="44.48074" lon="6.02297">
        <ele>654</ele>
        <time>2007-07-17T17:27:47Z</time>
      </trkpt>
      <trkpt lat="44.48076" lon="6.02301">
        <ele>654</ele>
        <time>2007-07-17T17:27:47Z</time>
      </trkpt>
      <trkpt lat="44.48081" lon="6.02304">
        <ele>653</ele>
        <time>2007-07-17T17:27:47Z</time>
      </trkpt>
      <trkpt lat="44.48083" lon="6.02307">
        <ele>653</ele>
        <time>2007-07-17T17:27:47Z</time>
      </trkpt>
      <trkpt lat="44.48085" lon="6.02314">
        <ele>649</ele>
        <time>2007-07-17T17:27:47Z</time>
      </trkpt>
      <trkpt lat="44.48087" lon="6.02317">
        <ele>649</ele>
        <time>2007-07-17T17:27:47Z</time>
      </trkpt>
      <trkpt lat="44.48091" lon="6.02321">
        <ele>649</ele>
        <time>2007-07-17T17:27:47Z</time>
      </trkpt>
      <trkpt lat="44.48094" lon="6.02324">
        <ele>649</ele>
        <time>2007-07-17T17:27:47Z</time>
      </trkpt>
      <trkpt lat="44.48098" lon="6.02324">
        <ele>649</ele>
        <time>2007-07-17T17:27:47Z</time>
      </trkpt>
      <trkpt lat="44.48102" lon="6.02328">
        <ele>649</ele>
        <time>2007-07-17T17:27:47Z</time>
      </trkpt>
      <trkpt lat="44.48107" lon="6.02328">
        <ele>649</ele>
        <time>2007-07-17T17:27:47Z</time>
      </trkpt>
      <trkpt lat="44.48111" lon="6.02328">
        <ele>649</ele>
        <time>2007-07-17T17:27:47Z</time>
      </trkpt>
      <trkpt lat="44.48116" lon="6.02328">
        <ele>649</ele>
        <time>2007-07-17T17:27:47Z</time>
      </trkpt>
      <trkpt lat="44.4812" lon="6.02329">
        <ele>649</ele>
        <time>2007-07-17T17:27:47Z</time>
      </trkpt>
      <trkpt lat="44.48125" lon="6.02329">
        <ele>649</ele>
        <time>2007-07-17T17:27:47Z</time>
      </trkpt>
      <trkpt lat="44.48129" lon="6.02329">
        <ele>649</ele>
        <time>2007-07-17T17:27:47Z</time>
      </trkpt>
      <trkpt lat="44.48134" lon="6.0233">
        <ele>649</ele>
        <time>2007-07-17T17:27:47Z</time>
      </trkpt>
      <trkpt lat="44.48138" lon="6.0233">
        <ele>649</ele>
        <time>2007-07-17T17:27:47Z</time>
      </trkpt>
      <trkpt lat="44.48145" lon="6.0233">
        <ele>649</ele>
        <time>2007-07-17T17:27:47Z</time>
      </trkpt>
      <trkpt lat="44.4815" lon="6.02331">
        <ele>649</ele>
        <time>2007-07-17T17:27:47Z</time>
      </trkpt>
      <trkpt lat="44.48154" lon="6.02331">
        <ele>649</ele>
        <time>2007-07-17T17:27:47Z</time>
      </trkpt>
      <trkpt lat="44.48159" lon="6.02331">
        <ele>649</ele>
        <time>2007-07-17T17:27:47Z</time>
      </trkpt>
      <trkpt lat="44.48163" lon="6.02332">
        <ele>648</ele>
        <time>2007-07-17T17:27:47Z</time>
      </trkpt>
      <trkpt lat="44.48168" lon="6.02332">
        <ele>648</ele>
        <time>2007-07-17T17:27:47Z</time>
      </trkpt>
      <trkpt lat="44.48172" lon="6.02332">
        <ele>649</ele>
        <time>2007-07-17T17:27:47Z</time>
      </trkpt>
      <trkpt lat="44.48177" lon="6.02332">
        <ele>650</ele>
        <time>2007-07-17T17:27:47Z</time>
      </trkpt>
      <trkpt lat="44.48181" lon="6.02333">
        <ele>650</ele>
        <time>2007-07-17T17:27:47Z</time>
      </trkpt>
      <trkpt lat="44.48186" lon="6.02333">
        <ele>651</ele>
        <time>2007-07-17T17:27:47Z</time>
      </trkpt>
      <trkpt lat="44.48188" lon="6.02336">
        <ele>653</ele>
        <time>2007-07-17T17:27:47Z</time>
      </trkpt>
      <trkpt lat="44.48185" lon="6.02342">
        <ele>653</ele>
        <time>2007-07-17T17:27:47Z</time>
      </trkpt>
      <trkpt lat="44.4818" lon="6.02352">
        <ele>654</ele>
        <time>2007-07-17T17:27:47Z</time>
      </trkpt>
      <trkpt lat="44.48176" lon="6.02354">
        <ele>653</ele>
        <time>2007-07-17T17:27:47Z</time>
      </trkpt>
      <trkpt lat="44.48171" lon="6.0236">
        <ele>654</ele>
        <time>2007-07-17T17:27:47Z</time>
      </trkpt>
      <trkpt lat="44.48167" lon="6.02363">
        <ele>654</ele>
        <time>2007-07-17T17:27:47Z</time>
      </trkpt>
      <trkpt lat="44.48164" lon="6.02366">
        <ele>649</ele>
        <time>2007-07-17T17:27:47Z</time>
      </trkpt>
      <trkpt lat="44.48159" lon="6.02372">
        <ele>650</ele>
        <time>2007-07-17T17:27:47Z</time>
      </trkpt>
      <trkpt lat="44.48157" lon="6.02375">
        <ele>650</ele>
        <time>2007-07-17T17:27:47Z</time>
      </trkpt>
      <trkpt lat="44.48153" lon="6.02378">
        <ele>650</ele>
        <time>2007-07-17T17:27:47Z</time>
      </trkpt>
      <trkpt lat="44.48152" lon="6.02384">
        <ele>650</ele>
        <time>2007-07-17T17:27:47Z</time>
      </trkpt>
      <trkpt lat="44.4815" lon="6.0239">
        <ele>650</ele>
        <time>2007-07-17T17:27:47Z</time>
      </trkpt>
      <trkpt lat="44.48147" lon="6.02397">
        <ele>650</ele>
        <time>2007-07-17T17:27:47Z</time>
      </trkpt>
      <trkpt lat="44.48147" lon="6.02403">
        <ele>651</ele>
        <time>2007-07-17T17:27:47Z</time>
      </trkpt>
      <trkpt lat="44.48145" lon="6.02409">
        <ele>651</ele>
        <time>2007-07-17T17:27:47Z</time>
      </trkpt>
      <trkpt lat="44.4814" lon="6.02418">
        <ele>651</ele>
        <time>2007-07-17T17:27:47Z</time>
      </trkpt>
      <trkpt lat="44.48138" lon="6.02421">
        <ele>650</ele>
        <time>2007-07-17T17:27:47Z</time>
      </trkpt>
      <trkpt lat="44.48135" lon="6.02424">
        <ele>650</ele>
        <time>2007-07-17T17:27:47Z</time>
      </trkpt>
      <trkpt lat="44.48135" lon="6.0243">
        <ele>650</ele>
        <time>2007-07-17T17:27:47Z</time>
      </trkpt>
      <trkpt lat="44.48131" lon="6.0243">
        <ele>649</ele>
        <time>2007-07-17T17:27:47Z</time>
      </trkpt>
      <trkpt lat="44.48128" lon="6.02436">
        <ele>649</ele>
        <time>2007-07-17T17:27:47Z</time>
      </trkpt>
      <trkpt lat="44.48126" lon="6.02439">
        <ele>649</ele>
        <time>2007-07-17T17:27:47Z</time>
      </trkpt>
      <trkpt lat="44.48121" lon="6.02442">
        <ele>648</ele>
        <time>2007-07-17T17:27:47Z</time>
      </trkpt>
      <trkpt lat="44.48119" lon="6.02445">
        <ele>648</ele>
        <time>2007-07-17T17:27:47Z</time>
      </trkpt>
      <trkpt lat="44.48116" lon="6.02448">
        <ele>648</ele>
        <time>2007-07-17T17:27:47Z</time>
      </trkpt>
      <trkpt lat="44.48114" lon="6.02451">
        <ele>648</ele>
        <time>2007-07-17T17:27:47Z</time>
      </trkpt>
      <trkpt lat="44.48112" lon="6.02454">
        <ele>648</ele>
        <time>2007-07-17T17:27:47Z</time>
      </trkpt>
      <trkpt lat="44.48109" lon="6.02457">
        <ele>647</ele>
        <time>2007-07-17T17:27:47Z</time>
      </trkpt>
      <trkpt lat="44.48107" lon="6.0246">
        <ele>647</ele>
        <time>2007-07-17T17:27:47Z</time>
      </trkpt>
      <trkpt lat="44.48107" lon="6.02466">
        <ele>647</ele>
        <time>2007-07-17T17:27:47Z</time>
      </trkpt>
      <trkpt lat="44.48107" lon="6.02472">
        <ele>647</ele>
        <time>2007-07-17T17:27:47Z</time>
      </trkpt>
      <trkpt lat="44.48104" lon="6.02475">
        <ele>646</ele>
        <time>2007-07-17T17:27:47Z</time>
      </trkpt>
      <trkpt lat="44.48104" lon="6.02482">
        <ele>646</ele>
        <time>2007-07-17T17:27:47Z</time>
      </trkpt>
      <trkpt lat="44.48102" lon="6.02488">
        <ele>645</ele>
        <time>2007-07-17T17:27:47Z</time>
      </trkpt>
      <trkpt lat="44.48101" lon="6.02494">
        <ele>645</ele>
        <time>2007-07-17T17:27:47Z</time>
      </trkpt>
      <trkpt lat="44.48101" lon="6.025">
        <ele>641</ele>
        <time>2007-07-17T17:27:47Z</time>
      </trkpt>
      <trkpt lat="44.48101" lon="6.02507">
        <ele>641</ele>
        <time>2007-07-17T17:27:47Z</time>
      </trkpt>
      <trkpt lat="44.48101" lon="6.02513">
        <ele>641</ele>
        <time>2007-07-17T17:27:47Z</time>
      </trkpt>
      <trkpt lat="44.48101" lon="6.02519">
        <ele>641</ele>
        <time>2007-07-17T17:27:47Z</time>
      </trkpt>
      <trkpt lat="44.481" lon="6.02526">
        <ele>641</ele>
        <time>2007-07-17T17:27:47Z</time>
      </trkpt>
      <trkpt lat="44.481" lon="6.02532">
        <ele>641</ele>
        <time>2007-07-17T17:27:47Z</time>
      </trkpt>
      <trkpt lat="44.481" lon="6.02538">
        <ele>640</ele>
        <time>2007-07-17T17:27:47Z</time>
      </trkpt>
      <trkpt lat="44.48104" lon="6.02538">
        <ele>641</ele>
        <time>2007-07-17T17:27:47Z</time>
      </trkpt>
      <trkpt lat="44.48107" lon="6.02542">
        <ele>641</ele>
        <time>2007-07-17T17:27:47Z</time>
      </trkpt>
      <trkpt lat="44.48111" lon="6.02542">
        <ele>641</ele>
        <time>2007-07-17T17:27:47Z</time>
      </trkpt>
      <trkpt lat="44.48116" lon="6.02542">
        <ele>641</ele>
        <time>2007-07-17T17:27:47Z</time>
      </trkpt>
      <trkpt lat="44.4812" lon="6.02543">
        <ele>641</ele>
        <time>2007-07-17T17:27:47Z</time>
      </trkpt>
      <trkpt lat="44.48124" lon="6.02543">
        <ele>642</ele>
        <time>2007-07-17T17:27:47Z</time>
      </trkpt>
      <trkpt lat="44.48129" lon="6.02543">
        <ele>642</ele>
        <time>2007-07-17T17:27:47Z</time>
      </trkpt>
      <trkpt lat="44.48133" lon="6.02543">
        <ele>642</ele>
        <time>2007-07-17T17:27:47Z</time>
      </trkpt>
      <trkpt lat="44.48138" lon="6.02544">
        <ele>642</ele>
        <time>2007-07-17T17:27:47Z</time>
      </trkpt>
      <trkpt lat="44.48142" lon="6.02544">
        <ele>643</ele>
        <time>2007-07-17T17:27:47Z</time>
      </trkpt>
      <trkpt lat="44.48145" lon="6.02547">
        <ele>643</ele>
        <time>2007-07-17T17:27:47Z</time>
      </trkpt>
      <trkpt lat="44.48149" lon="6.02551">
        <ele>642</ele>
        <time>2007-07-17T17:27:47Z</time>
      </trkpt>
      <trkpt lat="44.48153" lon="6.02551">
        <ele>642</ele>
        <time>2007-07-17T17:27:47Z</time>
      </trkpt>
      <trkpt lat="44.48158" lon="6.02554">
        <ele>642</ele>
        <time>2007-07-17T17:27:47Z</time>
      </trkpt>
      <trkpt lat="44.48162" lon="6.02555">
        <ele>642</ele>
        <time>2007-07-17T17:27:47Z</time>
      </trkpt>
      <trkpt lat="44.48165" lon="6.02558">
        <ele>642</ele>
        <time>2007-07-17T17:27:47Z</time>
      </trkpt>
      <trkpt lat="44.48167" lon="6.02561">
        <ele>646</ele>
        <time>2007-07-17T17:27:47Z</time>
      </trkpt>
      <trkpt lat="44.48169" lon="6.02565">
        <ele>646</ele>
        <time>2007-07-17T17:27:47Z</time>
      </trkpt>
      <trkpt lat="44.48171" lon="6.02568">
        <ele>645</ele>
        <time>2007-07-17T17:27:47Z</time>
      </trkpt>
      <trkpt lat="44.48175" lon="6.02571">
        <ele>645</ele>
        <time>2007-07-17T17:27:47Z</time>
      </trkpt>
      <trkpt lat="44.48177" lon="6.02575">
        <ele>644</ele>
        <time>2007-07-17T17:27:47Z</time>
      </trkpt>
      <trkpt lat="44.4818" lon="6.02578">
        <ele>645</ele>
        <time>2007-07-17T17:27:47Z</time>
      </trkpt>
      <trkpt lat="44.48182" lon="6.02581">
        <ele>645</ele>
        <time>2007-07-17T17:27:47Z</time>
      </trkpt>
      <trkpt lat="44.48184" lon="6.02584">
        <ele>640</ele>
        <time>2007-07-17T17:27:47Z</time>
      </trkpt>
      <trkpt lat="44.48186" lon="6.02588">
        <ele>640</ele>
        <time>2007-07-17T17:27:47Z</time>
      </trkpt>
      <trkpt lat="44.48188" lon="6.02591">
        <ele>640</ele>
        <time>2007-07-17T17:27:47Z</time>
      </trkpt>
      <trkpt lat="44.4819" lon="6.02594">
        <ele>640</ele>
        <time>2007-07-17T17:27:47Z</time>
      </trkpt>
      <trkpt lat="44.48192" lon="6.02598">
        <ele>640</ele>
        <time>2007-07-17T17:27:47Z</time>
      </trkpt>
      <trkpt lat="44.48194" lon="6.02604">
        <ele>639</ele>
        <time>2007-07-17T17:27:47Z</time>
      </trkpt>
      <trkpt lat="44.48197" lon="6.02607">
        <ele>639</ele>
        <time>2007-07-17T17:27:47Z</time>
      </trkpt>
      <trkpt lat="44.48199" lon="6.02611">
        <ele>639</ele>
        <time>2007-07-17T17:27:47Z</time>
      </trkpt>
      <trkpt lat="44.48201" lon="6.02614">
        <ele>639</ele>
        <time>2007-07-17T17:27:47Z</time>
      </trkpt>
      <trkpt lat="44.48203" lon="6.0262">
        <ele>639</ele>
        <time>2007-07-17T17:27:47Z</time>
      </trkpt>
      <trkpt lat="44.48205" lon="6.02624">
        <ele>639</ele>
        <time>2007-07-17T17:27:47Z</time>
      </trkpt>
      <trkpt lat="44.48207" lon="6.02627">
        <ele>639</ele>
        <time>2007-07-17T17:27:47Z</time>
      </trkpt>
      <trkpt lat="44.48209" lon="6.0263">
        <ele>638</ele>
        <time>2007-07-17T17:27:47Z</time>
      </trkpt>
      <trkpt lat="44.48211" lon="6.02633">
        <ele>638</ele>
        <time>2007-07-17T17:27:47Z</time>
      </trkpt>
      <trkpt lat="44.48214" lon="6.0264">
        <ele>638</ele>
        <time>2007-07-17T17:27:47Z</time>
      </trkpt>
      <trkpt lat="44.48213" lon="6.02646">
        <ele>638</ele>
        <time>2007-07-17T17:27:47Z</time>
      </trkpt>
      <trkpt lat="44.48215" lon="6.02649">
        <ele>638</ele>
        <time>2007-07-17T17:27:47Z</time>
      </trkpt>
      <trkpt lat="44.48218" lon="6.02653">
        <ele>637</ele>
        <time>2007-07-17T17:27:47Z</time>
      </trkpt>
      <trkpt lat="44.4822" lon="6.02659">
        <ele>637</ele>
        <time>2007-07-17T17:27:47Z</time>
      </trkpt>
      <trkpt lat="44.48222" lon="6.02662">
        <ele>637</ele>
        <time>2007-07-17T17:27:47Z</time>
      </trkpt>
      <trkpt lat="44.48222" lon="6.02669">
        <ele>634</ele>
        <time>2007-07-17T17:27:47Z</time>
      </trkpt>
      <trkpt lat="44.48224" lon="6.02672">
        <ele>634</ele>
        <time>2007-07-17T17:27:47Z</time>
      </trkpt>
      <trkpt lat="44.48224" lon="6.02675">
        <ele>634</ele>
        <time>2007-07-17T17:27:47Z</time>
      </trkpt>
      <trkpt lat="44.48226" lon="6.02678">
        <ele>634</ele>
        <time>2007-07-17T17:27:47Z</time>
      </trkpt>
      <trkpt lat="44.48226" lon="6.02681">
        <ele>634</ele>
        <time>2007-07-17T17:27:47Z</time>
      </trkpt>
      <trkpt lat="44.4823" lon="6.02697">
        <ele>634</ele>
        <time>2007-07-17T17:27:47Z</time>
      </trkpt>
      <trkpt lat="44.48229" lon="6.02701">
        <ele>634</ele>
        <time>2007-07-17T17:27:47Z</time>
      </trkpt>
      <trkpt lat="44.48232" lon="6.02704">
        <ele>634</ele>
        <time>2007-07-17T17:27:47Z</time>
      </trkpt>
      <trkpt lat="44.48231" lon="6.0271">
        <ele>634</ele>
        <time>2007-07-17T17:27:47Z</time>
      </trkpt>
      <trkpt lat="44.48233" lon="6.02717">
        <ele>634</ele>
        <time>2007-07-17T17:27:47Z</time>
      </trkpt>
      <trkpt lat="44.48233" lon="6.0272">
        <ele>634</ele>
        <time>2007-07-17T17:27:47Z</time>
      </trkpt>
      <trkpt lat="44.48236" lon="6.0272">
        <ele>634</ele>
        <time>2007-07-17T17:27:47Z</time>
      </trkpt>
      <trkpt lat="44.48235" lon="6.02723">
        <ele>634</ele>
        <time>2007-07-17T17:27:47Z</time>
      </trkpt>
      <trkpt lat="44.48238" lon="6.02726">
        <ele>634</ele>
        <time>2007-07-17T17:27:47Z</time>
      </trkpt>
      <trkpt lat="44.48238" lon="6.02729">
        <ele>634</ele>
        <time>2007-07-17T17:27:47Z</time>
      </trkpt>
      <trkpt lat="44.4824" lon="6.02733">
        <ele>634</ele>
        <time>2007-07-17T17:27:47Z</time>
      </trkpt>
      <trkpt lat="44.4824" lon="6.02736">
        <ele>634</ele>
        <time>2007-07-17T17:27:47Z</time>
      </trkpt>
      <trkpt lat="44.48242" lon="6.02739">
        <ele>634</ele>
        <time>2007-07-17T17:27:47Z</time>
      </trkpt>
      <trkpt lat="44.48242" lon="6.02742">
        <ele>634</ele>
        <time>2007-07-17T17:27:47Z</time>
      </trkpt>
      <trkpt lat="44.48241" lon="6.02745">
        <ele>633</ele>
        <time>2007-07-17T17:27:47Z</time>
      </trkpt>
      <trkpt lat="44.48244" lon="6.02746">
        <ele>633</ele>
        <time>2007-07-17T17:27:47Z</time>
      </trkpt>
      <trkpt lat="44.48244" lon="6.02749">
        <ele>633</ele>
        <time>2007-07-17T17:27:47Z</time>
      </trkpt>
      <trkpt lat="44.48246" lon="6.02752">
        <ele>633</ele>
        <time>2007-07-17T17:27:47Z</time>
      </trkpt>
      <trkpt lat="44.48246" lon="6.02755">
        <ele>633</ele>
        <time>2007-07-17T17:27:47Z</time>
      </trkpt>
      <trkpt lat="44.48246" lon="6.02758">
        <ele>634</ele>
        <time>2007-07-17T17:27:47Z</time>
      </trkpt>
      <trkpt lat="44.48248" lon="6.02762">
        <ele>634</ele>
        <time>2007-07-17T17:27:47Z</time>
      </trkpt>
      <trkpt lat="44.48248" lon="6.02765">
        <ele>634</ele>
        <time>2007-07-17T17:27:47Z</time>
      </trkpt>
      <trkpt lat="44.4825" lon="6.02765">
        <ele>634</ele>
        <time>2007-07-17T17:27:47Z</time>
      </trkpt>
      <trkpt lat="44.4825" lon="6.02768">
        <ele>634</ele>
        <time>2007-07-17T17:27:47Z</time>
      </trkpt>
      <trkpt lat="44.4825" lon="6.02771">
        <ele>634</ele>
        <time>2007-07-17T17:27:47Z</time>
      </trkpt>
      <trkpt lat="44.48252" lon="6.02771">
        <ele>634</ele>
        <time>2007-07-17T17:27:47Z</time>
      </trkpt>
      <trkpt lat="44.48252" lon="6.02774">
        <ele>634</ele>
        <time>2007-07-17T17:27:47Z</time>
      </trkpt>
      <trkpt lat="44.48254" lon="6.02778">
        <ele>634</ele>
        <time>2007-07-17T17:27:47Z</time>
      </trkpt>
      <trkpt lat="44.48254" lon="6.02781">
        <ele>634</ele>
        <time>2007-07-17T17:27:47Z</time>
      </trkpt>
      <trkpt lat="44.48254" lon="6.02784">
        <ele>634</ele>
        <time>2007-07-17T17:27:47Z</time>
      </trkpt>
      <trkpt lat="44.48256" lon="6.02787">
        <ele>634</ele>
        <time>2007-07-17T17:27:47Z</time>
      </trkpt>
      <trkpt lat="44.48256" lon="6.0279">
        <ele>634</ele>
        <time>2007-07-17T17:27:47Z</time>
      </trkpt>
      <trkpt lat="44.48258" lon="6.02794">
        <ele>634</ele>
        <time>2007-07-17T17:27:47Z</time>
      </trkpt>
      <trkpt lat="44.48258" lon="6.02797">
        <ele>634</ele>
        <time>2007-07-17T17:27:47Z</time>
      </trkpt>
      <trkpt lat="44.4826" lon="6.02797">
        <ele>634</ele>
        <time>2007-07-17T17:27:47Z</time>
      </trkpt>
      <trkpt lat="44.4826" lon="6.028">
        <ele>634</ele>
        <time>2007-07-17T17:27:47Z</time>
      </trkpt>
      <trkpt lat="44.4826" lon="6.02803">
        <ele>634</ele>
        <time>2007-07-17T17:27:47Z</time>
      </trkpt>
      <trkpt lat="44.48262" lon="6.02803">
        <ele>634</ele>
        <time>2007-07-17T17:27:47Z</time>
      </trkpt>
      <trkpt lat="44.48262" lon="6.02806">
        <ele>634</ele>
        <time>2007-07-17T17:27:47Z</time>
      </trkpt>
      <trkpt lat="44.48262" lon="6.0281">
        <ele>634</ele>
        <time>2007-07-17T17:27:47Z</time>
      </trkpt>
      <trkpt lat="44.48264" lon="6.02813">
        <ele>634</ele>
        <time>2007-07-17T17:27:47Z</time>
      </trkpt>
      <trkpt lat="44.48264" lon="6.02816">
        <ele>634</ele>
        <time>2007-07-17T17:27:47Z</time>
      </trkpt>
      <trkpt lat="44.48264" lon="6.02819">
        <ele>634</ele>
        <time>2007-07-17T17:27:47Z</time>
      </trkpt>
      <trkpt lat="44.48266" lon="6.02819">
        <ele>634</ele>
        <time>2007-07-17T17:27:47Z</time>
      </trkpt>
      <trkpt lat="44.48266" lon="6.02822">
        <ele>634</ele>
        <time>2007-07-17T17:27:47Z</time>
      </trkpt>
      <trkpt lat="44.48266" lon="6.02826">
        <ele>634</ele>
        <time>2007-07-17T17:27:47Z</time>
      </trkpt>
      <trkpt lat="44.48266" lon="6.02829">
        <ele>634</ele>
        <time>2007-07-17T17:27:47Z</time>
      </trkpt>
      <trkpt lat="44.48268" lon="6.02832">
        <ele>634</ele>
        <time>2007-07-17T17:27:47Z</time>
      </trkpt>
      <trkpt lat="44.48268" lon="6.02838">
        <ele>633</ele>
        <time>2007-07-17T17:27:47Z</time>
      </trkpt>
      <trkpt lat="44.48268" lon="6.02841">
        <ele>633</ele>
        <time>2007-07-17T17:27:47Z</time>
      </trkpt>
      <trkpt lat="44.48267" lon="6.02845">
        <ele>633</ele>
        <time>2007-07-17T17:27:47Z</time>
      </trkpt>
      <trkpt lat="44.48267" lon="6.02851">
        <ele>634</ele>
        <time>2007-07-17T17:27:47Z</time>
      </trkpt>
      <trkpt lat="44.48267" lon="6.02854">
        <ele>634</ele>
        <time>2007-07-17T17:27:47Z</time>
      </trkpt>
      <trkpt lat="44.48267" lon="6.02857">
        <ele>634</ele>
        <time>2007-07-17T17:27:47Z</time>
      </trkpt>
      <trkpt lat="44.48267" lon="6.0286">
        <ele>634</ele>
        <time>2007-07-17T17:27:47Z</time>
      </trkpt>
      <trkpt lat="44.48267" lon="6.02863">
        <ele>634</ele>
        <time>2007-07-17T17:27:47Z</time>
      </trkpt>
      <trkpt lat="44.48267" lon="6.02867">
        <ele>634</ele>
        <time>2007-07-17T17:27:47Z</time>
      </trkpt>
      <trkpt lat="44.48267" lon="6.0287">
        <ele>634</ele>
        <time>2007-07-17T17:27:47Z</time>
      </trkpt>
      <trkpt lat="44.48269" lon="6.0287">
        <ele>634</ele>
        <time>2007-07-17T17:27:47Z</time>
      </trkpt>
      <trkpt lat="44.48268" lon="6.02882">
        <ele>634</ele>
        <time>2007-07-17T17:27:47Z</time>
      </trkpt>
      <trkpt lat="44.4827" lon="6.02889">
        <ele>634</ele>
        <time>2007-07-17T17:27:47Z</time>
      </trkpt>
      <trkpt lat="44.4827" lon="6.02892">
        <ele>634</ele>
        <time>2007-07-17T17:27:47Z</time>
      </trkpt>
      <trkpt lat="44.4827" lon="6.02895">
        <ele>634</ele>
        <time>2007-07-17T17:27:47Z</time>
      </trkpt>
      <trkpt lat="44.4827" lon="6.02898">
        <ele>634</ele>
        <time>2007-07-17T17:27:47Z</time>
      </trkpt>
      <trkpt lat="44.48272" lon="6.02898">
        <ele>634</ele>
        <time>2007-07-17T17:27:47Z</time>
      </trkpt>
      <trkpt lat="44.48272" lon="6.02901">
        <ele>634</ele>
        <time>2007-07-17T17:27:47Z</time>
      </trkpt>
      <trkpt lat="44.48272" lon="6.02905">
        <ele>634</ele>
        <time>2007-07-17T17:27:47Z</time>
      </trkpt>
      <trkpt lat="44.48272" lon="6.02908">
        <ele>634</ele>
        <time>2007-07-17T17:27:47Z</time>
      </trkpt>
      <trkpt lat="44.48274" lon="6.02908">
        <ele>634</ele>
        <time>2007-07-17T17:27:47Z</time>
      </trkpt>
      <trkpt lat="44.48274" lon="6.02911">
        <ele>634</ele>
        <time>2007-07-17T17:27:47Z</time>
      </trkpt>
      <trkpt lat="44.48274" lon="6.02914">
        <ele>634</ele>
        <time>2007-07-17T17:27:47Z</time>
      </trkpt>
      <trkpt lat="44.48276" lon="6.02914">
        <ele>634</ele>
        <time>2007-07-17T17:27:47Z</time>
      </trkpt>
      <trkpt lat="44.48276" lon="6.02917">
        <ele>635</ele>
        <time>2007-07-17T17:27:47Z</time>
      </trkpt>
    </trkseg>
  </trk>
</gpx>